GFSSE_500_rhum_000.txt.gz
RH
42 40 40 40 33 32 29 26 23 24 24 24 18 9 9 9 8 8 7 8 11 11 11 11 11 10 8 8 10 9 10 10 10 9 9 8 5 4 4 4 7 7 6
43 43 43 40 37 32 31 29 27 25 24 20 17 11 8 9 8 9 8 9 11 11 11 12 13 12 8 9 10 10 12 11 10 9 9 10 7 5 5 5 5 5 5
46 42 40 40 37 33 36 32 28 27 25 18 12 8 9 10 9 10 10 10 10 11 11 12 9 7 6 9 10 12 12 11 10 10 11 13 10 6 5 5 5 6 6
38 38 49 49 40 44 37 32 24 23 19 12 4 7 9 11 11 11 10 11 11 12 11 10 9 7 6 11 11 14 13 12 12 13 12 14 12 10 8 7 7 10 12
45 50 53 48 44 40 40 33 28 18 13 7 3 5 9 12 12 11 12 13 11 11 11 11 10 8 5 9 11 12 14 13 14 15 16 18 17 15 15 15 18 17 19
50 45 52 48 44 47 44 32 30 22 20 8 5 6 8 12 12 12 13 13 12 11 10 10 9 8 4 6 9 13 17 15 15 19 20 22 25 26 24 22 22 23 23
58 47 51 45 45 45 44 35 31 30 21 21 12 9 10 11 11 12 13 13 11 11 9 8 9 8 7 9 12 13 15 17 17 18 19 20 22 23 23 24 24 25 25
56 51 52 48 46 45 43 39 32 31 30 24 23 21 16 13 10 8 7 7 8 9 8 9 11 10 9 10 12 13 14 13 14 15 15 16 16 17 19 20 21 22 22
53 54 54 47 45 45 42 39 37 33 30 32 30 26 25 24 19 10 8 6 8 8 10 12 13 14 15 14 15 15 13 11 10 11 16 21 24 25 23 17 15 18 19
53 50 54 40 39 43 42 38 36 36 38 36 33 32 29 27 26 25 12 9 10 10 11 12 12 12 13 16 19 19 17 15 15 15 19 24 24 24 24 21 17 12 9
55 53 46 40 32 37 43 43 40 35 35 36 38 38 36 32 29 30 29 24 14 12 12 15 19 22 22 22 24 26 28 28 28 26 26 26 24 24 25 20 16 12 10
60 62 41 39 35 30 28 30 32 35 34 32 35 39 39 36 32 27 26 25 24 23 22 22 22 23 26 26 28 27 24 24 24 24 24 24 22 18 18 16 12 10 10
74 63 43 38 34 31 29 27 26 26 31 31 30 35 36 32 28 26 26 26 25 25 25 26 27 27 27 25 15 9 9 10 11 12 12 12 12 11 10 9 9 9 9
78 67 54 41 36 32 28 26 26 26 30 31 31 33 32 31 30 29 29 28 27 27 26 25 22 19 13 5 4 4 5 6 7 7 7 6 6 6 6 6 6 7 7
78 69 62 57 50 39 31 28 26 28 30 28 26 27 27 26 24 22 22 20 19 16 10 5 3 2 3 5 5 6 6 6 6 6 6 6 7 7 8 9 10 10 10
75 59 55 53 50 46 41 35 28 26 29 29 30 30 28 24 20 18 14 9 4 1 2 2 3 3 4 6 7 8 10 13 16 19 22 24 26 28 28 28 29 29 30
56 48 46 45 44 44 39 32 27 26 30 31 28 31 32 25 14 5 3 2 2 2 2 4 8 13 20 23 24 25 25 27 30 33 33 33 31 29 27 24 21 20 20
45 45 49 49 48 48 46 35 28 31 29 28 31 32 31 26 12 3 2 6 7 9 13 20 23 26 27 27 30 34 34 31 25 17 13 11 10 10 11 13 14 13 12
50 49 45 52 44 33 50 45 42 35 28 35 33 29 18 9 3 4 7 9 11 16 24 28 33 35 36 34 30 22 15 12 11 10 9 8 7 7 6 6 6 6 6
49 50 56 48 14 37 60 57 44 36 37 34 21 8 4 5 9 11 14 19 27 30 36 39 37 34 27 20 16 13 10 8 8 9 9 9 9 9 8 8 8 8 8
48 55 34 21 47 60 55 49 41 39 31 15 9 8 12 14 26 35 38 41 42 41 34 27 21 17 13 12 12 12 12 12 13 13 16 16 16 15 14 13 12 12 12
48 28 36 55 54 56 49 39 39 31 19 12 12 14 20 32 38 41 40 36 29 25 24 22 19 16 15 15 14 14 13 15 17 18 18 18 18 18 18 17 16 15 14
18 32 61 62 58 46 39 40 29 19 14 13 18 30 38 45 43 35 30 25 23 20 16 17 17 15 12 12 12 12 12 13 13 15 15 16 16 16 16 17 16 15 14
18 32 44 54 52 45 40 31 23 19 18 30 40 48 48 42 34 28 23 16 16 19 19 16 13 12 12 12 12 14 15 15 14 13 15 15 15 16 16 16 16 15 13
27 34 40 50 48 48 37 24 20 21 36 47 54 44 35 31 28 22 17 20 19 17 16 15 15 15 15 15 16 16 16 17 18 17 14 15 14 13 13 12 11 10 8
38 44 53 53 45 31 23 19 26 48 56 49 36 30 30 30 23 21 20 18 17 16 16 15 15 18 18 19 19 19 18 16 15 13 12 11 10 9 8 7 7 6 6

GFSSE_500_rhum_003.txt.gz
RH
28 32 35 34 33 32 26 26 26 20 21 24 25 22 14 8 8 8 8 7 7 10 12 11 11 12 13 10 7 8 9 10 11 10 10 10 9 8 8 6 5 4 5
33 36 40 38 31 31 30 28 27 26 26 25 24 20 16 9 9 8 8 8 8 10 12 12 12 14 14 9 6 8 10 12 12 11 10 10 8 9 9 7 5 5 5
45 42 33 31 42 39 33 30 34 30 25 25 23 15 11 10 9 8 8 10 10 10 11 12 12 11 8 7 6 8 10 12 12 11 11 13 11 11 11 8 6 5 5
50 44 30 46 50 42 39 40 35 29 23 17 10 5 5 8 10 10 10 10 10 10 11 12 12 10 9 9 7 6 8 12 13 12 13 15 16 16 15 13 12 12 12
62 52 38 49 49 43 39 30 36 31 22 15 4 1 4 10 12 12 12 11 12 12 12 10 11 10 10 8 5 5 7 10 15 15 16 19 21 23 24 24 24 22 22
76 45 41 50 50 44 42 38 39 33 30 20 17 3 3 6 8 12 13 12 13 14 13 12 11 10 9 8 4 7 11 12 13 17 18 19 21 22 22 22 22 24 25
78 45 41 50 46 43 42 44 42 35 31 29 20 17 8 6 9 12 13 13 12 12 10 10 9 8 8 7 5 7 10 13 15 14 14 15 17 18 18 18 17 19 21
69 49 44 49 50 46 45 42 41 38 32 29 30 25 21 18 13 11 11 10 7 5 6 8 8 9 11 11 11 11 12 14 15 14 11 10 9 12 18 24 25 25 21
56 50 50 53 49 42 43 42 40 36 35 36 34 30 31 29 25 24 24 19 10 8 8 9 10 12 13 14 14 14 15 18 18 16 16 15 16 18 19 24 25 25 26
50 53 51 55 44 37 35 40 40 37 34 33 33 35 37 36 33 30 28 30 29 20 12 14 13 13 12 14 16 20 21 22 23 25 25 26 28 28 27 27 26 25 24
56 59 56 60 41 32 30 33 32 29 30 31 32 31 33 37 40 39 36 32 29 29 27 24 22 21 21 22 23 22 24 26 28 29 25 25 25 26 25 24 23 22 20
66 67 60 59 41 36 32 29 28 27 26 25 27 30 30 34 38 37 33 32 30 28 25 23 23 23 23 24 26 26 28 27 23 8 7 9 12 14 14 14 12 11 10
69 67 72 57 40 35 34 36 33 32 31 27 27 30 32 33 34 32 30 28 26 26 25 25 25 25 25 25 24 22 16 6 4 4 4 5 6 6 6 5 5 5 4
71 66 72 58 45 38 40 35 34 35 33 30 28 28 28 28 28 26 26 25 23 22 21 18 19 17 14 7 2 2 3 5 6 6 7 7 7 6 5 6 8 11 13
62 67 70 62 54 49 54 51 45 41 39 30 28 29 28 29 28 26 22 18 16 14 10 6 1 0 1 2 3 5 6 9 12 14 16 20 23 25 25 24 26 28 29
58 69 72 61 50 48 46 45 44 37 35 33 27 30 28 25 27 29 28 24 15 6 2 3 3 3 5 9 18 21 25 26 26 26 26 29 30 28 22 16 13 11 10
65 66 68 62 49 43 45 44 43 38 34 31 33 28 22 28 30 30 28 21 11 4 4 5 9 15 20 24 26 28 29 31 32 29 24 17 14 11 9 8 7 7 7
76 70 59 44 44 51 49 48 45 49 48 46 42 25 31 32 27 14 4 3 7 9 11 14 18 23 26 26 32 34 31 23 17 14 12 11 10 9 9 9 10 11 10
72 59 51 49 49 48 52 53 34 48 56 50 36 35 32 17 6 6 10 16 27 32 33 34 35 34 34 30 26 22 18 14 14 14 14 13 13 12 12 12 12 14 16
64 56 44 50 53 56 54 19 39 57 52 43 38 34 16 11 12 16 24 34 34 35 36 35 32 29 26 25 21 18 16 15 13 12 12 13 14 15 15 15 16 16 16
53 43 36 36 50 50 24 44 55 51 49 36 34 21 14 14 19 27 33 37 37 34 32 28 24 21 17 16 17 16 14 13 13 13 13 13 12 13 14 14 15 16 16
47 45 41 44 45 22 46 53 55 45 33 35 26 18 16 17 25 36 41 39 34 30 25 19 17 19 21 20 16 15 14 14 14 14 13 13 13 14 14 14 14 15 15
47 46 47 44 48 76 63 54 47 40 39 33 25 16 16 33 45 45 39 34 32 25 18 20 21 18 16 16 15 15 14 13 12 13 12 12 13 14 13 12 12 11 10
44 41 22 14 20 48 50 52 46 45 38 27 17 18 39 50 43 35 34 38 28 23 20 17 16 17 17 17 18 18 18 16 13 11 14 14 13 12 11 10 10 9 8
47 27 11 12 30 39 52 55 48 33 22 17 38 52 50 41 35 40 36 26 22 19 18 21 22 22 21 21 21 20 21 20 19 17 14 14 13 12 11 10 9 8 7
50 31 33 41 50 59 58 43 28 19 22 44 48 43 36 33 30 26 24 21 19 21 23 24 25 25 26 26 26 25 23 20 18 16 15 14 13 11 10 9 6 4 4

GFSSE_500_rhum_009.txt.gz
RH
11 13 13 14 20 26 23 16 16 18 22 21 20 20 19 24 24 22 11 9 9 9 8 7 11 12 12 12 12 14 13 7 9 10 11 12 12 12 14 12 10 8 6
15 16 20 21 29 29 23 26 24 24 31 30 26 22 25 25 21 17 14 9 8 8 8 8 9 13 13 12 14 14 10 7 9 10 12 13 13 13 14 16 17 13 10
14 27 27 31 39 35 28 30 28 24 30 28 27 22 19 23 19 12 10 10 9 9 10 10 10 10 11 12 12 11 8 8 7 9 10 14 14 15 17 17 18 20 23
14 21 32 44 47 35 40 37 33 29 31 36 31 22 18 10 8 5 9 10 10 10 11 11 10 11 10 11 12 11 9 10 7 7 12 14 18 19 18 18 20 21 21
19 24 37 52 56 38 49 44 38 32 36 36 34 31 22 13 1 4 10 12 13 13 13 12 13 14 14 13 13 12 10 10 7 7 15 16 19 21 19 17 20 21 21
21 26 30 70 50 42 51 41 39 36 40 33 34 32 30 24 17 4 6 10 13 14 16 15 15 14 13 10 11 11 9 8 6 5 12 15 18 16 15 14 13 13 16
18 24 65 75 44 44 46 48 44 38 39 40 38 33 30 31 30 24 15 9 9 10 11 10 8 7 6 7 9 8 8 8 6 4 7 10 12 13 14 14 14 13 13
18 27 67 71 44 46 47 46 41 42 43 40 37 36 36 32 30 31 31 28 25 22 20 18 15 11 8 7 8 10 11 12 14 15 15 15 16 17 19 21 22 22 23
20 61 69 61 46 55 51 44 39 40 43 38 34 34 34 34 34 36 37 36 34 32 31 29 28 28 25 13 11 11 13 14 14 14 16 18 20 22 25 28 29 30 29
17 64 65 51 46 54 47 47 36 35 32 26 28 27 27 28 31 32 31 32 35 38 39 37 35 32 29 29 29 26 23 21 21 22 22 24 26 28 29 29 26 22 8
15 59 65 45 49 50 48 47 35 30 29 30 32 32 30 28 28 30 32 32 34 36 38 38 36 33 30 28 26 26 25 26 28 28 27 26 25 22 16 12 5 4 5
16 19 57 50 48 54 53 50 39 34 35 35 34 36 37 35 30 28 28 26 26 27 27 28 28 27 27 26 26 25 24 21 19 16 13 8 4 3 5 6 7 8 8
25 26 40 46 43 52 57 53 38 38 37 39 38 39 42 43 38 33 28 29 29 28 26 24 21 18 15 14 13 12 10 7 3 1 2 3 5 10 16 22 24 26 27
44 39 42 53 48 42 47 49 44 45 48 48 46 45 43 42 37 32 31 30 27 23 26 30 30 30 29 25 17 7 4 4 4 5 10 17 24 28 29 30 30 28 26
42 62 65 60 54 53 49 55 52 50 52 48 49 45 44 41 36 35 32 32 26 25 31 33 31 28 20 14 11 5 5 8 12 15 19 28 30 32 30 27 24 20 18
41 75 68 63 60 56 51 59 59 55 50 47 47 49 48 46 44 39 36 33 31 34 32 20 11 7 6 8 9 11 16 22 24 24 29 30 26 23 22 17 15 14 14
44 60 72 67 57 56 63 63 63 58 56 51 50 53 47 37 50 44 42 38 37 28 13 10 11 14 23 28 32 35 34 33 31 30 28 26 25 22 20 18 16 16 15
38 44 63 61 58 59 66 69 59 55 53 53 56 49 26 52 56 49 41 38 26 15 11 12 19 25 32 37 35 32 30 28 26 23 21 19 18 18 17 16 14 14 14
34 38 58 59 67 73 72 55 54 49 44 45 43 39 48 55 50 41 38 36 29 18 11 14 19 33 41 39 35 29 24 21 20 20 20 18 17 16 16 16 16 15 15
34 38 59 60 73 74 65 56 45 42 43 47 36 45 52 52 48 45 44 38 26 13 13 35 45 44 41 36 32 29 24 20 18 18 18 19 20 20 19 19 19 20 19
34 38 56 64 72 69 56 53 47 45 49 62 47 51 52 53 50 48 39 29 12 9 27 46 43 33 32 29 26 22 20 19 20 22 23 23 24 24 24 24 24 24 22
33 36 45 65 67 61 53 49 50 46 32 31 49 53 53 52 51 38 24 9 14 30 44 39 32 29 26 24 22 21 20 23 24 26 29 29 29 28 28 28 27 27 26
29 38 48 61 64 60 52 51 46 23 10 22 38 43 51 50 33 20 13 14 32 41 37 31 27 26 24 22 22 25 27 27 26 27 28 28 27 28 28 30 31 31 30
27 40 47 52 56 54 49 47 41 28 28 40 47 51 46 28 18 13 18 38 45 35 28 28 28 25 25 28 30 30 28 26 25 22 23 27 28 28 31 32 29 27 24
29 42 43 45 46 46 49 53 55 45 39 37 36 32 21 16 15 28 48 43 32 31 30 29 29 31 32 34 33 32 32 32 31 26 20 22 27 30 28 27 25 21 17
21 38 41 40 46 50 53 57 58 48 28 24 20 19 16 16 38 53 39 33 33 33 34 36 38 38 36 36 34 33 32 32 32 32 29 26 23 24 22 17 11 7 5

GFSSE_500_rhum_012.txt.gz
RH
16 13 14 14 13 14 21 22 16 15 17 21 25 19 18 18 22 24 24 16 10 9 9 8 7 10 12 12 12 12 13 15 12 8 10 13 13 13 13 15 15 11 10
14 13 16 16 17 21 26 26 22 21 21 25 24 25 22 21 25 24 17 16 11 9 8 8 8 8 11 14 14 13 14 15 12 7 10 12 14 13 14 15 15 17 16
14 11 11 15 19 26 33 28 32 26 20 23 25 22 21 15 20 23 16 10 11 9 9 10 11 11 11 13 13 13 13 12 9 8 9 10 14 14 16 15 15 17 21
13 12 13 17 22 32 38 32 31 30 23 28 32 30 25 20 11 8 8 8 10 10 11 12 12 12 13 13 12 12 12 12 10 10 8 9 14 14 13 15 15 17 18
12 14 20 24 33 42 41 33 39 32 29 26 30 34 32 27 18 3 4 7 10 12 13 13 12 13 13 14 14 13 12 11 12 11 10 6 11 14 15 14 14 16 14
12 14 20 23 28 48 40 43 38 40 33 40 36 29 30 30 30 22 12 4 9 13 14 14 14 14 13 13 13 12 10 10 11 10 8 6 8 14 17 18 15 16 14
17 18 18 21 40 59 39 40 47 45 39 36 34 35 34 31 30 30 30 27 18 9 8 9 10 11 11 10 7 7 8 8 8 8 8 5 4 8 12 12 13 14 16
19 19 18 37 69 68 38 34 50 41 40 42 41 38 36 35 35 33 31 30 31 31 29 27 25 24 24 21 12 8 8 9 10 11 12 13 14 13 14 15 16 19 22
23 18 19 31 60 62 38 39 49 40 40 42 36 30 30 32 33 34 34 34 35 37 37 37 35 33 32 31 30 29 24 15 13 13 14 14 14 14 15 18 20 23 26
25 20 18 49 62 54 40 46 51 45 36 37 30 30 30 29 28 29 31 32 33 33 34 38 42 43 40 37 34 31 29 28 28 27 25 24 23 25 26 26 26 25 26
26 20 18 54 60 47 47 42 50 45 35 31 32 33 34 36 38 35 30 29 27 26 26 30 31 32 32 32 31 30 29 28 28 27 26 26 24 23 20 13 7 5 4
29 24 19 29 64 47 49 44 46 48 36 34 37 38 40 42 44 43 40 37 30 28 29 27 20 19 18 16 16 15 13 12 12 13 10 8 5 2 1 2 3 6 9
30 28 28 25 50 49 43 46 45 50 39 40 40 37 40 37 37 44 43 37 34 32 29 28 25 26 30 31 31 30 27 22 14 9 6 4 4 4 7 15 22 26 27
29 26 29 39 39 50 44 48 51 59 48 42 44 46 47 47 45 46 44 41 38 35 32 28 27 30 33 32 26 20 18 15 12 7 6 11 16 19 23 31 28 30 31
28 29 28 58 49 56 57 56 55 58 56 52 54 52 47 49 51 49 44 42 43 39 35 33 35 32 16 9 8 10 11 11 12 17 21 25 28 32 33 32 30 27 24
25 30 33 70 63 63 61 57 57 55 64 64 59 52 55 52 45 30 34 43 44 40 36 36 26 15 11 13 17 26 32 34 38 39 36 34 33 31 29 25 22 20 18
20 27 38 76 71 68 60 62 61 57 61 65 57 55 52 51 37 45 44 52 47 41 38 29 22 13 10 12 17 25 33 35 34 33 31 27 24 22 22 22 20 19 19
16 26 37 49 49 68 66 62 63 64 68 58 55 49 48 37 42 50 53 49 42 42 40 35 24 13 10 18 30 34 37 38 36 33 28 25 22 21 21 20 19 18 17
15 26 32 39 40 61 64 78 74 70 57 50 42 48 51 40 48 50 50 52 47 46 37 26 13 9 15 37 47 44 40 36 34 31 28 25 22 20 19 20 20 20 20
18 19 28 36 42 60 70 83 76 64 56 48 48 49 56 50 46 49 50 50 47 39 25 15 9 13 27 43 43 35 32 29 26 23 22 21 20 21 22 24 25 26 26
27 19 24 35 44 60 70 76 70 58 50 50 47 36 22 49 49 48 47 48 40 25 17 17 14 20 36 40 34 30 28 26 23 22 22 24 26 28 28 27 28 28 28
28 22 23 34 38 58 69 71 66 56 52 49 30 12 27 37 42 45 50 41 24 17 14 15 35 44 43 38 31 28 26 26 28 30 31 32 32 33 33 34 33 34 34
28 31 26 30 38 50 68 69 67 54 50 46 35 37 42 44 45 44 32 20 16 15 20 45 48 36 33 32 29 30 33 33 32 33 35 34 33 35 36 36 35 35 34
23 34 34 28 38 48 62 62 57 51 49 57 53 48 36 28 26 20 18 14 16 36 53 41 37 33 29 30 34 35 34 33 32 31 32 34 34 34 35 34 30 24 18
26 30 20 24 39 45 54 55 51 49 53 58 59 48 32 21 19 16 13 21 52 52 40 38 34 30 32 35 36 34 33 34 33 30 27 27 31 31 24 18 13 10 8
27 31 22 24 38 44 46 47 47 52 53 58 52 31 21 18 16 13 30 56 53 40 34 34 38 38 38 38 37 38 37 35 32 30 26 24 22 21 18 13 9 8 8

GFSSE_500_rhum_015.txt.gz
RH
20 16 13 13 13 12 12 14 17 15 12 13 18 19 18 18 16 20 23 22 22 12 10 9 9 9 8 12 12 12 12 12 13 14 14 9 11 14 14 14 15 15 15
19 16 15 13 13 11 11 13 18 16 15 14 18 19 20 19 18 21 24 20 20 17 10 9 9 8 7 9 13 14 13 13 13 15 15 12 8 10 14 15 14 16 17
20 20 13 11 11 10 13 16 20 21 20 16 18 24 20 22 15 18 20 23 17 15 12 9 9 10 10 10 11 13 13 13 13 13 12 10 8 10 13 14 15 15 16
16 15 14 12 12 12 15 22 26 25 24 20 20 28 28 26 21 18 11 16 13 10 11 10 10 11 12 11 12 11 11 11 11 12 12 10 9 9 9 13 17 17 16
14 16 13 12 12 14 18 29 31 26 25 25 28 22 30 30 28 25 14 3 5 8 10 11 11 12 12 12 13 13 14 13 13 12 12 12 11 10 7 12 16 17 17
15 15 13 13 13 15 18 36 36 30 26 33 28 35 33 31 26 29 30 26 19 7 8 12 14 14 15 14 14 14 14 14 12 10 10 11 11 9 7 7 14 16 16
15 14 15 15 16 18 26 46 38 36 41 36 34 35 33 30 32 31 29 29 30 30 29 22 13 10 11 11 10 10 8 7 7 7 8 8 9 8 6 4 8 13 14
17 20 19 18 17 23 40 53 37 40 45 38 40 41 38 37 36 35 35 35 36 36 36 34 33 32 29 28 27 26 24 20 14 10 9 10 11 12 13 12 10 11 14
24 24 22 18 18 29 52 57 39 40 45 38 41 38 30 29 30 31 31 32 33 34 34 35 37 40 41 40 38 36 34 32 31 30 28 22 13 12 13 14 14 15 15
28 26 26 22 20 29 58 61 44 44 48 41 38 34 31 33 33 33 34 32 30 30 29 30 31 34 35 38 42 42 41 38 35 32 30 28 28 27 26 26 26 26 26
29 28 28 23 20 44 67 63 47 50 52 43 35 33 33 34 36 39 41 42 41 38 33 30 29 28 25 21 20 21 22 23 24 24 25 25 23 21 19 16 15 12 6
32 33 31 28 20 29 59 62 48 50 54 51 38 36 37 41 42 43 42 38 40 42 38 34 31 29 28 25 26 29 32 31 29 26 22 16 12 8 6 4 4 3 4
34 36 31 29 27 24 51 62 48 54 55 59 42 40 46 45 40 40 43 47 45 42 41 38 34 31 29 28 28 29 30 30 28 26 24 22 19 14 8 6 8 14 17
32 33 31 31 29 37 33 55 49 52 57 61 57 48 48 47 44 46 41 48 49 46 39 40 39 32 30 30 30 25 19 12 8 9 8 8 10 10 13 19 23 29 35
25 27 29 28 30 46 40 43 59 59 62 63 70 65 53 50 54 50 52 44 34 33 38 48 42 38 36 27 18 12 10 11 14 21 26 30 34 36 38 38 36 35 33
26 21 23 24 31 46 65 61 69 73 75 72 70 68 62 57 54 51 47 40 42 43 46 44 40 39 33 32 22 13 10 14 21 27 32 34 35 34 32 31 29 25 23
27 19 18 22 30 38 72 77 76 78 75 73 71 71 63 59 53 50 39 43 49 47 47 45 45 43 37 25 14 10 13 24 32 38 40 40 37 35 29 24 22 22 21
26 17 16 21 29 38 64 77 81 72 71 75 73 67 59 54 50 52 45 52 52 51 51 49 46 38 25 16 10 12 19 33 41 44 42 39 36 33 30 27 25 22 20
25 19 12 21 29 37 45 72 73 72 76 75 69 59 51 50 49 53 54 51 47 48 46 42 37 31 26 26 22 17 31 43 41 37 34 30 27 25 23 22 22 22 23
23 23 11 16 29 36 44 62 66 79 83 76 66 54 49 50 43 22 49 48 46 44 46 46 37 24 16 16 18 22 41 39 35 32 30 28 27 26 29 31 31 30 30
21 26 26 17 21 32 42 53 65 77 79 73 59 49 51 41 13 27 37 41 44 45 39 26 20 16 13 24 47 47 44 39 35 32 29 32 35 35 34 34 33 32 31
23 19 29 31 20 22 37 46 62 73 75 68 59 52 48 32 35 43 41 36 28 23 19 19 14 15 41 51 44 39 34 32 32 35 38 38 37 36 36 36 36 35 35
25 22 23 31 23 21 32 39 60 70 72 69 60 51 52 52 50 47 41 29 20 19 19 14 18 52 50 44 42 38 35 37 39 40 41 41 41 40 38 37 37 36 33
30 29 25 29 38 40 29 38 47 63 70 66 58 50 52 57 56 50 32 21 18 22 15 18 50 54 44 36 36 38 40 41 45 44 44 43 40 38 36 35 30 24 20
35 35 30 29 35 37 28 35 43 53 60 59 52 50 53 58 55 38 23 18 19 15 18 50 57 44 36 40 41 43 47 49 46 46 44 40 38 37 32 26 20 12 11
36 36 33 37 36 19 18 31 40 46 51 52 47 49 50 49 43 26 18 19 15 26 54 59 45 38 40 41 44 54 51 49 53 50 41 34 29 30 30 21 15 14 15

GFSSE_500_rhum_018.txt.gz
RH
20 22 17 13 11 10 8 7 7 8 10 9 8 8 10 12 13 11 10 14 17 22 19 12 10 9 10 9 8 10 12 11 11 12 12 13 15 13 10 12 14 14 16
24 19 16 14 12 10 8 8 8 9 11 12 10 9 10 11 15 16 17 19 25 21 22 18 11 9 9 8 8 8 11 12 12 13 12 13 15 14 11 10 14 15 16
26 22 19 16 13 10 9 9 11 11 14 15 13 11 15 16 17 18 14 18 20 22 17 14 13 10 9 9 10 9 10 12 13 14 13 12 12 12 10 9 11 14 16
19 20 18 16 14 12 11 11 15 16 19 20 17 14 18 21 24 24 19 14 8 15 15 12 11 10 10 11 12 12 12 12 12 12 12 12 12 12 11 10 9 11 15
19 17 18 17 14 12 12 15 21 23 25 24 23 26 24 21 21 23 28 27 22 12 5 7 10 12 12 13 14 14 14 13 14 14 15 14 12 12 12 12 10 8 11
18 20 20 18 15 13 15 19 28 29 31 28 32 31 27 24 22 27 27 25 29 29 26 21 12 9 11 13 12 11 12 12 12 11 9 8 9 9 10 10 10 7 6
18 22 27 19 16 15 17 18 29 36 37 37 39 32 34 35 33 32 28 29 31 29 28 30 31 30 27 21 15 14 14 14 16 18 14 10 8 8 10 10 10 10 6
19 23 26 23 20 18 18 21 39 44 38 42 40 38 42 38 36 36 36 36 36 35 36 36 37 37 37 36 35 34 33 32 32 32 31 30 28 22 14 12 13 14 15
22 28 28 28 25 21 23 38 52 59 41 42 42 39 41 31 30 31 30 30 31 31 31 31 31 32 32 34 35 36 39 42 42 41 40 37 35 32 30 29 26 20 17
30 31 29 32 32 26 27 39 61 69 48 46 48 40 38 32 34 34 35 39 40 42 40 39 34 30 30 29 28 25 23 23 22 22 22 24 28 28 28 28 27 27 26
33 31 30 32 32 26 23 48 71 77 56 56 55 44 37 35 35 36 37 39 41 40 38 38 41 39 35 31 30 29 28 28 29 31 32 31 30 26 21 15 12 12 10
35 33 31 35 35 31 24 29 80 81 62 58 55 54 41 40 43 45 43 40 38 39 37 38 39 35 36 35 28 27 28 26 25 26 28 26 29 29 29 28 24 19 12
36 37 36 35 33 33 30 27 40 79 66 58 57 60 50 45 52 50 46 40 41 42 39 45 44 39 35 36 34 29 30 27 21 16 14 12 10 9 9 8 10 9 9
32 36 37 35 32 33 31 32 36 57 70 62 60 59 65 64 56 54 48 46 50 48 44 38 37 35 33 36 32 27 26 24 18 12 9 11 14 16 21 24 30 32 28
32 32 31 32 32 32 31 33 44 40 67 69 60 61 63 71 66 61 51 52 50 47 41 38 45 43 43 41 39 35 32 25 14 12 11 11 15 24 32 34 34 32 31
32 37 29 26 28 29 30 31 50 47 63 81 77 72 66 68 69 60 58 54 49 42 38 48 50 53 51 47 42 34 24 21 17 15 15 20 28 35 40 41 39 36 33
33 32 33 26 22 22 26 30 49 70 86 88 80 79 76 69 66 61 59 53 51 44 50 53 54 52 49 43 36 31 26 24 24 21 24 30 38 45 43 40 37 34 32
40 34 32 27 20 18 22 28 45 79 90 86 79 82 75 74 66 58 54 52 51 54 52 50 50 48 45 46 42 35 22 17 21 23 32 40 39 35 32 30 28 26 25
36 36 31 29 18 15 21 30 51 71 87 86 82 85 77 71 62 52 50 50 40 39 52 49 46 46 47 36 24 19 16 16 24 38 42 40 38 34 31 30 30 31 34
41 36 31 27 23 12 20 36 56 59 76 81 87 85 74 69 60 49 51 38 18 31 40 43 42 32 23 20 16 14 21 44 48 44 39 36 35 33 34 38 39 39 39
47 39 37 27 28 13 16 31 45 48 64 72 81 79 75 69 51 51 41 19 31 42 39 33 24 19 21 19 17 30 47 50 48 44 38 36 38 40 40 40 42 43 42
52 42 40 28 28 35 26 22 29 38 49 66 76 78 77 61 54 52 51 48 49 48 42 26 19 21 24 18 30 52 51 44 40 38 42 43 43 45 46 46 47 46 44
50 48 39 35 25 31 37 23 32 32 43 60 72 77 73 65 56 51 53 58 59 51 33 21 19 24 17 20 41 51 48 42 44 45 47 49 52 54 54 56 53 48 42
28 48 43 36 24 23 34 33 38 27 38 48 64 70 71 67 58 52 50 52 57 48 27 18 22 17 20 40 56 51 44 46 48 43 50 57 55 55 60 57 50 44 41
19 44 47 37 30 26 27 37 40 37 33 41 49 61 65 61 56 51 46 50 49 36 20 20 18 24 45 58 51 47 50 50 51 53 53 54 56 64 59 52 45 40 36
19 32 48 38 36 32 30 30 34 28 28 38 43 49 53 54 51 47 46 47 43 24 20 20 31 56 64 58 56 58 53 52 55 62 59 52 48 50 51 44 36 30 28

GFSSE_500_rhum_021.txt.gz
RH
18 18 20 20 15 11 10 9 7 7 7 8 9 9 8 8 10 11 11 10 12 14 19 22 18 12 10 9 9 10 9 9 12 12 12 12 13 13 14 15 13 11 14
25 25 23 20 16 14 11 9 8 7 8 8 9 9 8 9 10 11 11 12 12 16 21 20 22 20 14 10 9 8 8 8 12 13 14 15 14 14 14 14 13 11 12
24 32 26 20 17 15 12 10 9 8 10 11 11 11 10 11 12 12 14 14 14 19 20 21 18 13 13 10 10 11 11 12 12 13 13 14 13 13 13 13 12 11 11
14 22 23 19 16 14 13 11 10 11 15 18 18 15 12 12 14 17 19 19 16 9 9 15 14 11 11 11 11 12 12 12 13 14 14 14 14 14 14 13 13 13 11
18 12 17 18 16 16 14 13 12 13 18 23 22 19 19 19 17 18 18 23 25 26 22 15 8 7 10 12 13 14 14 14 14 14 14 14 14 13 12 11 10 11 12
74 25 14 17 16 18 16 14 15 17 22 29 26 26 24 22 21 21 21 22 25 27 28 29 29 28 25 19 14 10 9 8 9 11 11 11 11 10 8 7 8 9 9
35 25 24 22 22 20 18 17 18 20 32 36 36 36 32 31 33 32 32 31 29 30 31 31 32 31 32 34 34 33 33 32 31 30 30 30 31 30 29 24 16 11 11
27 26 23 23 28 25 23 21 22 28 46 44 40 41 37 40 38 35 35 35 35 35 35 35 35 34 34 34 34 34 35 36 37 38 40 40 40 39 38 36 34 32 29
28 27 22 30 27 26 27 24 25 41 60 55 43 44 39 42 36 31 31 31 31 33 34 36 35 34 33 31 30 30 30 29 26 24 24 23 24 25 28 31 30 31 30
28 26 33 36 30 30 30 26 23 29 53 69 50 45 44 40 36 33 35 36 37 38 38 39 36 35 35 39 39 34 30 29 29 29 29 30 30 31 30 28 24 21 15
30 33 40 35 33 35 32 26 23 29 44 74 63 52 54 43 36 35 36 38 40 40 38 36 34 32 31 39 34 36 36 31 27 26 26 23 22 23 25 27 30 30 30
32 34 41 39 38 38 35 31 27 24 58 79 75 61 58 54 41 37 41 44 46 45 41 38 39 39 40 39 39 33 33 34 29 28 26 23 19 15 14 13 10 11 12
30 34 38 38 40 40 38 35 32 28 30 72 76 65 58 59 56 43 48 49 52 49 42 43 44 39 33 34 34 32 40 34 28 26 25 23 16 12 10 8 9 12 13
32 30 37 40 40 39 37 36 34 31 31 42 74 66 59 61 62 62 59 57 56 51 44 47 44 29 36 42 43 42 41 38 34 30 24 17 14 15 16 12 13 15 18
38 34 34 36 38 37 35 33 34 31 36 41 61 74 70 62 61 66 69 66 63 53 49 48 38 38 43 50 51 49 46 44 35 28 24 26 24 20 19 21 24 28 34
38 39 37 35 34 33 32 31 32 30 38 48 56 78 72 70 63 63 67 67 60 58 52 50 44 44 48 50 51 48 45 44 40 36 28 23 25 22 23 36 41 41 42
44 37 39 41 37 31 27 27 28 28 33 64 64 72 77 74 74 71 70 67 60 56 53 51 52 51 53 52 50 45 45 41 28 21 18 18 19 21 30 39 38 34 32
47 43 39 38 35 34 30 24 23 25 31 75 84 82 79 77 78 76 76 66 57 52 52 50 33 51 56 51 45 42 26 22 21 17 14 20 36 45 44 40 38 34 32
44 48 49 43 34 28 30 24 25 27 31 53 80 87 82 80 84 77 72 64 56 51 52 36 20 47 43 42 33 23 22 21 18 16 33 43 47 46 43 39 35 34 35
24 45 49 45 43 34 29 28 24 38 33 54 62 77 80 83 85 74 69 64 53 52 35 16 32 41 41 36 24 20 24 23 19 32 46 48 48 46 42 40 42 42 41
14 30 50 47 44 40 32 32 16 39 42 49 48 61 75 84 84 74 70 64 54 52 49 46 48 49 43 28 22 21 23 20 22 40 45 46 45 42 43 43 40 40 43
13 17 32 49 47 40 34 31 26 30 41 40 46 54 70 77 82 77 74 64 56 53 54 56 61 58 42 26 19 20 22 30 40 51 48 43 43 46 46 46 49 53 52
13 18 20 43 52 40 36 28 32 47 46 44 42 43 58 70 78 78 75 69 62 54 52 51 53 52 41 21 19 23 23 35 44 50 48 47 48 50 51 55 58 58 58
17 15 16 26 52 48 39 36 27 39 46 34 32 37 47 60 71 73 72 69 63 56 52 50 49 50 34 21 22 21 28 41 47 46 52 54 51 51 56 62 57 60 61
22 17 18 18 36 53 47 41 39 44 48 44 36 30 38 44 53 58 62 61 56 52 49 47 46 43 23 22 25 37 49 50 47 38 42 55 54 64 60 54 63 66 64
25 22 18 20 22 49 52 45 41 39 34 41 43 40 32 38 43 48 51 49 47 46 45 44 43 28 23 21 40 52 54 50 58 62 58 60 63 58 61 65 71 57 48

GFSSE_500_rhum_024.txt.gz
RH
12 12 13 15 16 14 12 11 10 8 7 7 8 8 8 9 10 10 10 10 10 10 11 14 18 20 16 14 11 9 9 9 9 10 12 13 13 13 14 14 15 16 14
14 18 18 19 18 16 13 12 10 8 8 9 10 10 10 10 9 11 11 12 12 12 13 15 17 19 20 18 15 10 9 9 8 9 12 15 15 16 16 15 14 13 13
12 19 22 23 21 17 13 12 10 10 9 10 10 12 13 11 11 11 12 12 11 12 14 16 20 19 18 16 15 12 10 11 12 12 13 13 14 13 13 13 12 12 12
16 19 24 25 20 17 14 12 10 10 10 11 12 14 14 12 11 12 14 14 14 14 12 12 16 17 15 12 11 11 11 12 12 13 13 13 13 14 14 14 14 14 12
27 23 19 17 14 13 12 12 11 10 11 14 16 21 19 17 16 14 13 13 16 19 20 20 16 12 10 8 9 11 13 14 14 14 14 12 12 12 11 10 9 7 8
55 50 60 47 16 13 12 12 11 10 11 18 21 26 24 22 20 16 16 16 17 18 22 26 26 29 30 30 29 29 28 28 27 23 20 20 21 25 27 27 27 25 16
39 64 82 32 20 17 14 14 13 13 13 17 28 32 29 28 24 26 26 27 27 27 26 26 28 31 32 34 35 35 35 36 36 36 37 37 38 37 38 38 38 36 35
34 35 33 25 20 16 16 20 18 17 18 23 33 39 37 35 32 33 33 33 34 34 34 34 34 33 32 32 31 30 30 30 30 31 29 30 30 31 33 33 35 36 36
42 38 39 30 22 20 22 21 21 21 21 32 51 47 44 42 39 39 33 32 32 32 34 36 36 37 37 35 35 37 38 33 31 30 30 29 28 28 29 30 29 28 24
43 46 33 30 24 25 26 26 28 26 23 31 48 62 46 46 42 40 36 33 33 36 38 38 37 36 34 33 32 32 32 33 38 35 29 26 25 25 23 21 21 26 28
38 43 34 30 32 33 30 32 32 26 24 27 41 70 60 49 51 42 38 36 37 40 42 42 42 38 35 34 35 35 40 38 33 34 33 29 27 26 24 21 16 15 15
36 42 39 33 38 48 41 37 35 32 27 24 37 60 71 59 59 55 43 40 42 46 46 48 47 40 37 38 30 34 36 31 36 39 34 30 26 25 24 19 15 12 10
36 38 42 36 42 45 42 37 38 38 34 29 29 54 69 66 55 56 58 49 46 48 51 50 49 39 44 28 33 39 42 42 41 39 36 34 31 25 24 21 17 16 13
38 36 35 37 38 43 47 39 38 36 36 34 33 34 58 70 65 59 59 63 59 56 62 56 52 46 46 31 40 46 48 47 43 41 38 31 30 29 28 27 24 20 20
45 40 36 32 34 36 39 38 36 33 32 33 33 41 48 69 72 63 63 64 68 66 66 56 54 51 48 39 42 47 51 50 46 44 43 40 36 29 24 21 21 19 18
54 46 36 35 33 34 36 37 35 33 31 32 34 47 52 56 72 67 65 66 66 67 65 59 56 52 50 50 48 53 55 53 47 44 32 24 23 20 14 14 16 16 17
56 53 41 36 37 36 35 35 33 32 32 33 33 40 64 56 63 68 72 73 73 72 67 60 54 52 51 45 42 54 56 48 44 28 23 26 23 14 11 17 26 34 38
32 48 51 46 41 39 35 35 33 32 29 28 30 34 69 76 81 77 78 75 74 76 68 58 52 51 51 39 27 55 46 43 31 22 25 26 20 16 25 34 40 44 45
22 40 51 52 48 40 35 32 27 32 31 25 28 33 44 86 90 82 80 81 77 74 65 59 54 51 28 19 29 40 42 37 24 20 23 24 20 26 38 44 45 46 45
12 16 40 56 57 51 42 39 32 30 32 32 32 30 37 64 91 92 82 85 79 70 66 59 55 51 48 46 48 51 47 34 21 20 24 24 23 29 39 44 46 45 42
14 12 16 37 62 56 48 44 38 36 44 50 28 35 36 54 80 87 81 86 81 74 69 65 58 54 50 51 58 59 54 39 21 20 25 23 25 32 39 41 40 38 38
22 16 13 15 40 60 55 49 44 44 46 62 36 38 45 52 61 70 78 81 83 77 78 73 66 58 53 53 53 52 55 45 23 22 25 23 29 39 43 44 45 44 40
26 24 17 14 20 34 54 55 51 43 41 48 41 42 43 42 48 60 70 74 79 78 80 78 69 62 54 53 52 51 49 42 23 27 33 40 50 51 50 52 53 53 54
24 26 23 16 16 16 24 46 55 49 46 50 38 48 50 54 57 47 53 61 69 72 68 66 64 58 51 50 50 48 45 33 26 24 42 51 58 62 60 61 63 67 69
28 25 28 24 17 14 16 34 54 54 51 56 60 52 53 46 45 35 40 45 50 52 50 53 51 48 46 48 50 42 29 26 23 21 36 48 47 64 66 74 80 77 67
24 28 27 26 20 15 15 21 44 58 60 64 55 46 54 55 54 44 36 36 40 42 43 44 45 45 42 37 35 29 27 25 29 31 29 49 65 80 81 72 64 64 62

GFSSE_500_rhum_030.txt.gz
RH
10 5 5 5 5 6 5 6 7 7 7 7 6 5 5 4 5 6 6 8 8 8 9 13 14 15 18 19 19 16 15 14 11 9 9 9 9 10 11 12 13 13 13
14 6 5 5 6 6 7 8 8 8 8 7 6 6 6 5 5 5 6 8 10 11 11 12 13 15 17 17 17 18 17 16 14 14 12 9 9 9 10 10 11 11 12
18 11 8 7 6 7 9 10 11 10 9 8 7 7 6 6 6 7 7 8 10 11 11 12 14 14 17 18 18 17 18 17 16 14 12 12 12 11 12 12 12 12 12
24 20 18 12 8 10 12 11 10 11 10 9 8 7 7 6 6 8 9 10 10 11 13 13 12 12 12 14 14 14 15 14 13 12 12 12 13 13 14 14 14 13 12
20 22 20 19 12 11 14 13 13 11 10 9 8 7 7 7 9 10 10 10 11 13 13 14 15 15 15 15 17 18 18 18 18 15 14 14 12 12 11 11 12 14 18
17 21 23 21 20 16 10 11 10 8 8 8 8 7 7 7 10 12 14 15 16 14 14 15 16 18 21 23 22 24 26 27 28 28 30 32 33 34 33 34 34 35 37
17 19 22 27 37 23 18 15 11 7 7 8 8 7 7 8 12 17 20 20 20 20 20 21 21 22 23 24 26 31 34 33 32 31 30 30 31 31 31 32 32 33 33
20 23 20 24 23 23 23 22 18 9 7 8 9 9 10 14 18 24 28 29 29 29 30 31 32 33 33 33 34 35 35 35 34 33 34 34 32 30 29 28 27 27 29
20 21 19 53 40 20 18 20 20 16 10 10 11 11 12 16 22 30 36 37 35 34 33 33 32 33 34 36 38 36 35 34 33 31 31 32 33 35 36 31 28 27 27
24 23 21 22 19 18 21 22 20 19 15 14 15 15 15 17 21 28 39 41 40 38 35 34 36 38 40 40 39 38 37 32 29 26 26 32 34 36 36 33 32 30 27
29 26 26 22 20 19 19 21 22 21 19 20 21 21 22 20 21 28 38 44 43 42 40 37 36 40 42 42 41 40 35 34 25 25 29 37 37 35 37 37 34 30 28
33 31 26 29 25 24 24 21 20 23 23 24 24 25 25 24 22 22 35 56 52 52 46 41 39 40 42 46 48 41 39 35 31 37 34 33 38 39 40 36 36 34 32
35 36 35 29 30 31 28 26 24 23 23 26 30 29 30 28 27 27 35 58 68 61 63 58 52 48 49 47 46 46 44 39 36 34 47 47 48 45 44 39 36 33 26
17 28 36 37 30 35 34 32 28 28 25 27 34 64 33 33 30 30 30 33 51 72 69 61 61 60 60 59 58 56 48 43 45 42 40 43 48 49 47 42 31 24 27
24 20 16 28 35 37 35 35 31 28 26 26 35 81 41 35 35 34 33 32 40 52 65 68 62 59 62 62 64 58 52 50 50 49 48 43 47 50 48 41 26 26 28
12 11 15 15 18 31 43 42 38 35 29 27 31 36 36 38 36 36 37 34 37 50 57 65 64 60 63 61 62 62 61 55 51 48 49 41 42 49 46 37 27 23 30
11 9 9 12 12 13 26 44 44 42 41 32 28 31 32 33 35 33 33 36 34 50 54 62 66 73 74 72 74 73 66 58 54 48 31 22 46 45 43 39 29 22 28
13 10 7 7 10 12 17 37 45 45 41 37 40 33 34 36 36 34 30 28 31 30 56 67 76 78 77 80 80 76 67 61 55 51 45 44 51 56 57 58 58 49 34
12 13 12 10 9 10 10 16 35 46 46 45 43 36 37 40 33 37 33 27 26 28 32 68 85 85 80 84 84 74 69 66 61 56 54 55 56 59 59 58 56 53 47
15 19 20 17 15 13 12 10 14 27 44 52 47 43 45 42 37 34 39 34 31 30 29 45 74 88 88 85 87 84 75 74 72 65 60 56 53 52 52 52 52 50 45
11 16 19 17 16 18 17 14 12 14 24 46 53 49 50 49 51 53 67 65 38 32 33 40 59 78 88 84 83 84 87 83 85 79 71 63 56 52 50 51 53 49 39
12 12 12 18 17 15 18 19 17 20 21 28 48 55 55 58 52 47 49 65 63 37 41 47 55 66 72 75 75 76 78 77 69 68 67 61 53 48 48 50 45 36 31
12 12 13 12 13 14 16 24 19 15 19 22 24 42 54 64 58 54 55 52 58 51 49 48 45 55 66 56 56 58 61 64 59 54 53 52 47 43 42 37 29 30 28
14 15 14 14 14 14 13 14 15 21 24 15 16 25 36 61 70 68 60 64 68 61 53 60 61 64 57 45 42 42 42 44 43 43 43 42 33 25 26 28 30 24 23
14 14 15 15 14 16 15 14 13 18 31 19 16 16 23 43 64 70 71 62 63 66 56 65 66 67 65 54 44 38 35 34 32 26 19 17 20 27 32 29 23 31 39
15 17 17 16 16 15 15 18 16 20 23 24 17 17 18 28 46 59 76 72 70 66 53 53 54 52 41 32 28 27 24 18 13 12 15 29 35 33 24 35 43 50 54

GFSSE_500_rhum_033.txt.gz
RH
9 6 5 4 4 4 5 5 4 6 7 7 7 6 5 5 4 4 4 5 6 7 7 7 9 11 13 14 16 18 16 15 16 15 11 10 10 10 10 10 10 10 11
19 13 6 4 4 4 4 5 6 5 6 7 8 7 6 6 5 5 4 5 6 7 8 9 9 11 13 15 16 16 16 16 16 16 16 16 12 10 10 10 10 10 11
23 18 13 10 6 5 6 5 6 7 8 8 8 8 7 6 6 6 5 5 6 7 8 9 11 12 13 15 16 17 16 16 17 17 16 15 14 14 13 12 12 12 13
17 23 19 16 15 8 6 7 7 7 8 9 9 9 8 7 7 6 6 6 6 8 9 10 11 12 12 12 12 11 11 10 10 10 11 12 12 13 13 13 13 13 13
14 15 18 20 21 17 10 6 6 8 8 8 9 9 9 8 7 6 7 7 8 9 10 13 14 15 15 14 14 14 16 18 18 18 19 21 24 25 25 25 23 20 20
13 14 15 15 21 21 15 10 8 7 8 10 9 8 8 8 7 7 8 9 11 12 13 13 14 14 15 16 17 17 17 18 19 21 25 29 30 30 30 30 30 30 32
16 15 14 14 16 20 26 26 16 12 8 6 6 7 8 9 8 7 10 13 16 17 17 17 18 18 19 19 20 22 26 30 32 33 32 32 31 30 30 30 30 30 30
19 18 18 17 17 15 15 18 19 20 19 14 7 6 6 7 8 8 11 17 20 24 25 27 28 29 29 30 30 31 32 33 35 34 32 32 33 34 34 36 33 31 30
22 21 20 18 17 17 20 17 14 14 16 18 14 9 9 10 9 11 13 19 27 31 30 31 32 32 32 34 35 36 36 34 35 34 28 25 24 29 28 31 34 36 35
24 23 21 21 20 18 17 17 17 17 19 17 17 15 14 14 14 16 17 20 27 30 34 36 35 34 36 38 41 40 38 37 37 34 29 22 22 28 36 36 38 38 36
26 26 24 24 23 21 21 20 19 17 19 21 20 18 18 19 20 21 22 24 30 35 40 42 40 40 40 42 43 43 42 41 41 38 31 28 24 32 32 32 33 34 36
22 25 26 25 27 27 26 24 22 20 20 20 22 24 24 23 25 26 24 25 26 38 46 47 47 43 42 42 44 46 46 45 45 42 37 34 42 46 43 40 42 40 38
9 19 24 27 29 30 29 28 28 28 24 23 22 23 29 29 29 29 31 30 28 32 43 59 58 59 57 52 50 50 49 49 54 52 43 43 35 44 49 46 47 45 42
10 9 12 13 20 30 33 32 33 32 30 28 26 24 28 34 66 36 35 34 32 30 31 38 57 71 64 59 57 60 61 58 63 55 52 51 52 45 42 44 48 49 45
11 14 14 16 17 16 31 36 41 40 37 33 30 26 26 28 61 48 38 36 34 32 30 31 35 41 53 57 58 58 60 60 66 62 60 53 52 51 48 43 44 49 42
10 12 12 7 12 15 15 15 24 40 44 43 38 33 29 27 29 34 34 35 34 33 32 29 32 36 40 51 59 66 68 64 67 69 64 57 53 44 38 32 48 47 42
8 6 7 8 6 7 9 10 11 16 36 45 45 39 36 33 32 32 34 35 33 31 28 27 26 31 40 50 67 72 74 76 75 75 68 62 54 48 36 42 48 54 59
9 7 6 8 6 6 7 8 10 17 17 27 45 49 40 40 40 38 36 34 33 36 30 27 25 25 32 48 67 76 77 81 80 76 71 65 60 56 56 58 58 60 60
10 9 7 8 8 8 8 8 10 10 16 18 32 52 51 48 44 39 38 39 34 34 35 30 29 28 27 39 56 70 79 83 86 85 79 76 76 67 62 58 56 54 53
13 11 9 8 9 11 15 13 18 41 33 20 14 37 53 54 52 46 47 44 48 58 60 55 35 31 31 36 53 60 71 80 81 86 88 87 82 83 79 72 63 56 53
12 11 10 9 10 12 15 20 15 16 21 18 17 19 36 54 59 57 53 52 52 53 49 68 65 41 38 45 51 59 64 67 73 78 77 78 77 72 64 63 63 57 48
11 12 12 10 10 10 14 16 19 29 32 35 39 50 43 42 46 55 58 58 55 53 52 50 52 51 48 49 49 48 61 63 50 52 55 56 58 54 50 50 50 47 41
9 11 12 13 11 11 22 16 18 28 36 52 56 49 40 27 38 26 45 64 64 60 56 59 64 66 58 55 62 66 66 58 44 39 38 38 38 40 39 36 30 21 17
10 11 12 13 13 12 12 12 12 12 13 14 24 41 50 47 42 43 35 47 56 62 61 60 66 69 62 61 69 68 68 62 50 37 29 25 23 19 14 12 14 22 29
12 12 12 14 14 13 13 13 14 14 16 23 25 31 46 51 47 44 46 45 44 60 63 66 72 80 65 57 59 52 44 38 37 35 34 31 32 35 35 36 38 39 36
11 11 12 14 15 14 14 13 14 14 17 21 28 34 47 48 43 44 53 57 47 52 56 65 66 68 71 69 62 55 52 51 47 42 45 51 48 51 52 49 40 32 32

GFSSE_500_rhum_036.txt.gz
RH
13 15 6 4 3 3 4 5 5 5 4 5 6 6 6 6 5 5 4 4 4 4 5 6 6 7 7 8 9 10 12 15 16 17 16 14 12 13 12 10 9 9 10
21 23 13 8 6 4 4 4 4 5 5 5 6 6 7 6 6 6 6 5 4 4 5 6 7 8 8 9 10 12 14 15 14 14 15 16 16 15 14 12 13 12 11
22 21 20 16 12 10 5 4 5 5 6 6 7 7 7 7 7 6 6 6 5 5 6 6 8 8 9 10 12 13 14 15 15 16 15 15 14 14 14 14 14 14 13
15 14 16 19 20 15 11 6 4 5 6 7 8 9 9 8 8 7 7 7 6 7 7 8 9 10 10 11 12 12 12 11 10 9 9 10 10 10 10 11 12 12 11
13 14 14 14 18 19 18 16 11 6 6 6 7 8 10 10 10 9 8 7 7 7 8 10 11 12 12 13 12 12 13 16 20 22 20 21 20 21 22 23 28 29 30
13 13 13 12 12 14 18 20 18 12 9 7 7 8 10 10 9 9 8 8 7 8 10 11 12 13 13 14 15 16 18 18 19 19 21 26 28 29 29 28 29 30 31
14 14 14 14 13 13 12 14 20 25 20 15 13 10 7 6 8 8 8 8 8 9 12 14 15 16 16 16 17 18 21 25 29 30 31 30 29 30 30 31 32 31 30
16 15 16 17 16 15 15 14 15 16 17 17 18 18 15 8 6 6 7 7 9 12 16 20 22 25 26 26 26 28 32 34 35 33 34 34 30 25 22 25 31 33 36
17 19 19 20 19 18 17 16 16 18 16 16 16 16 17 14 10 11 10 10 12 14 20 27 30 29 31 33 33 34 38 39 37 37 37 36 34 24 18 18 30 32 34
15 19 21 21 21 20 19 18 18 18 17 18 19 20 18 16 15 15 15 16 17 21 24 31 34 36 35 35 35 38 44 43 43 41 40 38 37 30 21 24 33 37 36
14 21 29 24 23 22 22 21 19 18 18 18 18 18 21 20 19 19 20 20 21 24 32 34 41 41 40 39 38 40 47 47 46 45 44 41 41 38 34 31 36 37 37
11 22 19 23 24 24 26 25 24 23 21 18 20 21 22 22 25 25 26 26 25 25 26 33 40 48 47 44 43 43 46 47 49 50 46 48 52 47 38 39 47 46 43
8 10 13 17 22 26 28 28 29 27 26 25 23 22 23 23 25 29 30 30 31 33 31 31 34 43 52 52 55 51 52 52 54 55 58 61 59 53 52 49 43 46 48
18 10 9 11 16 21 24 26 28 30 32 32 31 30 30 27 27 28 40 45 34 34 34 33 31 30 32 36 52 58 61 58 58 62 66 67 62 59 57 55 54 48 46
11 10 11 12 14 15 15 14 18 25 33 33 35 34 36 34 30 29 30 41 38 37 37 34 32 30 29 30 33 35 51 58 60 61 60 60 63 66 61 55 50 48 46
9 9 9 10 12 17 20 23 22 15 18 23 25 33 37 38 36 33 30 30 34 35 36 33 31 30 28 28 31 33 43 54 62 68 72 74 75 74 68 60 53 30 27
8 7 6 7 9 9 10 11 12 12 12 12 14 22 44 46 44 42 37 38 38 36 36 34 35 32 28 26 26 30 40 63 71 74 76 79 80 76 69 62 57 56 57
8 6 6 9 8 12 10 7 7 10 16 11 16 15 28 48 52 48 43 43 38 36 36 34 33 33 32 29 29 28 31 50 67 75 80 84 86 83 79 76 75 66 59
8 7 6 6 12 7 19 16 7 12 10 11 12 17 26 35 53 54 50 44 41 42 42 41 49 55 56 47 33 32 32 40 54 61 72 79 81 86 87 87 84 79 76
8 8 8 6 8 22 27 29 28 23 24 20 47 50 38 18 27 47 52 53 51 49 46 48 48 47 45 62 58 39 37 43 50 56 60 62 68 77 81 80 82 80 75
10 8 8 7 6 10 32 40 41 49 50 29 23 34 25 28 23 36 41 54 56 53 52 56 50 50 47 49 54 53 48 48 48 47 54 65 54 45 44 48 50 52 51
9 10 10 7 6 6 11 28 26 22 28 33 46 54 43 54 64 54 42 40 48 57 58 62 63 62 56 55 62 67 62 57 57 60 64 63 61 51 46 41 36 33 32
11 12 12 11 8 6 7 12 30 40 36 43 50 54 68 79 75 64 63 52 46 32 42 56 58 58 59 60 60 68 61 54 54 58 60 51 40 36 32 29 28 28 28
14 13 12 12 11 8 8 8 16 39 50 47 35 29 48 62 75 64 60 62 64 51 37 33 39 47 63 65 64 67 72 68 67 55 50 48 46 44 42 40 41 40 38
13 12 12 12 12 11 10 8 9 11 19 20 32 25 29 56 74 78 76 73 70 64 50 49 41 50 65 62 62 63 66 68 68 61 58 53 52 52 54 51 46 44 43
9 10 10 10 11 12 11 10 9 10 12 14 16 18 23 36 52 61 63 71 76 64 59 64 52 57 53 49 61 48 54 60 70 66 62 63 60 62 64 61 58 54 52

GFSSE_500_rhum_039.txt.gz
RH
20 17 12 10 5 4 4 3 3 4 4 4 4 5 5 6 6 6 5 5 4 4 4 4 5 5 5 6 7 8 9 10 12 13 14 15 15 14 14 15 12 10 10
24 22 25 19 13 9 6 4 3 3 4 4 4 4 6 6 6 6 6 6 6 5 5 5 5 6 6 8 9 9 10 12 14 14 14 15 15 16 16 15 14 14 14
23 23 22 21 20 16 12 8 5 3 4 4 5 5 6 6 7 7 7 7 6 6 6 6 6 6 7 8 9 10 11 12 13 14 14 14 13 12 11 12 12 13 13
17 16 16 15 17 21 17 14 11 6 4 4 5 6 7 8 9 9 8 8 8 7 7 6 7 8 9 10 10 11 13 14 12 10 10 11 13 16 19 20 20 20 22
12 13 13 12 12 14 16 17 18 17 13 8 5 6 6 7 8 8 9 9 9 8 8 7 7 9 10 12 13 13 12 12 13 17 19 20 20 19 20 22 24 26 26
12 12 11 12 11 11 13 13 14 16 18 16 11 9 8 8 8 9 9 8 8 8 8 9 9 10 12 15 17 21 24 23 23 20 21 23 29 28 27 27 27 29 29
12 13 13 13 12 12 13 12 12 12 15 17 20 19 16 14 12 7 6 7 7 8 9 10 12 14 15 17 18 20 20 21 23 28 31 32 32 32 30 27 23 22 29
11 11 13 16 15 14 14 15 14 15 16 16 14 14 14 15 17 15 10 8 8 8 8 12 14 17 20 22 25 27 28 29 31 34 35 35 35 35 33 30 23 18 19
9 11 13 14 16 18 19 18 16 16 17 17 17 17 17 18 17 16 14 13 12 12 14 18 18 23 24 27 30 32 35 36 38 39 41 40 40 38 37 35 26 20 20
9 11 14 17 18 20 20 20 19 18 16 16 17 17 17 17 20 18 17 17 17 17 18 22 24 27 30 34 34 36 37 40 41 42 43 44 46 43 41 41 35 28 27
9 12 16 17 19 21 22 21 22 20 19 19 18 19 18 18 19 22 22 21 22 22 22 24 28 34 35 40 40 41 40 42 45 48 48 49 53 49 46 50 45 41 45
7 9 15 24 29 31 26 20 23 22 21 21 21 21 20 19 20 20 21 24 26 27 28 28 28 28 32 35 47 45 44 43 42 42 45 48 54 51 56 59 50 52 44
6 6 12 14 22 32 18 22 22 22 22 21 24 24 24 23 24 24 25 23 26 30 30 30 32 31 30 29 31 42 50 53 54 53 54 56 57 59 64 67 58 56 55
8 8 8 8 9 11 17 20 21 21 22 22 25 27 29 28 29 27 27 27 27 33 42 34 35 34 34 32 30 30 32 35 44 55 57 58 58 59 59 61 61 60 56
9 11 12 15 11 10 13 15 15 14 14 15 20 24 28 29 32 34 32 31 30 29 39 37 35 34 33 31 31 30 30 34 38 42 47 50 55 60 63 67 68 68 65
9 12 10 10 10 10 12 15 17 16 18 21 20 18 21 22 24 35 40 38 38 36 34 32 32 34 34 32 30 28 27 28 32 40 48 56 61 67 72 75 78 73 66
8 8 11 12 11 10 10 9 9 16 20 12 13 12 14 14 18 34 47 46 43 39 40 38 35 34 31 32 31 30 29 29 28 30 41 56 63 70 78 84 82 80 76
8 8 9 9 10 11 13 10 12 24 28 20 10 11 10 16 22 32 41 48 51 48 47 42 37 38 36 42 48 48 46 37 32 31 32 44 52 52 63 74 81 84 86
8 7 7 8 7 10 13 18 19 28 34 28 19 14 11 12 18 27 36 44 53 53 50 44 43 45 46 50 49 45 51 58 50 38 38 44 49 50 52 54 58 68 71
8 8 6 5 6 7 8 20 28 31 34 31 31 27 15 30 30 36 21 23 42 58 54 51 50 51 54 51 47 48 47 49 53 54 48 47 49 51 57 62 53 42 40
8 7 8 7 6 7 9 16 24 42 46 43 48 37 25 36 48 54 54 41 35 45 51 57 57 54 55 55 53 53 54 53 53 56 59 55 55 59 65 64 60 53 45
8 8 8 8 8 7 8 12 12 34 40 46 56 59 44 26 42 64 63 71 64 42 43 50 52 52 52 53 55 49 50 53 56 63 63 57 56 54 49 43 40 39 38
10 11 10 10 9 8 7 9 11 11 21 42 48 42 52 49 71 82 74 73 94 91 65 52 46 32 29 38 33 33 35 58 57 56 54 60 64 62 57 51 48 48 47
10 11 12 12 12 10 9 7 7 10 11 18 35 46 59 65 66 65 78 96 97 96 86 71 68 64 42 37 36 36 46 55 43 46 49 53 59 61 60 55 53 50 48
14 15 15 15 15 15 12 9 8 8 9 13 16 21 53 69 73 68 58 73 83 95 96 97 96 93 65 54 58 49 48 49 54 50 35 45 60 64 58 56 51 50 46
14 15 16 15 14 13 13 12 10 9 9 10 19 24 22 29 39 46 42 56 63 77 90 89 93 94 77 67 63 46 50 58 62 58 36 37 46 51 57 58 55 50 43

GFSSE_500_rhum_045.txt.gz
RH
10 15 14 11 7 4 3 3 2 2 2 2 3 3 3 3 3 5 6 6 6 6 6 6 6 5 5 5 6 6 8 10 10 10 11 12 13 13 13 13 14 14 14
18 21 19 17 15 11 10 9 7 5 4 3 3 3 3 4 4 4 5 6 7 7 7 7 7 7 7 6 7 7 8 9 10 11 12 13 14 14 14 14 12 10 10
25 27 23 20 19 18 16 13 12 12 10 9 8 6 4 3 3 4 4 4 6 7 7 8 8 8 7 7 7 8 9 10 10 11 12 13 14 14 11 10 13 16 17
22 21 20 18 17 16 15 14 14 14 14 13 13 12 9 6 4 3 4 5 5 6 7 8 8 8 8 8 8 8 9 10 11 12 12 12 11 11 15 17 16 18 21
18 18 17 15 14 13 13 12 12 12 12 12 12 13 14 13 10 7 6 5 5 6 7 8 8 8 8 8 9 10 11 12 13 13 14 14 17 17 16 17 20 23 24
13 12 11 10 9 8 8 8 8 9 9 10 10 11 11 12 14 14 12 11 11 9 6 6 6 7 8 8 8 9 11 14 15 16 16 16 17 18 21 26 27 30 28
10 11 10 9 8 8 8 8 7 7 8 8 8 9 10 11 12 12 13 13 14 14 12 10 9 7 7 8 9 11 13 17 18 19 21 22 24 28 31 32 32 34 35
10 11 11 11 10 9 8 8 9 8 9 8 9 9 9 9 12 13 13 14 14 14 14 14 14 12 12 14 14 16 20 23 26 28 29 30 33 35 37 37 37 39 38
12 12 12 12 11 10 9 10 9 9 8 9 10 10 10 10 9 10 10 10 14 16 16 15 15 16 17 18 19 21 24 29 30 32 34 34 37 40 41 42 42 43 40
11 11 12 11 11 11 12 11 11 11 11 12 12 12 12 12 11 11 11 11 11 14 19 20 19 19 20 21 22 28 28 31 35 36 37 36 39 43 43 45 48 45 46
8 10 10 10 10 11 10 11 12 14 18 21 21 18 15 14 13 13 13 13 12 12 15 16 21 24 24 25 26 26 27 29 34 40 42 41 43 44 44 46 46 46 48
8 7 7 7 8 7 8 10 14 23 30 35 31 18 15 15 16 16 16 16 16 16 17 18 21 21 24 26 28 28 28 29 29 30 32 34 40 43 43 49 56 59 57
8 9 7 6 6 6 7 8 16 27 28 31 24 12 13 15 16 16 16 16 18 19 21 22 22 23 23 26 28 28 28 29 30 28 28 27 27 30 32 32 35 39 40
14 12 12 15 13 12 10 8 13 18 19 20 12 10 10 12 12 12 13 14 14 14 18 23 24 25 25 25 28 24 25 25 24 25 26 26 26 27 27 28 31 34 37
12 15 16 14 12 17 32 29 11 11 11 10 9 9 9 10 10 11 12 11 12 12 14 18 22 28 32 31 29 27 26 25 26 25 25 27 26 26 26 27 28 32 40
8 8 9 9 7 7 22 20 8 10 13 10 8 8 8 11 12 12 11 11 8 7 9 12 19 29 33 34 32 32 30 29 27 27 28 32 35 36 37 32 30 31 38
9 7 10 9 8 8 9 11 13 13 12 10 9 8 12 15 18 13 8 8 7 9 12 11 18 26 32 35 39 37 36 36 35 36 36 38 38 36 42 44 41 36 38
10 10 8 9 8 8 7 14 23 35 38 10 8 13 18 18 30 39 23 8 8 10 10 11 14 20 26 40 45 42 40 41 38 39 43 42 39 44 46 43 43 50 46
9 11 9 8 8 9 9 11 26 27 34 33 19 15 34 27 28 37 43 23 14 10 9 16 18 13 20 36 41 44 45 44 44 45 45 47 48 45 34 30 31 45 50
6 6 8 8 9 10 10 9 12 23 31 30 25 35 33 40 38 49 66 35 20 11 10 18 26 16 19 21 30 40 44 42 41 41 39 42 42 36 26 28 28 37 46
7 5 5 8 9 10 10 10 11 10 13 18 26 28 30 30 39 54 59 55 36 28 19 28 46 42 43 38 33 30 33 41 35 36 34 30 32 23 32 35 29 25 26
8 7 6 4 8 9 9 10 10 11 11 11 16 22 30 28 35 46 65 75 67 67 51 51 58 64 58 56 59 50 39 39 41 36 27 30 28 29 34 38 37 42 31
8 8 6 6 6 8 8 8 9 10 10 11 11 14 15 13 16 37 53 71 83 88 84 59 54 68 85 81 94 86 76 60 55 54 52 51 47 49 48 41 43 44 47
7 6 6 6 6 6 8 8 7 8 10 12 14 15 13 13 13 23 31 49 67 72 87 99 74 80 94 85 79 96 97 97 96 84 89 86 77 59 53 46 46 49 48
7 6 6 6 6 6 7 8 8 9 9 11 13 14 16 15 15 18 29 36 33 54 78 83 91 91 96 87 80 78 80 88 96 94 93 97 94 92 80 57 49 52 48
9 8 8 8 8 8 8 8 8 10 12 12 14 15 16 16 21 29 40 36 35 41 45 67 76 84 97 92 88 81 83 81 79 70 74 81 88 89 95 93 87 76 60

GFSSE_500_rhum_048.txt.gz
RH
9 11 9 9 8 6 4 3 3 3 2 2 2 2 3 3 3 3 3 5 5 6 6 5 5 6 6 6 6 7 7 8 9 11 11 12 13 13 13 13 14 14 13
17 17 18 20 18 15 10 7 6 5 4 4 3 3 2 3 3 3 4 3 5 6 6 6 6 6 7 7 7 7 8 9 10 10 12 12 13 13 14 14 13 11 11
24 24 22 21 20 19 18 16 16 13 10 10 8 8 7 6 3 3 3 4 4 4 5 6 7 7 7 7 8 8 8 9 10 11 12 13 13 13 13 11 11 17 16
26 24 22 21 20 18 18 16 15 14 14 14 13 13 12 10 10 9 6 4 4 4 5 6 6 7 8 8 8 8 9 10 10 11 12 12 11 11 12 16 18 17 20
22 20 18 17 17 15 14 13 12 12 11 11 11 11 12 12 12 13 12 10 8 6 6 5 5 6 6 7 8 8 8 9 11 14 15 15 16 18 20 19 19 22 25
17 16 14 12 11 10 8 7 7 7 7 6 6 5 6 6 8 9 10 12 13 13 12 12 9 6 6 6 6 7 8 9 10 13 16 18 19 19 20 22 25 28 30
13 13 11 10 9 8 8 8 8 6 7 7 6 6 6 6 6 6 9 10 11 12 13 13 14 13 13 12 10 10 10 10 12 15 17 20 22 26 28 30 33 34 35
11 11 11 11 10 9 9 8 8 6 6 6 6 6 7 8 8 8 8 9 9 10 12 14 14 14 14 14 14 15 15 15 18 21 23 27 29 30 32 34 37 38 40
11 10 11 12 11 11 9 8 7 6 5 7 8 8 8 9 10 10 9 8 9 8 9 12 15 15 16 16 17 17 18 18 21 24 24 29 31 32 35 38 40 42 44
12 12 12 11 11 10 8 8 8 7 6 7 8 10 12 13 12 10 10 9 9 10 10 11 12 15 20 22 22 22 23 24 25 27 29 33 35 35 38 41 41 44 46
11 11 10 9 8 7 7 8 8 8 8 8 13 18 23 22 14 11 10 10 10 10 10 10 11 12 14 18 20 22 24 27 28 29 29 31 33 34 37 40 41 44 47
7 6 5 6 7 7 7 8 8 8 8 9 19 25 26 28 12 10 10 10 11 11 10 11 12 14 16 18 20 21 25 27 29 30 29 29 30 29 29 29 29 30 32
7 8 7 7 7 6 6 7 6 6 6 9 18 23 24 20 10 10 9 8 9 9 10 11 13 15 16 19 21 23 25 27 26 27 27 26 24 23 25 26 26 27 28
10 12 11 9 7 7 8 10 10 9 7 8 13 15 18 10 8 7 7 8 10 11 10 9 11 12 16 18 20 21 22 24 23 24 24 24 25 25 25 26 25 26 26
14 15 15 13 12 13 14 14 13 25 32 15 7 9 9 7 6 6 7 8 9 10 8 8 8 7 8 10 15 23 26 26 27 28 26 26 25 26 28 31 34 35 33
15 14 13 11 12 17 13 12 10 11 26 31 23 8 10 8 6 7 8 8 7 8 8 7 6 7 8 9 12 18 24 27 32 30 29 30 32 35 34 35 33 36 39
10 8 7 7 7 10 13 14 10 12 23 44 44 14 12 9 6 7 12 14 16 8 6 6 8 10 9 9 14 18 22 31 33 33 36 37 36 37 38 35 40 42 42
11 11 10 9 8 8 9 9 9 10 12 32 34 45 55 46 11 9 11 16 32 32 12 8 8 9 10 13 11 13 18 28 33 38 41 38 41 43 40 44 42 33 25
11 11 10 9 8 8 8 8 8 10 19 24 24 28 41 56 85 37 24 28 22 37 40 21 11 7 9 19 12 13 17 22 26 31 38 40 40 38 39 40 36 23 24
9 9 9 8 8 9 10 9 8 20 16 14 17 30 38 50 55 58 59 39 43 41 55 42 21 11 8 20 24 20 25 25 23 27 30 33 30 30 32 32 26 27 34
8 8 9 9 9 8 6 9 10 11 13 20 22 14 14 31 39 42 50 52 62 52 56 62 50 35 19 21 37 44 48 44 42 31 30 33 30 30 26 28 25 28 34
9 8 8 8 9 8 7 6 6 10 9 11 11 10 12 13 21 38 41 54 55 47 49 65 72 64 57 44 49 55 59 63 72 72 54 45 47 46 35 37 41 45 46
10 9 9 9 9 8 8 7 6 5 8 10 10 10 11 13 15 16 26 39 41 54 62 70 67 78 82 80 56 58 67 86 92 90 84 80 84 67 65 67 62 61 53
9 8 8 8 7 7 7 6 6 6 7 11 11 11 11 11 12 11 19 43 47 48 56 62 69 71 80 87 92 78 73 90 84 78 93 89 81 98 94 91 92 88 86
8 8 7 7 7 6 6 6 6 6 7 8 10 11 15 15 14 14 16 32 42 56 43 67 60 64 79 88 90 89 88 90 87 85 80 85 91 90 79 81 84 87 82
9 11 11 10 10 10 9 9 8 8 9 9 10 12 16 19 21 19 17 18 15 25 54 67 62 69 65 76 85 88 87 94 95 92 76 76 85 84 74 73 80 78 85

GFSSE_500_rhum_051.txt.gz
RH
8 8 8 7 6 6 5 4 3 3 3 3 2 2 2 2 2 2 2 3 3 4 5 5 5 6 6 6 6 6 6 7 7 8 10 11 12 12 13 14 14 14 13
12 12 14 13 13 14 13 10 7 5 4 4 3 4 4 3 3 2 2 3 3 3 3 4 5 6 6 6 7 7 7 8 9 10 12 12 13 13 14 14 14 12 11
17 18 20 21 21 21 19 18 17 16 15 14 12 10 9 8 7 6 4 4 3 3 4 4 4 5 6 7 7 8 8 8 8 9 9 11 12 13 12 11 11 14 18
24 26 24 22 20 20 18 18 16 15 14 14 13 13 13 12 11 12 12 11 11 8 5 4 4 4 5 5 6 7 8 8 8 9 10 11 12 12 13 14 18 20 19
27 25 22 20 18 17 16 15 13 12 12 11 11 10 9 9 8 8 8 9 10 12 12 12 10 10 7 6 5 6 6 6 7 9 10 12 14 16 18 19 19 21 24
27 22 18 16 14 12 12 10 8 6 5 5 5 5 4 4 4 4 4 4 5 6 6 10 12 13 12 12 11 10 8 7 8 8 9 11 14 16 18 19 22 26 30
22 17 15 13 10 8 6 6 5 5 6 5 4 4 3 3 4 4 4 4 4 6 6 8 11 13 13 14 14 14 13 13 13 13 14 17 19 21 24 27 31 33 36
16 13 12 10 8 7 6 6 6 5 4 4 3 3 3 3 4 4 4 4 4 5 6 6 6 8 10 11 13 14 15 16 17 18 19 22 26 29 31 32 33 36 38
12 11 10 9 8 8 7 6 6 4 4 4 5 4 4 4 5 6 8 8 6 5 6 6 6 6 7 9 12 17 19 20 20 20 23 24 28 31 32 34 35 37 40
10 9 9 9 9 8 8 7 6 5 4 4 4 5 5 8 14 17 16 9 6 6 6 5 5 6 7 8 10 14 17 20 22 22 26 27 28 30 33 34 37 39 41
11 10 10 10 9 9 7 6 5 6 5 5 4 5 7 14 20 22 22 8 7 6 6 6 6 6 7 7 9 11 14 16 17 21 24 26 27 28 29 29 29 29 28
11 10 10 10 9 7 6 5 6 6 5 5 5 5 7 14 19 20 20 6 6 6 5 6 6 7 7 8 9 11 13 15 16 20 23 25 26 27 27 25 23 23 25
8 8 6 6 5 5 5 5 5 5 5 5 5 5 6 11 13 18 13 6 6 6 6 7 8 8 7 8 8 10 11 14 16 17 21 22 22 23 22 23 23 23 23
7 6 5 6 8 8 6 6 6 6 7 9 10 12 9 8 10 11 7 6 7 7 8 8 8 7 6 5 6 7 10 11 12 16 22 21 24 23 25 22 24 25 29
6 6 6 6 7 9 11 9 9 12 14 13 13 23 34 24 9 7 8 6 6 7 8 8 9 8 6 5 5 6 7 11 14 15 21 23 28 27 26 28 32 31 30
6 6 8 10 19 18 16 17 13 14 12 11 11 15 25 34 27 11 12 7 6 7 9 10 9 9 6 6 7 6 7 10 12 14 20 28 29 30 33 34 31 33 28
7 6 8 9 11 10 9 8 13 15 12 11 9 12 15 36 49 37 25 9 7 7 11 15 20 10 5 6 8 8 10 10 12 17 21 32 30 36 36 34 38 33 34
9 10 10 10 9 8 8 8 8 7 7 8 13 10 10 18 34 34 54 73 53 13 16 18 23 41 29 10 7 8 14 12 12 16 22 27 36 38 36 40 39 32 32
9 9 10 10 10 10 9 8 10 12 13 14 11 13 12 21 26 30 33 44 66 68 43 30 26 26 35 35 14 8 15 18 14 18 22 26 27 30 37 34 29 26 27
9 10 11 11 11 11 10 9 8 8 10 17 17 13 14 14 14 14 20 31 46 54 66 64 46 44 45 60 48 21 11 17 25 29 34 33 28 29 32 36 28 26 26
10 10 11 12 12 11 10 8 8 8 7 9 8 13 17 21 21 21 17 14 15 32 43 51 56 62 63 58 63 56 33 21 32 47 53 53 58 55 41 39 37 32 27
10 11 12 11 10 9 10 9 8 9 9 8 7 8 9 10 12 12 12 14 13 14 18 38 49 60 59 52 54 68 64 57 48 56 64 70 82 89 81 61 58 58 50
10 10 10 10 9 9 9 9 9 8 8 8 8 8 9 11 12 11 11 11 11 12 13 15 23 46 49 57 70 68 73 78 84 63 65 77 84 86 96 88 88 92 83
11 11 10 10 9 9 9 8 8 8 7 7 7 8 11 13 12 13 20 21 23 21 15 16 23 63 88 76 92 88 82 78 92 96 80 79 94 91 84 95 89 97 96
9 8 8 8 8 8 7 7 7 7 7 7 6 7 8 10 13 15 16 19 19 21 34 52 37 43 71 80 89 99 96 88 89 94 100 97 96 97 97 96 95 92 92
9 9 8 8 8 10 12 12 12 11 10 10 10 10 10 11 13 15 21 22 23 26 24 23 27 44 58 82 82 90 94 91 87 94 100 95 100 98 98 97 90 89 90

GFSSE_500_rhum_054.txt.gz
RH
7 6 6 6 6 6 5 5 4 3 3 3 3 2 2 2 2 2 2 2 2 2 3 3 4 4 6 6 6 6 7 7 7 7 8 8 9 10 11 12 13 13 13
8 9 8 9 11 11 10 10 9 8 6 6 5 6 5 5 5 5 4 4 4 3 3 3 4 4 4 5 6 7 7 8 7 7 8 8 8 10 11 12 12 12 11
13 13 14 15 17 18 19 18 17 16 16 15 15 14 14 13 12 11 10 9 8 8 8 6 4 4 4 4 5 5 5 6 6 6 7 8 9 10 11 12 12 13 17
18 19 20 21 21 21 20 18 17 16 15 14 14 13 13 12 12 12 12 12 12 12 11 12 11 10 10 8 7 6 6 6 6 7 7 8 9 10 11 13 15 18 19
23 24 25 23 20 19 17 16 15 14 13 12 10 9 8 6 5 4 3 3 3 4 4 5 6 8 11 12 12 11 9 7 7 7 8 9 10 12 15 17 20 20 23
28 28 26 23 19 15 14 13 12 10 8 5 4 4 4 3 3 2 2 2 2 3 3 4 5 8 10 12 13 14 14 14 12 12 12 12 14 16 18 21 24 26 28
29 27 24 19 16 13 11 9 7 6 5 5 4 3 2 2 2 2 2 2 2 3 3 4 4 5 6 7 11 12 12 13 14 16 16 16 18 19 21 24 27 29 31
29 25 20 15 12 9 7 6 5 5 5 5 3 2 2 2 2 3 3 3 4 6 5 4 3 4 5 5 6 8 10 13 16 18 18 19 21 23 24 27 30 33 35
23 18 14 11 9 7 6 5 5 5 4 3 3 3 3 3 3 3 5 8 12 10 5 4 3 3 4 4 4 6 6 8 12 17 20 22 24 26 28 28 30 32 34
14 12 10 9 8 7 6 6 6 5 3 3 3 4 3 3 3 5 9 13 17 11 4 3 4 4 4 4 4 4 5 6 7 12 13 14 16 19 23 26 27 29 28
11 9 9 8 8 8 8 7 6 4 3 3 3 3 3 3 3 5 9 12 14 7 3 3 3 4 4 5 6 5 5 5 6 10 9 10 15 19 21 23 23 24 22
10 9 8 8 8 7 7 6 4 3 3 3 3 3 3 4 4 5 7 9 11 4 4 4 4 5 7 7 5 5 4 5 6 10 8 11 12 17 18 20 21 21 22
10 10 9 8 8 6 5 4 4 4 4 4 4 4 5 8 11 13 8 8 7 4 4 5 5 6 8 8 6 5 4 4 5 8 7 10 11 18 18 23 21 22 20
10 10 9 8 7 5 4 4 6 6 6 6 5 8 11 12 22 34 29 9 6 7 5 5 6 6 6 6 7 5 4 4 5 7 9 12 13 15 19 19 25 24 27
11 10 8 8 6 5 5 5 7 10 11 11 11 11 10 9 8 14 28 29 10 12 7 6 6 7 7 7 5 4 5 6 6 7 10 9 12 14 22 26 25 30 30
11 10 8 6 6 11 20 21 19 14 14 11 16 17 11 9 8 9 18 43 37 26 10 6 6 9 11 16 14 6 5 6 7 9 11 10 12 21 25 25 31 33 30
12 11 9 6 6 6 8 14 9 8 6 7 6 6 6 7 11 10 10 16 34 38 56 52 20 11 15 17 26 36 19 8 6 12 12 14 15 22 25 30 35 31 34
13 12 13 14 10 13 7 8 9 12 11 8 11 14 13 13 9 10 10 14 19 22 32 44 67 72 32 26 24 22 33 28 10 8 16 14 20 22 25 29 33 32 35
15 13 11 10 8 8 8 8 11 9 10 9 9 10 12 15 16 13 12 18 15 13 14 21 32 44 60 61 41 38 42 47 33 14 10 20 21 27 27 26 28 28 27
16 16 13 10 10 10 10 9 9 14 17 9 8 8 11 10 20 17 22 24 27 21 19 19 15 14 28 47 54 57 60 51 62 52 20 15 27 39 44 46 41 34 30
19 19 16 12 10 10 10 10 9 12 12 10 8 10 10 16 18 20 20 21 29 31 17 26 14 11 13 18 32 44 52 60 55 62 63 30 28 46 51 68 70 81 64
17 17 16 13 10 11 12 11 10 8 9 10 10 10 10 17 21 18 22 24 40 38 37 29 33 35 36 21 20 35 41 48 63 64 68 76 61 52 62 74 85 89 96
15 15 15 13 11 11 12 11 10 9 8 10 10 10 9 8 12 18 22 24 35 40 42 53 48 47 54 67 73 52 53 57 69 68 80 82 89 85 69 71 79 90 93
11 11 11 11 10 10 10 10 10 9 8 7 8 8 8 8 8 7 8 15 18 19 18 26 33 37 50 70 72 68 67 69 84 88 98 97 91 94 98 84 76 90 96
12 11 11 11 10 9 9 9 9 8 8 7 8 9 9 9 9 10 11 10 10 10 15 22 38 35 30 42 58 70 84 75 66 88 93 100 96 98 92 100 98 96 98
12 10 10 9 9 9 9 8 8 10 13 14 14 13 12 10 9 9 9 12 11 14 16 17 25 26 32 39 45 52 65 80 78 82 98 99 99 98 97 93 96 96 98

GFSSE_500_rhum_057.txt.gz
RH
8 9 8 4 4 5 6 6 6 5 4 3 3 3 4 4 4 4 5 4 4 4 3 3 3 3 3 4 4 5 5 6 6 6 7 7 8 8 8 9 10 11 12
7 6 5 6 9 10 11 12 12 12 11 9 8 9 11 12 12 12 11 10 10 8 7 7 7 6 4 4 4 4 5 5 6 6 7 6 7 8 9 10 11 11 11
9 9 10 10 13 16 16 16 17 16 16 15 15 15 14 14 14 13 13 13 13 13 13 12 12 12 10 10 9 8 7 7 7 6 7 7 7 8 9 11 12 12 14
13 14 15 16 17 19 19 18 17 16 15 15 14 13 12 12 11 10 8 6 4 4 3 3 4 6 7 8 9 10 10 10 8 8 9 8 8 9 10 12 13 15 15
19 19 20 20 20 21 20 18 16 15 14 13 11 9 6 4 3 3 3 2 2 2 2 2 2 3 3 4 7 9 11 12 14 13 12 13 13 12 13 14 15 17 17
23 24 24 24 23 21 18 15 14 12 11 8 5 4 4 3 2 2 2 2 2 2 2 2 3 3 3 4 5 6 11 12 12 14 13 14 15 16 16 17 19 20 22
27 28 27 25 23 20 16 13 11 9 6 5 4 4 3 2 2 2 2 2 2 3 4 5 5 4 3 3 4 4 5 7 8 10 14 16 17 17 20 22 23 26 28
30 28 27 24 22 18 13 9 6 5 5 6 5 4 2 2 2 2 2 3 4 7 10 9 5 3 2 3 3 3 4 6 7 9 10 12 14 17 20 23 27 29 31
33 30 27 23 19 14 9 6 5 5 5 5 4 3 2 2 2 2 2 3 6 8 12 9 3 2 3 3 3 3 4 4 4 5 6 7 8 11 13 18 21 24 24
38 30 24 18 12 9 7 6 6 5 5 4 3 3 3 3 3 3 3 3 5 8 10 6 3 2 2 3 4 4 5 5 5 4 5 6 6 8 10 13 14 18 18
32 25 17 12 9 7 6 6 6 6 5 4 2 2 3 3 3 3 3 4 5 6 8 4 3 3 3 4 4 5 4 4 5 4 5 5 6 7 7 10 12 14 15
30 20 14 10 8 7 7 7 6 6 4 3 3 3 3 4 4 6 11 18 18 7 6 4 3 3 4 4 4 4 4 4 4 4 4 5 6 6 7 8 10 14 16
21 14 11 9 8 7 7 7 6 5 4 4 5 5 5 6 7 9 14 27 34 20 6 6 5 4 4 5 4 4 4 4 4 4 4 5 6 9 9 9 9 14 16
15 12 9 9 8 8 8 7 6 4 4 6 8 8 9 8 9 9 8 8 12 25 19 9 8 5 4 4 4 6 7 4 4 5 5 6 7 9 10 12 13 15 22
14 11 9 9 8 8 8 7 5 8 9 10 10 12 11 13 15 10 8 8 9 18 38 28 16 8 6 5 8 10 16 18 8 5 5 6 9 8 7 10 16 18 21
13 11 10 10 9 8 7 6 8 14 11 9 8 6 6 6 5 5 6 9 9 9 12 37 37 48 44 18 9 12 15 18 31 25 8 6 10 11 8 10 16 19 22
14 13 12 10 10 9 8 7 6 5 7 12 11 8 6 7 10 11 10 10 9 10 12 17 20 24 33 50 68 38 21 24 22 28 33 11 7 14 12 13 16 18 22
14 13 15 13 13 16 19 13 10 10 15 20 19 9 10 16 12 9 12 11 13 15 14 16 15 14 15 18 27 37 50 59 42 36 42 41 13 10 17 18 23 23 21
15 14 16 15 14 15 14 27 19 8 13 10 7 15 15 8 8 12 17 12 14 14 12 14 17 20 16 16 17 15 16 34 54 58 56 51 59 25 13 22 28 34 33
18 18 15 15 17 14 11 11 21 10 12 17 19 12 8 8 8 17 24 32 20 23 22 22 25 28 30 21 18 14 11 15 32 45 52 62 65 66 41 18 31 42 49
19 19 21 19 15 15 14 12 10 10 8 17 8 8 16 14 18 25 35 31 29 30 29 31 31 36 42 55 50 35 30 32 29 23 34 57 71 68 72 60 29 42 58
27 23 21 20 18 17 16 14 11 9 10 11 10 9 8 7 15 22 32 21 26 32 41 50 53 59 68 74 80 83 69 63 70 80 68 61 60 70 76 84 85 60 58
27 22 20 19 18 17 15 13 11 9 8 10 10 10 10 9 7 6 9 16 21 29 40 42 45 55 71 77 77 78 66 73 80 88 84 76 78 87 83 87 92 100 92
25 20 19 18 16 14 13 12 10 9 8 8 9 9 9 9 8 7 8 11 12 24 26 25 34 41 42 42 52 56 75 70 62 68 88 97 90 87 99 97 98 96 96
32 26 18 15 12 11 11 11 10 10 9 8 8 8 8 9 11 12 12 12 10 10 9 11 23 26 32 30 33 43 50 53 68 79 90 98 99 96 87 96 97 98 98
14 13 12 12 11 11 11 10 9 9 9 9 8 8 14 16 14 10 10 10 12 12 11 13 16 18 23 25 27 37 56 73 79 66 71 82 96 96 97 89 97 98 94

GFSSE_500_rhum_060.txt.gz
RH
9 10 14 12 4 4 5 6 6 7 7 7 6 5 6 7 8 10 11 11 10 10 10 8 7 7 6 5 6 5 5 5 6 6 6 7 7 7 8 9 9 10 11
7 7 8 6 6 7 10 10 12 14 15 14 14 15 14 14 14 14 14 13 13 13 12 12 12 12 12 11 10 10 8 8 8 9 8 7 7 7 8 8 9 10 10
6 6 6 8 10 12 14 16 18 18 17 16 16 15 14 14 13 12 12 12 10 8 7 6 5 4 5 6 7 8 9 10 9 9 8 9 9 8 9 9 10 12 13
8 10 11 13 15 17 18 18 18 17 16 15 14 13 12 10 8 5 3 3 2 2 2 2 2 2 3 3 4 6 8 9 9 11 12 12 13 13 13 12 13 14 15
14 14 16 17 19 20 21 20 18 16 15 14 12 9 6 4 3 3 2 2 2 2 2 2 2 2 2 3 4 5 6 8 9 10 11 12 12 13 14 14 15 15 17
18 19 20 21 21 22 22 20 17 14 12 10 7 5 4 4 3 2 2 2 2 2 2 3 4 6 5 4 3 3 4 5 5 6 6 7 9 13 14 12 14 18 20
18 21 24 25 24 23 22 18 15 12 9 6 4 4 4 3 2 2 2 2 2 2 4 6 9 7 5 3 2 2 2 3 3 4 5 6 7 8 9 10 12 14 15
21 23 26 27 26 24 22 18 13 9 7 6 5 4 3 2 2 2 2 2 2 3 4 6 8 7 3 2 3 2 3 3 3 4 4 4 5 5 7 9 12 15 16
24 27 28 29 27 24 20 14 9 6 5 5 5 4 3 2 2 2 2 2 2 3 4 6 7 4 2 2 3 3 4 4 4 4 3 3 4 5 6 7 10 12 12
30 29 30 29 27 22 15 10 7 5 5 4 4 4 3 2 2 3 3 3 3 4 4 5 6 3 3 3 3 4 5 4 3 3 3 3 4 4 6 7 8 9 10
36 34 32 32 26 18 12 8 6 6 5 5 4 3 3 3 4 3 3 5 9 16 17 10 5 4 3 3 3 4 4 4 3 4 3 3 3 4 5 6 7 9 10
42 39 35 30 22 14 10 7 6 6 6 5 4 4 5 4 3 4 6 9 12 18 21 19 10 6 5 4 3 3 3 4 4 4 3 3 4 4 5 7 7 9 10
42 35 32 30 20 12 9 7 7 7 6 5 4 4 5 6 8 8 9 9 8 8 9 12 17 14 8 6 4 3 4 4 7 6 3 4 4 5 6 8 7 6 9
47 32 28 22 16 11 8 7 7 7 6 5 5 5 7 10 10 11 13 11 7 6 7 8 16 25 21 12 6 4 4 6 11 19 16 6 5 5 7 9 7 6 8
46 32 21 17 12 10 8 8 8 8 6 9 17 15 13 9 6 6 4 4 4 5 6 7 7 9 27 34 38 36 20 9 10 15 24 32 22 9 7 11 10 9 12
31 27 21 16 12 10 10 10 8 7 7 8 7 6 7 8 6 5 5 7 9 8 9 8 8 9 12 17 18 23 36 51 48 30 28 26 28 30 11 10 13 11 14
27 25 22 16 13 12 11 10 9 8 8 9 7 12 15 11 9 8 14 16 11 10 10 10 12 13 14 16 15 13 14 15 20 35 56 62 38 34 39 15 14 16 16
25 22 18 15 12 12 11 11 14 18 14 10 8 12 18 22 8 13 10 7 9 14 11 13 15 14 13 14 18 21 18 16 17 17 25 51 69 62 51 52 31 15 20
23 21 18 16 14 12 12 13 29 20 18 22 11 11 8 7 14 11 9 9 21 27 30 31 27 26 28 27 28 30 33 30 24 21 21 17 40 65 71 65 66 50 18
24 22 19 20 17 14 13 13 13 12 13 15 11 10 31 40 20 10 19 44 43 42 46 40 35 32 34 38 41 41 44 50 54 52 44 43 53 42 46 73 79 78 66
26 23 20 20 21 20 17 14 13 13 13 12 14 28 47 40 38 47 44 40 36 33 35 41 46 28 30 44 70 67 66 75 77 86 86 81 75 84 84 55 67 84 82
28 25 22 20 18 17 18 18 18 17 15 13 12 18 9 7 7 7 7 8 9 9 8 11 23 28 44 56 61 58 53 58 76 87 87 89 81 85 88 92 80 76 85
29 26 24 22 24 22 19 17 16 15 15 14 12 10 9 9 9 8 8 8 8 7 8 9 17 18 21 29 37 55 57 54 49 56 66 74 84 87 91 97 99 96 92
42 39 38 37 34 26 22 17 15 14 13 12 10 9 9 9 9 8 8 8 7 12 14 13 10 10 10 12 22 28 31 35 37 37 47 62 63 64 73 94 96 96 96
48 48 51 48 45 43 30 18 16 14 11 10 10 9 9 8 8 8 8 10 16 17 12 11 10 8 9 10 10 11 12 28 27 38 38 43 64 81 85 85 95 98 98
59 53 50 59 57 43 37 29 19 12 10 12 11 10 10 9 9 9 14 16 12 11 12 8 8 8 8 8 7 7 9 10 22 37 46 57 85 91 94 100 97 98 99

GFSSE_500_rhum_063.txt.gz
RH
15 13 12 19 14 6 4 4 5 6 8 8 9 10 10 12 13 13 13 13 13 13 13 12 12 12 12 11 10 10 9 8 8 8 9 9 8 7 7 7 8 8 10
12 10 10 12 9 5 7 8 10 14 16 17 16 15 15 14 13 13 12 12 11 11 10 9 6 5 4 4 5 5 5 6 8 9 9 8 8 9 9 10 10 11 12
10 8 8 8 6 7 11 15 17 18 17 16 15 15 14 13 12 10 8 4 3 2 2 2 2 2 2 2 3 3 4 5 7 7 8 10 11 12 13 13 14 13 13
8 7 8 8 10 12 15 18 19 18 17 16 15 14 12 9 6 4 3 3 2 2 2 2 2 2 2 3 3 4 4 4 5 6 8 9 10 10 10 12 13 13 13
8 8 10 13 15 19 21 21 19 18 16 14 13 10 7 4 4 3 2 2 2 2 2 2 2 3 5 5 4 3 3 3 3 4 4 5 6 6 7 10 11 10 12
12 14 15 17 20 22 23 22 19 17 15 12 9 6 4 4 3 2 2 2 2 2 2 2 4 6 7 6 4 2 2 2 2 2 3 3 4 5 6 7 9 10 12
13 16 18 20 23 25 24 22 19 16 14 10 6 4 4 4 3 2 2 2 2 2 2 2 3 4 6 4 2 2 2 2 3 3 3 4 4 4 5 5 6 6 9
13 15 19 23 26 26 25 23 20 15 11 8 5 4 4 3 2 2 2 2 2 2 2 2 3 4 5 3 2 2 2 3 3 4 4 3 3 3 3 4 4 6 6
16 17 20 24 27 27 25 23 19 14 9 6 5 6 4 3 2 2 2 2 2 2 2 3 4 4 4 3 2 2 2 3 4 4 3 3 3 3 3 4 4 5 7
19 21 23 26 28 28 26 22 16 10 6 5 5 5 4 3 2 2 2 2 3 3 6 10 12 8 5 4 3 3 3 3 4 3 3 3 3 3 3 4 5 6 7
22 25 29 29 30 31 27 21 14 8 6 5 5 5 4 4 4 3 3 3 4 5 8 10 11 11 10 7 5 4 3 3 3 3 4 4 3 3 3 4 5 7 8
45 40 38 35 34 33 26 20 12 8 6 6 6 5 4 4 4 4 6 7 7 7 7 7 8 9 12 14 12 8 5 3 4 4 6 8 5 4 4 4 5 8 8
45 47 44 41 37 32 28 19 12 7 6 6 6 5 4 4 4 6 7 8 10 10 7 5 6 6 8 11 15 18 19 12 5 4 6 12 18 14 6 5 6 9 9
56 52 47 41 34 32 26 18 10 8 7 7 7 6 9 10 10 10 8 6 5 4 4 4 5 5 6 6 7 13 18 24 33 36 23 12 12 20 29 21 7 9 12
72 65 59 44 33 28 20 14 10 8 8 8 7 7 10 8 5 5 6 6 5 6 10 11 9 8 9 9 8 9 11 13 15 20 28 41 40 27 24 26 28 11 14
69 67 62 54 36 24 18 14 10 8 8 8 7 7 6 6 8 12 10 9 9 13 13 8 7 8 8 10 12 13 14 15 16 16 18 24 30 41 50 47 34 34 19
54 54 49 42 31 22 18 14 11 10 9 9 8 13 12 10 13 17 21 10 10 12 8 7 11 11 12 14 16 17 17 16 17 19 21 20 20 23 33 59 62 50 49
44 42 38 32 26 24 18 15 12 11 11 12 15 14 10 8 8 16 9 8 15 11 8 9 20 25 31 34 32 28 27 27 29 30 32 36 39 38 36 26 32 65 63
36 33 32 29 24 20 18 14 13 12 13 15 21 18 22 18 9 9 13 23 18 9 17 40 46 43 44 44 38 34 34 36 40 41 57 72 74 75 73 63 56 45 52
35 30 28 27 24 21 18 15 14 13 13 13 12 13 14 14 16 30 38 31 29 50 59 46 42 28 26 33 39 30 31 37 46 58 60 69 87 97 98 98 97 92 86
37 29 27 26 24 22 20 16 15 15 14 14 14 20 18 17 22 42 37 34 38 39 10 9 9 8 8 7 9 24 35 41 30 45 63 81 77 94 99 100 98 95 94
48 40 30 26 24 22 20 19 17 15 15 14 14 13 13 13 16 14 13 10 8 8 9 9 9 8 7 10 14 15 14 19 31 40 45 51 52 48 56 66 67 70 88
54 44 37 32 27 24 21 20 20 19 18 18 16 15 14 14 12 10 10 10 9 9 8 9 8 9 14 16 12 11 11 9 8 11 11 12 28 38 51 63 70 83 93
62 54 45 39 33 28 24 21 21 23 23 20 18 18 17 15 13 10 10 11 9 9 8 8 12 16 14 11 11 10 9 8 7 6 7 8 10 33 49 61 64 66 82
70 67 62 60 44 34 30 32 33 32 32 36 22 16 14 12 10 10 10 10 10 10 8 10 18 12 12 10 9 8 9 7 7 9 8 7 9 10 42 41 54 74 82
66 72 68 60 52 45 44 47 49 48 45 36 26 22 13 11 11 12 12 13 11 9 11 18 13 14 10 8 9 9 7 8 11 8 8 7 6 7 8 13 17 26 52

GFSSE_500_rhum_066.txt.gz
RH
24 27 18 15 19 13 7 4 4 4 5 6 8 10 12 14 14 13 13 12 11 11 10 8 6 4 4 4 4 4 5 5 6 6 8 8 8 8 9 10 11 11 12
17 17 13 12 16 11 5 6 6 9 12 15 15 15 14 14 13 12 11 9 5 3 2 2 2 2 2 2 2 3 3 4 5 5 7 7 6 8 10 12 13 13 14
15 13 10 9 9 8 8 11 15 16 17 16 15 14 13 12 10 8 5 3 3 2 2 2 2 2 2 2 3 4 4 3 3 3 4 4 4 5 6 8 9 12 13
13 11 8 8 8 7 11 16 18 19 17 16 14 13 11 9 6 4 3 2 2 2 2 2 2 2 3 4 5 5 3 2 2 2 2 3 3 3 4 5 6 9 10
11 8 8 9 11 14 16 18 20 19 17 15 13 10 8 5 4 3 2 2 2 2 2 2 2 3 4 5 5 4 2 2 2 2 2 2 3 3 3 4 4 5 6
10 8 10 13 16 19 22 22 21 20 17 15 12 8 5 4 3 3 2 2 2 2 2 2 2 3 3 4 4 3 2 2 2 2 2 2 3 3 3 3 3 4 4
10 12 13 17 19 22 24 24 22 20 17 14 10 6 4 4 4 2 2 2 2 2 2 2 2 2 3 3 3 2 2 2 2 2 3 3 3 3 3 3 3 3 4
10 11 15 19 22 25 26 25 23 20 17 13 8 5 4 4 4 2 2 2 2 2 2 2 2 3 4 4 3 3 2 2 2 3 3 3 3 3 3 2 2 3 4
10 12 14 18 23 26 27 25 23 20 16 10 6 6 5 4 4 3 2 2 2 2 2 3 4 6 8 7 5 4 4 3 3 3 3 3 3 3 3 3 3 3 4
11 13 16 19 23 26 27 26 24 20 14 8 6 5 5 5 4 3 3 3 2 2 3 4 5 7 8 8 8 7 7 6 4 3 2 3 4 4 3 3 3 4 4
14 16 19 21 24 29 29 28 26 20 12 7 5 5 5 5 4 4 4 4 4 5 6 6 7 6 6 6 8 11 12 12 9 7 4 3 4 6 7 5 4 4 4
17 19 21 24 29 31 31 30 26 20 13 7 6 6 5 5 4 4 4 5 5 6 8 8 5 4 4 5 6 6 7 9 13 18 21 19 11 7 8 15 16 8 5
19 23 35 41 38 36 34 33 28 22 14 8 6 6 6 6 6 7 7 8 8 7 6 4 3 4 5 6 6 6 7 7 8 10 12 15 20 32 30 21 16 22 23
30 34 50 46 43 41 38 33 30 21 13 8 7 7 7 6 9 8 6 4 5 6 6 6 8 12 10 7 7 8 9 10 12 14 14 15 15 18 25 30 39 36 28
41 44 44 44 45 45 41 33 29 21 13 9 8 8 7 7 7 6 6 9 11 11 10 9 12 9 6 7 8 8 10 14 15 15 15 17 19 20 20 19 21 27 46
49 50 55 60 59 58 44 33 26 20 14 10 8 8 8 7 8 9 9 12 14 19 8 10 14 9 8 14 18 21 23 23 25 26 27 26 28 28 29 30 26 22 22
47 57 64 66 63 61 57 42 28 22 18 12 10 9 8 9 12 10 8 8 12 10 7 15 12 7 10 19 28 35 37 37 36 32 31 33 38 47 55 64 58 59 50
50 60 65 67 65 57 48 39 29 25 20 14 11 10 10 12 16 16 16 10 9 10 24 24 12 27 50 55 46 37 31 32 37 40 26 33 45 60 67 69 79 92 93
59 58 56 53 51 48 42 38 33 30 18 14 13 12 12 19 14 17 17 12 14 26 32 31 39 51 50 28 25 12 9 8 8 16 32 43 46 44 61 78 90 94 96
56 52 48 45 42 40 36 31 27 25 24 31 14 13 13 12 12 12 13 15 17 34 44 37 48 37 11 8 8 8 8 8 10 17 18 22 33 49 62 68 74 79 80
59 55 48 42 36 34 32 28 25 21 18 16 15 14 14 13 13 14 16 14 18 18 15 12 9 8 9 9 8 8 8 13 15 13 12 13 12 17 21 29 39 36 58
69 66 58 49 39 32 29 27 25 22 20 18 17 16 16 16 14 15 14 14 13 12 10 10 10 9 8 9 8 8 13 15 12 12 11 9 9 8 8 8 9 10 19
70 67 64 56 51 44 39 34 30 25 22 20 18 17 16 16 16 16 15 15 14 12 10 10 11 10 10 9 9 14 17 14 13 10 9 9 8 8 10 9 9 10 13
76 69 67 62 56 50 45 39 35 31 27 24 21 20 20 20 20 21 21 16 14 12 10 11 11 10 10 9 15 15 12 12 9 7 6 7 8 11 10 10 8 7 9
82 76 70 66 62 56 51 44 39 34 29 25 23 25 26 26 30 33 18 15 14 12 11 12 14 11 9 14 14 12 12 10 9 7 6 6 10 13 13 11 10 12 13
72 72 72 72 68 61 55 51 50 47 39 33 32 34 36 41 44 32 23 20 12 12 13 16 14 11 11 17 13 12 10 9 7 6 7 9 11 13 14 13 15 16 15

GFSSE_500_rhum_069.txt.gz
RH
37 34 30 22 20 18 12 6 4 4 5 6 7 8 10 12 12 12 11 9 8 6 4 2 2 2 2 2 2 3 3 3 4 3 3 3 4 5 6 7 7 8 10
31 24 26 16 14 17 10 5 5 7 10 12 14 13 13 13 12 9 7 5 3 2 2 2 1 1 1 2 3 4 4 4 3 2 2 2 2 3 3 4 4 5 7
26 19 16 12 10 12 8 6 8 12 15 16 15 14 13 10 8 6 4 2 2 1 1 1 2 1 2 2 4 4 4 2 2 2 2 2 2 2 3 3 3 4 5
25 17 12 9 9 8 8 10 13 16 17 16 14 12 10 8 5 3 3 2 2 1 1 2 2 2 2 3 4 4 3 2 2 2 2 2 2 2 2 2 3 3 3
22 15 10 8 8 8 10 15 18 19 18 16 14 11 8 5 3 3 3 2 2 2 2 2 2 2 2 2 3 3 2 2 2 2 2 2 2 2 2 2 2 2 3
22 13 8 8 10 12 16 18 20 21 19 16 14 9 6 4 3 3 2 2 2 2 2 2 2 2 2 2 3 3 2 2 2 2 2 2 2 2 2 2 2 2 2
19 13 10 10 14 18 22 23 22 21 20 17 13 8 5 4 4 3 2 2 2 2 2 2 2 2 2 4 4 4 3 3 3 2 2 2 2 2 2 3 3 2 2
18 11 14 16 18 21 25 26 24 22 20 17 13 8 5 4 4 4 3 2 2 2 2 2 2 2 3 4 5 5 5 5 4 4 3 3 2 2 2 3 3 2 3
14 10 12 17 20 24 27 27 26 23 20 15 10 7 5 4 4 4 3 3 3 2 2 2 3 5 5 6 5 5 6 6 7 7 6 5 4 3 3 4 4 3 3
12 10 12 15 18 22 26 28 26 24 20 13 8 6 5 5 4 4 4 4 4 4 4 5 5 6 6 5 4 3 4 5 6 7 9 11 12 12 11 8 7 8 8
12 12 12 15 18 22 26 28 28 26 22 14 8 6 5 5 5 4 4 4 4 4 5 6 7 6 3 3 3 4 5 5 6 7 8 8 10 12 16 20 22 19 16
12 13 13 17 19 22 29 30 29 28 23 16 10 6 6 6 6 5 5 6 6 6 6 5 4 3 3 5 7 7 7 7 8 8 10 10 11 12 12 13 15 18 23
10 13 15 18 21 26 31 34 33 32 27 20 13 8 6 6 6 6 8 7 5 4 5 6 6 7 10 13 10 6 6 7 7 10 12 13 14 14 15 16 17 17 17
17 15 17 20 24 37 40 40 38 34 30 24 16 10 8 7 7 7 7 6 6 8 10 11 12 9 10 11 8 7 10 13 16 17 20 23 24 24 24 26 26 26 25
29 20 18 21 35 47 43 44 41 36 31 26 19 13 9 8 7 7 7 8 9 9 11 14 13 7 12 11 7 7 16 22 29 33 38 37 34 30 29 31 35 37 39
43 30 30 32 41 46 45 47 48 40 31 26 20 15 12 10 9 8 9 11 10 9 9 11 8 11 17 13 11 27 39 40 36 32 28 29 38 33 24 30 38 46 51
64 38 36 38 44 50 54 58 56 44 36 28 22 18 15 13 11 9 11 13 14 15 10 9 10 22 24 19 36 42 33 22 21 10 8 7 8 14 25 32 36 29 35
70 48 37 44 48 55 66 64 60 56 46 35 27 23 19 15 12 11 15 16 14 13 12 12 18 30 34 34 34 32 11 8 8 8 8 8 10 18 18 18 21 25 30
69 63 49 46 58 64 65 64 60 51 43 36 32 28 23 17 14 13 13 12 12 12 15 16 16 23 20 20 31 12 9 8 8 8 8 12 15 14 13 12 10 13 10
77 70 56 44 46 56 59 56 51 47 42 38 35 32 26 27 16 15 13 13 13 13 15 13 13 14 16 12 10 9 9 9 9 8 12 15 13 12 11 9 9 8 7
82 74 65 62 60 58 55 51 47 44 40 34 31 28 25 22 19 16 19 18 15 14 14 14 14 12 12 10 11 12 10 10 10 11 15 12 12 12 9 9 7 8 10
70 66 62 60 56 54 52 48 44 40 37 34 30 27 24 22 21 18 16 16 15 16 16 16 15 14 12 11 11 14 16 12 11 14 13 13 12 10 9 8 8 11 12
68 69 74 68 62 56 51 46 41 37 34 31 29 27 24 22 20 19 18 18 17 18 18 19 19 14 12 11 11 16 16 12 13 14 13 12 10 10 9 8 9 13 13
83 79 77 82 77 70 66 60 50 41 36 31 27 27 25 24 25 25 23 22 22 22 26 30 17 14 11 11 14 13 11 12 15 15 13 10 8 10 10 10 15 15 14
92 90 88 86 82 77 69 64 61 56 52 48 43 40 36 34 33 30 27 28 29 34 43 32 20 14 12 16 19 15 12 15 13 13 11 8 7 8 9 11 12 13 13
96 95 90 88 82 77 71 68 65 61 59 56 52 47 42 38 37 36 34 36 45 51 41 33 17 14 20 20 20 13 14 14 13 12 10 8 8 8 10 13 12 12 14

GFSSE_500_rhum_072.txt.gz
RH
48 42 34 29 23 20 15 11 6 4 5 5 6 7 9 10 10 10 9 7 4 2 2 2 1 1 1 2 2 3 4 4 2 2 2 1 2 2 2 2 2 3 3
53 38 32 28 19 19 15 8 5 4 6 8 10 12 12 12 10 8 5 3 2 2 1 1 1 2 1 2 3 4 4 3 2 2 2 2 2 2 2 2 2 2 2
46 33 23 25 14 14 15 7 6 7 11 14 14 13 12 10 7 5 3 2 2 1 1 1 2 2 2 2 3 4 3 2 2 2 2 2 2 2 2 2 2 2 2
40 30 18 16 12 9 12 8 8 11 15 16 14 13 11 8 5 3 3 2 2 2 1 1 2 2 2 2 2 2 2 2 2 2 2 2 2 2 2 2 2 2 2
39 27 17 12 9 8 8 9 10 14 17 17 15 12 9 5 4 3 3 2 2 2 1 2 2 2 2 2 2 2 3 2 2 2 2 2 2 2 1 2 2 2 2
40 24 15 10 8 7 8 12 13 18 19 18 15 12 7 5 4 3 3 2 2 2 2 2 2 2 2 2 3 4 4 4 4 4 4 3 3 2 2 2 2 2 3
44 27 15 10 9 10 13 17 19 20 20 18 16 11 6 5 4 4 3 2 2 2 2 2 2 2 2 3 4 5 5 4 4 5 5 5 5 4 4 3 3 3 3
47 30 15 11 12 15 19 22 23 22 20 19 16 11 6 4 4 4 4 3 3 2 2 2 3 3 4 5 5 5 4 3 4 4 5 5 6 7 7 8 8 7 6
50 34 13 14 16 19 23 26 26 25 22 19 15 10 7 5 4 4 4 4 4 3 3 4 4 4 6 6 4 3 3 3 4 4 5 6 6 6 6 8 10 12 14
51 35 14 12 17 20 24 28 28 26 23 19 14 9 7 6 5 5 4 4 4 4 4 5 6 6 5 3 3 4 5 6 5 5 6 6 6 8 9 10 11 12 14
44 34 14 13 15 18 23 28 29 28 26 20 13 9 6 6 5 5 5 5 6 6 6 6 5 5 5 6 7 9 9 6 5 6 6 7 10 11 12 13 15 16 17
49 31 15 12 14 16 20 26 30 31 29 22 17 12 8 6 6 6 6 7 7 6 5 5 6 7 8 9 9 10 9 6 7 9 12 15 17 18 20 22 23 22 22
38 23 12 12 13 16 20 25 32 33 32 27 22 18 12 8 6 6 6 7 7 6 6 8 9 10 12 8 9 11 9 7 9 17 21 26 27 29 32 30 28 24 24
25 18 12 12 13 17 20 27 33 36 35 32 28 22 17 12 9 8 7 7 7 8 9 10 10 11 13 7 11 13 10 7 15 30 33 32 31 27 26 31 30 20 25
36 12 12 13 14 18 21 28 37 40 40 35 31 26 20 15 11 10 9 8 8 11 11 11 11 9 8 10 16 19 14 26 42 37 21 17 10 8 8 8 9 19 24
46 20 13 14 15 18 22 35 39 40 42 40 33 28 23 19 18 15 11 10 10 12 14 15 14 10 10 14 23 26 29 34 35 19 8 8 8 8 8 8 14 18 17
54 62 32 23 17 18 23 39 44 42 45 49 38 30 28 25 24 19 14 13 14 15 16 14 14 12 14 18 21 30 26 32 30 10 9 8 8 8 9 14 16 13 13
51 58 56 44 28 25 29 35 42 50 58 53 50 46 38 31 27 23 19 17 16 15 15 13 13 14 17 16 15 16 16 14 10 11 9 10 10 10 12 15 13 13 11
66 71 80 78 47 37 39 45 51 62 64 61 57 47 40 34 31 27 22 20 20 16 14 14 14 14 14 13 14 13 12 10 10 13 11 13 12 11 14 14 13 12 9
62 87 95 95 92 53 39 44 48 58 64 64 56 48 44 38 35 30 30 24 20 18 18 18 16 15 15 15 15 15 14 12 11 12 14 13 12 13 14 13 12 9 8
52 73 87 81 83 77 62 45 36 46 56 60 51 46 43 38 33 28 24 22 22 19 18 18 16 16 16 17 19 21 15 12 12 13 15 13 13 14 14 13 10 9 7
48 71 86 87 80 73 70 54 45 51 55 52 49 46 42 38 35 32 28 24 22 20 19 18 18 19 19 21 28 27 15 13 12 13 14 13 14 14 13 11 9 7 7
60 64 71 79 82 80 72 65 61 58 54 51 49 46 42 40 37 35 31 27 24 22 20 20 21 22 25 30 38 26 17 13 14 18 13 14 13 14 13 10 7 7 8
89 86 76 77 80 77 70 66 61 58 55 53 51 48 45 42 40 37 33 29 28 27 26 25 27 29 34 47 29 21 15 17 23 25 19 14 14 14 12 9 8 9 10
95 94 93 88 86 85 77 77 78 70 63 66 64 58 50 45 41 38 37 36 34 32 32 33 34 38 52 52 43 21 20 34 34 28 21 14 14 13 11 9 9 10 13
93 92 95 95 89 91 90 86 84 83 83 77 74 68 61 54 52 52 52 48 43 42 42 42 44 53 55 34 14 30 38 40 35 21 14 13 14 13 11 11 12 13 15

GFSSE_500_rhum_075.txt.gz
RH
58 54 46 36 28 23 18 13 9 4 5 5 5 7 6 8 9 10 8 6 3 2 2 1 1 1 1 2 2 3 4 3 2 2 2 2 2 2 2 2 2 2 2
64 51 42 35 27 21 19 12 8 5 5 8 9 10 11 10 10 8 5 3 2 2 1 1 1 2 2 2 2 2 3 2 2 2 2 2 2 2 2 2 2 2 2
65 60 42 32 27 16 17 12 8 6 7 10 13 13 12 10 8 5 3 2 2 2 1 1 1 2 2 2 2 2 2 2 2 2 2 2 2 2 2 1 1 2 2
53 51 39 24 24 14 12 13 8 7 9 13 14 13 11 9 6 4 3 3 2 2 1 1 2 2 2 2 2 2 3 3 3 3 3 3 3 3 2 2 2 2 2
45 40 36 20 16 12 8 10 9 9 11 14 15 14 11 7 4 3 3 2 2 2 1 2 1 2 2 2 2 3 4 4 4 4 4 4 4 4 4 4 3 3 3
47 39 31 20 13 10 7 8 10 11 15 15 15 14 10 6 4 4 3 3 2 2 2 2 2 2 2 2 4 5 5 4 4 3 3 4 4 5 5 5 5 6 6
54 42 30 18 11 8 8 9 14 14 17 17 16 14 11 6 4 4 4 3 3 2 2 2 2 3 4 4 5 5 4 3 3 3 4 4 5 6 5 5 6 8 9
59 48 33 20 11 8 8 13 18 21 20 19 17 15 10 6 4 4 4 4 4 3 3 3 4 4 4 5 5 4 2 3 4 5 5 5 6 6 8 8 9 10 11
67 57 44 23 13 9 12 16 21 24 23 21 18 15 10 6 5 5 4 4 4 4 4 4 4 5 5 5 4 4 6 7 7 6 5 5 6 12 14 14 12 13 15
66 64 54 32 13 12 15 20 25 27 25 22 19 15 11 8 6 5 5 5 5 5 6 6 5 5 5 6 7 8 9 9 9 7 7 8 15 20 19 18 20 21 22
66 55 60 40 15 13 17 22 28 29 28 25 21 16 12 10 8 6 6 6 6 7 6 5 6 7 8 10 11 9 8 10 10 8 7 16 21 22 22 24 24 23 25
73 58 57 49 26 12 16 22 28 30 31 28 23 17 13 10 8 7 6 6 7 7 6 7 8 10 10 11 12 7 9 12 12 8 10 26 30 22 17 15 11 11 12
84 64 49 47 23 14 12 18 24 30 32 31 27 22 17 13 9 8 7 7 7 7 7 9 10 10 11 11 10 8 12 17 16 16 29 33 23 11 10 8 8 8 8
84 71 40 41 25 17 13 16 21 28 32 33 32 29 25 19 13 11 9 8 8 8 9 12 12 13 13 11 10 10 16 23 24 28 32 28 17 12 9 8 9 10 9
83 64 43 33 26 14 13 14 19 28 34 39 36 33 30 25 20 16 14 12 10 9 11 13 15 17 16 13 12 14 17 22 27 25 25 28 13 12 10 12 14 11 12
63 56 47 37 27 13 12 14 19 24 36 41 41 39 34 30 25 22 20 17 13 12 13 14 17 16 15 14 14 17 17 17 17 16 15 11 12 14 13 17 17 13 14
43 39 49 52 24 17 13 14 17 21 35 41 43 46 44 34 29 28 24 21 18 16 15 15 15 15 14 14 15 16 15 14 14 13 12 10 11 15 18 18 18 13 14
31 32 43 65 47 16 14 15 16 19 32 42 41 44 48 43 44 36 30 27 23 19 17 17 16 14 14 15 15 16 16 16 16 17 17 12 11 14 18 19 18 14 14
38 38 41 72 78 50 30 21 18 19 31 38 40 46 51 54 49 42 36 34 32 24 26 19 17 16 20 19 17 16 17 18 20 26 20 13 11 14 20 22 16 15 15
46 42 46 53 58 64 61 40 28 26 28 35 42 48 55 58 53 46 42 37 33 28 24 22 20 20 18 18 18 18 19 20 27 33 20 14 13 16 22 20 19 15 14
40 37 37 53 66 76 86 74 45 40 38 39 41 54 61 62 56 48 43 39 35 31 29 26 25 25 22 20 23 23 24 26 34 38 23 17 14 20 23 22 21 15 14
42 38 36 40 62 86 96 95 96 90 71 52 47 48 57 60 53 48 44 41 39 37 33 36 30 28 26 24 27 31 31 36 46 36 19 16 19 26 26 25 19 14 13
53 48 43 38 52 72 84 85 81 83 81 84 68 58 60 55 51 49 46 43 40 38 36 33 30 34 35 30 30 35 40 48 52 43 20 24 32 32 26 20 14 14 12
88 64 54 46 39 49 77 86 96 94 87 75 65 60 55 52 51 50 49 47 46 46 40 37 39 38 38 35 42 41 48 53 47 31 28 37 35 29 19 14 14 14 12
97 93 80 71 62 64 62 60 74 73 74 73 66 60 60 59 56 58 61 59 55 50 42 43 45 42 39 49 49 50 50 32 20 23 26 31 30 25 15 14 15 14 13
93 98 95 86 84 83 85 84 82 78 71 71 69 64 62 62 63 68 74 65 58 49 51 53 52 46 51 59 56 56 36 19 17 28 29 31 30 19 14 16 17 15 14

GFSSE_500_rhum_078.txt.gz
RH
59 60 55 49 40 31 23 18 12 7 5 6 5 5 7 8 9 10 8 6 3 2 2 1 1 1 1 2 2 2 2 2 2 2 2 2 2 2 2 2 2 2 2
60 57 56 49 38 28 23 17 12 7 4 6 7 8 10 11 10 8 6 4 2 2 1 1 1 1 2 2 2 2 2 2 2 2 3 3 3 4 3 3 3 2 2
67 63 54 43 37 28 20 17 11 8 5 6 8 11 11 11 9 6 4 3 2 2 1 1 2 2 2 2 2 2 2 3 4 4 4 4 4 4 4 5 4 4 4
68 65 63 50 34 29 16 16 11 8 7 7 9 10 11 10 8 5 3 3 2 2 1 1 2 2 2 2 2 2 4 4 4 4 4 4 4 4 5 5 5 5 6
65 56 55 45 27 24 18 11 13 9 9 10 11 12 12 10 7 4 3 3 2 2 2 2 2 2 2 2 3 4 5 4 4 2 3 4 4 5 6 7 7 6 8
68 52 42 39 28 17 16 9 9 10 11 12 12 13 12 10 6 4 3 3 2 2 2 2 2 2 3 4 4 5 5 3 3 4 5 5 5 6 6 13 14 12 12
72 57 42 34 29 16 12 8 7 10 13 14 15 14 13 10 6 4 4 3 3 3 3 3 3 4 4 4 5 5 3 4 6 7 7 7 6 7 15 20 17 15 15
73 63 49 35 24 16 10 8 7 10 15 16 16 15 14 10 6 4 4 4 4 4 4 4 4 5 5 5 5 5 8 9 9 9 9 8 8 13 20 20 20 20 21
73 64 55 43 28 17 9 8 9 13 19 18 19 17 14 9 6 5 5 5 4 4 5 6 5 5 5 6 8 10 9 8 9 11 12 9 12 20 22 21 16 18 17
75 68 61 50 39 21 10 9 13 17 21 22 20 18 15 10 7 6 5 5 5 6 7 6 5 6 8 10 12 12 10 10 13 16 17 15 17 24 24 16 14 11 8
80 72 66 62 50 33 13 10 16 22 25 24 22 20 17 13 10 7 6 6 6 7 7 7 8 11 13 12 12 12 11 14 17 20 21 22 25 26 22 18 13 12 11
87 77 72 64 62 44 20 11 17 23 29 28 26 24 19 15 12 9 7 7 7 7 7 8 10 13 15 16 15 13 12 14 18 22 24 24 24 25 21 18 16 13 19
95 81 82 69 59 56 32 13 16 23 29 30 30 28 23 18 15 11 9 8 7 7 7 8 12 15 17 17 16 14 15 17 19 19 20 17 16 18 18 14 16 16 22
82 87 86 75 58 56 39 23 13 19 26 31 32 31 29 25 23 19 14 11 9 8 8 9 12 14 17 18 18 16 17 19 20 18 16 17 15 12 10 13 16 19 23
86 92 87 71 64 52 46 24 15 14 20 28 32 34 34 32 29 26 21 17 16 14 12 12 13 15 18 18 17 16 17 18 18 17 18 17 19 22 14 11 14 19 22
96 96 96 90 69 51 41 32 21 14 17 24 32 36 38 37 34 31 25 22 21 21 18 17 15 16 17 17 17 17 19 18 20 19 19 19 26 33 23 13 12 18 23
95 91 92 86 56 50 36 24 15 14 15 20 27 35 40 40 41 39 30 29 28 26 24 20 19 18 19 19 19 22 22 21 21 21 20 22 29 36 23 14 12 18 23
93 88 76 67 52 49 48 42 16 13 14 18 21 31 39 40 44 49 43 45 38 32 30 29 24 27 22 21 23 25 23 23 22 22 24 26 33 43 23 16 16 20 25
58 63 69 58 49 40 53 50 23 16 15 15 17 21 35 40 44 52 56 52 46 42 38 35 30 27 27 28 30 27 26 25 28 28 31 34 44 45 31 28 20 25 28
73 66 60 54 46 34 52 68 45 18 16 15 16 18 30 37 49 61 64 62 55 48 43 38 34 34 33 34 34 31 32 33 30 34 33 42 48 48 39 34 25 30 29
77 68 66 59 73 45 42 67 66 54 48 38 28 26 32 42 46 59 70 66 59 50 46 43 43 41 41 40 39 39 39 38 39 40 41 49 49 46 34 28 30 28 28
69 50 70 85 57 62 56 52 61 77 79 67 54 42 46 50 56 56 50 61 56 52 49 46 45 43 45 41 41 46 48 41 42 47 50 50 44 30 31 30 26 26 28
67 56 53 50 67 54 64 46 57 66 80 94 95 96 86 80 77 63 58 57 52 49 51 50 51 54 53 46 45 52 52 49 52 55 54 42 24 28 25 28 22 28 30
95 81 59 50 46 55 50 44 50 68 82 92 89 89 93 85 76 70 61 54 50 51 54 60 62 64 59 50 54 56 57 54 58 57 51 38 22 18 22 26 31 30 20
92 96 96 82 60 55 48 46 42 50 75 97 96 93 89 83 78 70 63 59 56 56 59 62 67 67 61 58 61 60 58 61 62 53 46 25 19 21 26 33 33 20 15
96 95 96 97 96 85 58 53 54 49 51 64 72 71 79 71 65 64 63 60 57 57 61 68 71 70 63 65 67 64 63 64 58 44 34 23 24 30 34 34 18 16 16

GFSSE_500_rhum_081.txt.gz
RH
60 60 58 55 49 41 30 21 15 10 6 6 5 5 5 6 9 9 8 6 4 2 2 1 1 1 2 2 2 2 2 2 3 3 4 4 4 5 5 5 6 5 4
54 55 58 55 51 41 31 22 16 10 6 5 6 6 7 9 9 8 6 4 3 2 1 1 1 2 2 2 2 2 2 3 4 4 4 4 4 4 5 5 6 6 6
56 54 54 54 52 40 28 23 16 10 6 6 7 8 10 10 10 8 5 3 3 2 2 1 2 2 2 2 2 2 3 4 5 4 4 4 4 6 6 7 9 10 10
59 59 56 54 46 38 29 20 18 10 7 7 9 10 11 11 9 7 4 3 2 2 2 1 1 2 2 2 3 4 5 5 4 3 4 5 6 6 7 11 19 17 14
61 62 64 61 55 37 30 18 15 12 9 9 10 11 12 11 8 6 4 3 2 2 2 2 2 2 2 3 4 5 5 4 3 5 7 8 8 8 9 18 20 19 18
65 65 61 58 52 34 24 20 10 12 11 10 10 11 13 11 8 6 4 3 3 2 2 2 3 3 4 4 5 5 4 6 8 8 9 11 12 12 15 20 21 20 19
73 70 60 46 42 34 18 17 11 9 11 12 12 12 12 12 9 6 4 4 3 3 3 3 4 4 4 5 5 6 9 9 9 11 14 14 15 17 21 23 23 17 16
80 72 64 48 36 31 20 12 9 8 9 13 14 14 14 13 8 5 4 4 4 4 4 4 5 5 5 7 8 11 11 9 12 16 19 20 21 21 23 24 22 18 17
84 77 71 60 40 30 22 15 9 8 9 13 16 16 16 13 8 5 5 5 5 4 5 6 6 6 7 10 12 13 12 13 18 23 25 26 26 26 26 24 22 22 18
83 78 70 62 50 36 25 14 9 8 11 14 18 19 18 14 9 7 6 5 6 6 7 7 6 9 13 14 14 14 14 16 21 24 27 28 26 25 22 21 20 17 18
84 78 72 63 54 46 32 18 10 8 12 19 20 20 19 16 11 9 7 6 6 6 7 7 8 12 15 18 18 18 18 20 22 27 27 28 26 24 22 18 14 14 17
91 84 74 67 62 54 45 30 13 9 14 22 23 23 22 19 16 13 10 8 7 7 8 8 10 15 19 21 21 20 20 21 24 27 28 27 27 26 27 28 18 12 16
96 92 83 77 70 62 53 43 26 11 15 21 26 26 25 23 19 16 14 11 10 9 9 10 10 15 18 21 22 22 21 22 24 25 28 27 29 25 27 34 33 20 13
96 94 92 83 76 67 57 50 41 24 14 21 26 29 29 28 24 21 18 13 12 10 12 12 12 13 17 20 20 20 20 23 26 26 29 30 30 28 29 36 36 20 14
96 79 85 95 86 80 64 57 50 35 16 16 24 28 30 32 31 30 27 22 18 16 16 15 15 14 15 17 20 20 21 23 26 27 29 33 34 32 32 36 43 27 17
98 90 83 80 83 83 78 65 53 44 26 14 17 24 29 32 34 35 34 30 25 22 22 22 21 20 19 19 22 22 23 27 31 31 30 33 34 37 38 42 44 35 28
96 97 93 96 81 86 83 70 48 43 35 25 16 18 25 31 36 39 40 40 33 30 32 30 30 29 28 28 28 25 28 30 33 34 36 37 34 36 40 45 44 41 39
94 96 96 98 99 96 91 64 50 36 27 19 18 17 21 26 34 37 39 42 45 46 47 42 40 39 36 33 32 33 34 34 36 37 39 39 40 42 43 49 46 44 37
95 95 96 96 96 92 96 71 66 48 38 23 15 15 18 21 28 37 41 44 56 60 60 53 48 44 41 39 40 40 41 39 39 42 43 42 44 46 49 48 45 38 30
91 96 91 95 96 93 85 80 64 60 61 29 20 16 17 19 21 34 43 49 64 68 67 64 54 49 46 46 45 44 45 44 46 48 47 46 47 50 49 44 39 32 29
96 98 96 91 87 90 86 81 51 59 73 52 31 28 26 27 25 35 44 53 56 65 60 59 56 51 49 47 46 46 51 50 49 50 51 49 53 52 50 42 35 25 23
94 90 95 95 93 96 86 93 81 65 69 76 66 69 66 57 47 41 51 50 49 44 41 47 52 49 46 48 44 46 48 50 51 54 56 55 56 54 49 40 27 20 27
90 99 81 97 95 96 97 93 95 88 63 66 86 98 96 87 96 89 73 67 56 58 57 53 50 44 44 55 49 47 44 50 54 57 58 58 58 54 44 35 25 26 32
95 95 98 88 90 93 85 68 97 95 97 86 77 90 93 94 93 90 85 75 70 66 69 60 53 49 49 54 53 46 48 49 52 56 62 60 54 48 42 29 29 34 35
75 82 92 95 96 98 96 80 72 92 93 80 57 71 86 95 95 94 86 81 76 74 68 61 54 49 49 51 49 59 61 59 61 55 54 64 50 46 40 34 37 35 35
80 84 78 89 96 98 98 92 69 68 57 50 42 40 51 73 90 93 90 79 70 59 52 49 48 45 48 55 62 68 67 69 70 64 57 52 52 44 40 40 36 35 34

GFSSE_500_rhum_084.txt.gz
RH
52 55 59 53 50 46 41 27 19 12 7 7 6 5 5 5 6 7 8 6 4 2 2 1 1 1 2 2 2 2 2 3 4 4 4 4 5 6 6 8 10 14 14
53 52 54 52 50 49 41 29 21 13 7 6 6 6 6 8 10 9 7 5 3 2 2 1 1 2 2 2 2 2 4 5 5 4 4 4 6 7 8 10 17 19 18
52 52 53 54 52 51 43 30 22 14 9 5 6 8 10 10 10 8 6 4 3 2 2 1 1 2 2 2 2 3 4 5 5 3 5 6 7 10 11 13 17 19 19
59 53 50 51 52 51 44 30 21 16 10 7 7 8 10 11 10 8 5 4 3 2 2 1 1 2 2 2 3 5 5 5 4 6 8 10 12 14 15 18 20 22 21
64 57 53 53 52 49 41 30 19 17 10 8 8 9 11 11 9 7 4 3 3 2 2 2 2 2 3 4 4 5 4 5 8 9 11 13 16 19 21 22 24 24 22
64 61 56 57 55 54 42 32 18 15 13 10 10 11 12 11 10 7 5 4 3 2 2 2 3 3 4 4 5 5 8 10 10 12 17 20 22 23 24 24 25 25 23
68 68 65 61 60 57 42 24 20 10 12 12 12 12 13 12 11 8 5 4 3 3 3 3 4 4 5 5 6 10 11 10 12 19 22 22 25 26 26 26 24 23 24
74 76 72 61 55 51 40 20 16 11 9 11 12 14 14 13 12 8 5 4 4 4 4 4 5 5 6 8 12 13 13 12 18 24 25 27 28 28 28 25 23 21 18
75 76 75 67 49 39 35 27 14 11 9 10 12 14 14 14 12 8 5 4 5 4 4 6 6 6 8 11 13 14 14 17 23 26 28 30 31 30 30 29 26 21 16
86 77 74 69 54 40 32 21 16 10 9 10 13 16 17 16 13 8 6 5 5 6 7 7 6 8 13 16 17 19 20 21 25 29 31 31 32 32 31 32 33 31 19
91 76 74 73 66 52 38 27 20 10 9 11 14 19 20 18 14 9 7 6 6 6 7 7 8 10 16 20 22 22 22 25 28 30 32 33 33 35 34 32 33 37 34
90 84 80 76 67 60 47 34 22 16 11 10 14 20 22 20 18 13 10 8 7 7 7 8 9 12 19 22 23 24 25 25 28 30 33 35 37 39 38 38 35 38 39
94 91 93 82 72 63 54 45 33 22 12 11 14 20 24 24 22 19 16 13 9 9 9 10 11 11 15 19 22 24 24 26 27 32 34 36 39 42 41 40 38 39 41
96 96 96 98 82 71 63 56 49 40 20 13 15 19 24 27 27 24 21 19 15 13 11 11 12 13 14 16 19 23 25 25 28 33 35 37 40 42 42 41 42 42 42
96 94 93 96 99 82 72 65 59 52 41 25 15 19 25 27 29 30 28 27 24 20 16 15 16 16 17 18 20 22 24 25 32 36 37 40 42 41 41 41 42 44 46
96 96 95 96 97 93 84 72 64 58 49 40 22 15 20 26 30 33 34 33 32 30 27 23 24 26 26 25 24 26 28 28 34 38 40 41 43 43 42 42 44 45 45
90 93 96 96 96 89 81 78 73 61 54 48 38 20 14 19 26 32 36 38 40 41 36 31 35 35 34 37 37 33 31 33 36 39 42 45 47 46 45 46 47 47 45
96 95 96 97 96 96 88 80 80 69 62 51 48 40 23 15 19 27 35 40 44 47 50 46 51 49 46 44 41 38 39 42 43 44 44 46 48 48 49 48 51 51 46
95 95 91 97 95 97 96 96 94 84 68 55 53 48 25 19 17 22 31 39 46 47 55 60 64 64 61 52 48 46 46 45 44 46 47 48 48 50 51 51 51 54 46
85 90 90 95 96 96 97 96 98 97 68 59 51 47 31 22 17 20 23 30 47 52 55 67 71 71 66 59 52 50 48 47 46 46 47 46 48 51 52 51 51 52 44
51 81 96 93 94 96 96 96 96 96 92 72 59 62 52 27 22 21 20 22 30 38 45 50 54 56 54 53 53 48 45 44 48 46 46 49 49 51 52 49 51 47 42
30 36 76 92 94 94 96 96 94 93 95 92 99 93 94 87 60 43 32 32 36 38 40 41 43 42 41 44 42 44 44 51 49 49 50 50 50 53 54 54 54 47 41
31 31 31 81 91 94 94 96 95 95 95 89 82 90 95 96 94 92 84 79 74 51 39 48 45 50 60 64 55 48 45 48 57 64 57 51 54 56 57 55 52 47 38
34 32 54 87 85 95 87 84 93 89 92 96 96 91 96 98 97 94 96 95 87 80 74 67 52 50 66 69 63 55 45 41 43 45 58 57 57 60 58 55 51 45 39
38 57 81 92 85 91 98 96 82 97 86 84 93 95 96 92 87 78 78 77 75 80 81 78 76 73 69 67 57 48 43 40 42 41 52 72 67 61 55 52 49 43 43
62 44 40 73 75 81 75 92 95 96 87 91 96 96 93 92 90 75 61 55 59 72 77 75 69 58 47 40 40 52 55 52 55 60 60 64 65 60 56 52 50 45 43

GFSSE_500_rhum_087.txt.gz
RH
40 42 46 55 50 45 42 38 27 16 10 7 7 6 5 5 5 6 8 7 5 3 2 1 1 1 2 2 2 2 3 4 5 5 4 5 7 8 10 12 14 16 17
43 39 46 52 53 47 44 41 29 17 10 6 6 5 5 6 7 8 8 6 4 3 2 1 1 1 2 2 2 2 4 5 5 4 5 7 9 12 14 15 17 19 21
45 50 46 46 50 48 48 42 31 19 11 7 5 6 6 8 9 8 7 6 4 3 2 1 1 1 2 2 2 3 5 5 4 5 8 11 13 16 19 21 21 23 24
45 44 51 44 48 47 50 43 33 20 13 8 6 5 7 8 9 8 7 5 3 2 2 2 1 1 2 2 3 5 5 4 6 9 11 14 17 20 21 22 22 23 25
53 48 50 49 47 45 47 45 33 22 16 10 8 7 8 9 10 9 7 5 4 2 2 2 2 2 3 4 4 4 5 8 10 12 16 20 21 22 22 22 24 24 24
54 51 50 50 50 48 46 44 32 21 17 11 10 9 10 11 10 9 7 5 4 3 2 2 2 3 4 4 5 6 10 10 12 17 21 22 23 23 24 26 26 25 23
56 53 53 56 55 52 50 43 33 21 15 13 12 12 12 12 11 10 8 5 4 3 3 3 3 4 5 5 7 10 11 12 15 21 24 24 25 27 29 29 28 25 22
64 61 62 64 62 59 58 47 31 22 11 12 13 13 13 13 12 11 8 5 4 4 4 4 4 5 6 8 12 14 14 15 19 25 26 26 28 30 31 31 32 32 30
69 69 72 72 67 62 58 45 26 16 14 10 11 13 14 15 14 12 8 6 4 4 4 4 6 6 7 10 13 15 16 18 22 26 27 30 31 32 34 33 32 32 33
84 83 83 76 62 55 50 40 27 16 12 11 11 14 16 17 16 12 9 7 5 5 5 6 6 7 10 14 18 20 22 24 27 28 30 32 33 35 38 38 38 36 34
99 89 87 80 69 57 41 31 23 15 11 11 12 13 16 18 17 15 10 7 6 6 6 7 7 8 11 16 22 24 25 26 28 31 33 34 34 37 41 41 40 39 38
91 99 93 80 68 55 40 28 19 14 12 12 14 17 18 21 21 17 11 8 7 6 6 7 8 8 12 18 23 24 25 28 28 32 35 36 36 39 41 41 42 40 40
98 96 95 90 75 63 47 34 26 17 13 12 14 18 19 22 24 21 17 12 10 8 8 8 8 9 10 13 17 22 25 26 28 32 37 38 38 40 41 42 41 41 42
96 97 94 93 96 71 59 48 37 23 18 16 15 15 19 24 26 25 24 20 18 15 12 12 11 11 12 13 15 18 22 25 29 32 36 40 40 43 44 44 42 42 44
96 96 96 96 90 87 76 67 54 45 34 22 16 15 16 21 26 28 29 27 25 24 22 20 17 17 19 19 20 23 25 27 29 31 38 40 42 44 46 46 43 44 46
97 95 96 97 96 91 95 90 79 68 58 46 34 24 16 16 21 28 31 31 31 32 32 29 26 24 25 28 29 31 32 32 31 35 39 41 42 43 46 47 46 45 48
96 96 97 97 96 95 91 89 89 89 77 63 49 38 27 16 16 21 28 32 35 37 38 38 36 32 35 38 38 39 39 37 38 41 44 44 42 41 45 47 48 48 47
83 89 95 96 95 96 96 95 82 82 81 72 62 52 43 29 17 16 21 30 36 40 42 46 51 48 47 51 49 49 47 45 45 46 46 44 45 47 45 46 50 51 50
96 89 94 95 97 96 96 96 97 92 84 78 84 58 53 47 38 21 18 24 32 40 46 48 48 54 54 59 62 61 55 51 49 48 46 44 42 42 44 46 49 50 51
93 96 92 90 96 95 96 95 96 97 96 94 82 78 56 52 51 31 22 20 24 34 44 50 51 49 55 60 66 64 60 56 52 48 45 39 36 41 53 50 50 52 53
94 94 95 95 94 96 95 95 95 97 96 96 87 76 65 51 48 43 25 20 21 24 26 33 42 42 43 42 47 48 49 46 48 48 45 43 42 49 59 48 47 52 58
56 71 78 86 84 95 94 93 96 96 96 96 97 96 96 96 77 56 40 25 22 24 24 28 28 29 30 32 37 40 47 57 53 49 50 49 55 49 45 49 50 53 57
36 50 75 64 56 83 78 90 93 91 96 95 96 97 96 96 97 96 96 92 73 56 48 45 49 39 42 51 45 42 48 63 65 64 60 52 47 47 50 53 59 59 59
42 40 35 42 65 64 74 65 96 90 91 93 93 81 86 92 96 96 96 96 97 96 93 91 90 88 82 81 78 63 47 52 63 60 53 46 45 45 51 57 64 65 60
42 43 30 34 61 72 72 59 87 95 93 90 96 97 91 94 95 96 96 94 95 94 95 94 94 88 81 79 76 77 73 66 57 40 36 54 54 52 57 62 70 65 60
46 43 36 37 39 50 75 90 96 96 96 96 76 87 88 92 97 97 96 97 94 95 94 94 92 88 55 54 55 53 48 38 40 43 44 50 62 67 72 74 71 65 60

GFSSE_500_rhum_090.txt.gz
RH
39 36 35 39 42 45 41 39 35 26 13 8 8 6 6 5 6 6 7 7 6 4 3 2 1 1 2 2 2 2 3 5 6 5 5 7 9 12 14 16 17 17 18
35 32 37 41 42 47 42 40 37 27 14 8 7 6 5 5 6 7 8 7 6 4 3 2 1 1 2 2 2 2 4 5 6 5 6 10 12 14 17 18 17 18 21
39 36 42 47 50 49 44 43 41 30 17 9 6 7 6 6 8 8 8 7 6 4 3 2 1 1 2 2 2 3 5 5 5 7 10 12 14 17 18 18 18 20 23
39 38 39 45 53 55 44 42 42 33 21 12 6 6 6 6 7 8 8 7 6 4 3 2 2 1 2 2 3 4 4 5 7 10 13 16 18 18 18 18 21 24 24
45 43 44 46 51 57 49 41 41 37 25 16 9 8 7 8 8 9 8 6 5 4 3 2 2 2 2 3 4 4 5 8 11 14 17 19 19 19 20 22 25 26 25
52 49 45 46 49 52 54 46 44 39 26 18 12 9 9 10 9 9 8 7 6 4 3 2 2 3 3 4 5 6 9 11 13 17 20 21 21 21 23 26 27 27 27
53 54 51 49 50 51 52 48 46 38 26 21 14 11 11 11 11 10 9 8 7 4 3 3 3 4 4 5 6 9 12 13 16 20 23 22 23 25 27 28 29 29 28
59 58 56 57 52 52 54 51 45 37 26 18 16 14 12 12 12 11 10 9 7 5 4 4 4 4 5 6 10 13 14 15 18 23 24 25 27 29 31 32 32 32 31
66 66 64 66 62 60 59 54 49 39 27 16 13 13 13 13 13 12 12 9 6 5 4 4 4 6 6 8 11 14 16 18 22 25 27 28 29 31 33 34 35 36 35
75 78 78 74 73 70 65 60 51 40 21 18 12 12 12 14 14 14 13 10 7 6 5 5 6 6 7 11 14 18 21 23 25 28 29 30 31 33 34 34 37 37 36
82 84 92 84 82 75 68 62 53 40 22 16 13 12 14 15 17 17 15 11 7 6 5 6 7 7 8 11 16 21 25 26 29 29 31 33 34 35 36 37 38 39 38
100 100 96 93 84 73 60 58 50 36 24 15 13 13 16 18 20 19 17 14 9 7 6 6 7 7 8 12 17 22 25 27 29 30 32 35 37 37 38 40 41 41 38
96 93 94 88 83 68 50 43 30 27 20 15 14 14 17 21 24 23 21 16 12 8 7 7 7 8 8 10 13 16 21 26 29 29 30 35 40 40 40 42 43 42 40
91 97 100 95 88 79 62 39 30 21 18 16 15 16 18 22 23 25 25 21 17 13 11 9 9 9 9 10 11 13 16 21 25 27 31 34 40 40 39 41 41 43 41
95 93 98 97 96 89 66 54 32 25 23 18 16 16 16 20 24 27 29 28 26 22 20 19 17 15 14 16 18 21 23 26 28 30 32 35 40 41 40 38 37 40 40
96 96 96 97 97 93 95 57 63 42 26 21 20 19 17 17 19 23 27 30 32 32 30 30 29 27 25 24 25 28 30 32 35 37 37 40 42 43 42 39 36 36 41
94 98 97 96 96 96 93 93 78 55 42 39 45 32 27 23 20 18 20 26 32 34 36 36 37 36 34 31 32 34 37 40 41 43 43 44 45 44 43 39 35 38 45
98 97 96 97 97 96 96 96 91 73 72 69 57 54 48 42 36 29 19 17 23 30 36 41 42 42 44 45 42 43 48 51 51 50 49 49 48 46 44 38 37 41 57
97 95 97 96 96 94 96 96 96 96 95 94 76 66 63 62 54 40 30 22 17 23 30 39 44 46 44 42 46 48 56 61 61 59 56 52 50 48 43 38 40 45 53
97 94 94 94 96 95 97 97 96 96 97 89 93 92 82 73 64 52 46 36 26 20 23 31 38 43 45 46 46 49 56 60 60 58 54 48 45 42 41 45 47 56 45
95 96 97 96 94 92 94 96 96 96 96 97 97 95 92 90 76 64 54 51 43 31 22 22 29 34 37 40 38 35 40 41 46 46 46 46 46 52 55 53 54 45 47
84 98 97 96 92 93 94 95 96 97 95 94 96 97 96 96 94 92 92 65 51 40 24 22 23 27 25 22 23 22 32 42 40 45 54 57 60 60 60 57 48 42 46
93 94 96 89 94 97 92 93 96 97 95 95 86 97 95 96 96 94 96 96 96 93 74 42 28 29 28 27 26 34 45 70 69 72 69 64 62 64 56 45 42 47 48
44 62 93 86 91 88 76 95 96 95 95 94 87 87 96 96 95 95 96 97 96 97 97 96 93 94 75 74 85 86 79 74 75 71 74 72 68 53 40 42 50 58 59
43 42 44 61 73 84 85 94 94 96 96 97 98 96 96 96 97 97 97 97 97 97 97 97 96 98 97 95 81 76 71 70 60 49 46 47 39 40 48 55 64 68 75
48 43 40 41 43 44 69 77 58 85 90 95 96 97 96 97 97 96 97 96 97 97 97 97 96 96 95 89 76 65 62 60 56 55 48 46 58 61 62 62 66 74 75

GFSSE_500_rhum_093.txt.gz
RH
46 42 35 29 30 41 41 37 36 31 21 10 8 7 6 6 5 5 5 6 6 6 4 3 2 1 1 2 2 2 3 5 6 6 6 8 11 13 14 14 12 14 16
44 36 34 29 31 41 44 40 36 33 23 12 7 6 6 5 6 6 6 6 6 6 5 3 2 1 1 1 2 2 4 5 6 6 8 11 13 14 14 14 14 16 19
47 42 35 32 38 42 45 43 39 36 26 15 7 7 6 6 6 6 7 6 6 5 4 3 2 1 1 2 2 3 5 5 6 7 10 13 16 16 15 15 17 19 21
50 44 37 33 35 42 50 45 43 39 32 20 10 6 6 8 7 7 7 7 6 6 4 3 2 2 2 2 3 4 4 5 7 10 14 17 17 17 16 16 18 21 23
54 45 40 33 35 46 52 50 46 41 36 25 15 22 10 6 7 8 7 7 6 6 4 3 2 2 2 3 4 4 5 7 10 13 17 18 18 18 18 20 21 23 24
56 48 42 43 41 44 51 51 49 42 38 29 18 12 9 7 8 8 8 8 7 6 5 3 2 2 3 4 5 6 8 10 12 16 18 19 19 20 21 22 24 24 25
58 53 47 47 51 45 48 51 51 46 40 29 20 14 11 9 10 10 9 9 8 7 6 4 3 3 4 4 6 8 10 13 15 18 20 21 21 22 24 25 25 27 28
64 54 54 50 50 51 50 50 50 46 42 31 23 16 13 11 11 11 10 10 9 7 5 4 4 4 4 5 7 11 14 15 17 20 23 24 23 24 25 27 26 27 29
67 62 57 54 54 52 53 53 50 47 43 35 24 18 15 13 12 12 12 11 10 8 6 5 4 4 5 6 8 11 15 17 20 23 25 25 26 26 29 28 28 28 30
64 65 62 57 56 55 57 57 54 50 45 38 28 16 14 13 13 14 14 12 11 9 6 5 5 5 6 7 10 14 17 21 23 25 27 27 29 31 31 30 29 28 31
68 66 66 68 65 60 60 61 60 53 48 40 29 18 13 12 13 14 14 14 12 9 7 6 6 7 6 8 12 16 21 24 26 28 28 30 32 34 34 32 29 28 29
91 74 66 64 69 68 67 67 64 60 52 45 26 20 14 13 13 14 16 16 15 11 8 6 6 7 7 8 11 15 21 25 26 28 29 30 33 36 36 34 31 28 29
99 91 79 76 70 71 68 68 67 63 56 48 31 17 15 12 13 16 18 18 17 14 10 7 7 7 7 8 9 12 16 20 24 27 29 30 31 35 36 36 33 32 32
93 93 100 96 87 88 81 72 65 63 58 47 32 24 16 15 14 16 19 20 20 17 13 10 8 8 8 8 9 10 11 15 19 23 26 28 30 33 37 38 37 37 35
96 97 96 98 100 96 88 81 72 65 55 43 31 20 17 17 14 17 19 20 22 22 20 17 14 12 11 11 11 13 16 20 25 27 28 31 34 36 39 41 42 41 37
97 97 96 97 96 93 88 78 69 60 52 43 31 20 18 16 16 18 18 20 21 25 27 26 24 24 23 22 21 21 24 26 28 30 32 35 38 41 43 44 45 43 38
94 96 97 97 95 94 90 85 67 61 43 40 39 25 18 16 17 17 16 18 20 23 26 30 31 31 31 32 32 30 30 30 31 33 37 40 42 44 46 47 47 44 39
96 95 96 95 80 90 96 92 93 97 66 39 30 34 28 21 30 29 19 23 27 31 27 25 29 34 35 34 36 38 36 36 37 37 39 43 47 51 51 48 47 44 39
96 96 96 93 98 97 96 99 99 99 84 60 63 48 67 63 60 46 39 42 48 45 25 20 25 30 37 39 39 38 38 39 36 36 38 43 44 43 43 41 36 37 45
97 94 96 94 95 97 94 95 100 98 93 96 94 77 88 87 76 56 53 55 50 42 30 23 18 24 28 36 39 39 39 37 37 41 42 35 37 37 38 37 41 55 54
92 94 96 95 96 96 96 89 96 97 95 95 95 95 96 94 78 74 76 73 75 64 47 37 25 24 22 27 35 32 37 37 33 30 30 29 28 36 42 50 52 52 54
97 95 93 91 96 97 96 94 95 91 96 95 96 94 98 98 98 95 93 90 93 92 75 67 51 41 29 24 28 29 32 30 25 25 28 31 45 64 66 62 62 61 61
95 94 93 96 97 95 95 95 96 96 92 97 94 99 95 98 97 96 97 97 97 98 97 98 96 86 52 33 24 25 26 30 34 49 79 92 88 82 73 66 53 47 43
89 94 95 98 96 95 93 94 95 97 97 97 97 97 97 95 95 97 98 97 96 97 94 97 95 96 92 97 80 43 37 49 73 88 87 83 76 73 65 53 47 42 44
96 98 99 93 97 94 86 96 96 96 96 96 96 95 96 96 96 94 96 97 97 97 97 96 97 96 95 96 99 98 98 96 87 75 69 64 62 62 57 62 63 63 64
84 80 67 81 69 77 51 66 89 83 92 93 96 97 96 97 97 96 96 97 97 96 96 96 97 97 97 97 97 97 99 94 87 68 56 58 64 66 64 65 64 60 63

GFSSE_500_rhum_096.txt.gz
RH
42 46 42 38 32 33 34 35 34 30 24 17 10 10 7 7 6 5 5 6 6 6 5 4 2 1 1 1 2 2 4 5 6 6 7 9 12 14 13 13 13 14 15
43 45 39 41 32 28 30 35 37 34 29 18 9 8 7 6 5 5 5 6 6 6 5 4 2 1 1 1 2 2 4 5 6 6 8 11 14 14 13 13 14 15 17
49 48 44 44 36 29 29 36 39 35 32 21 11 7 6 5 6 6 6 6 6 6 5 4 2 2 1 2 2 2 4 5 6 7 10 14 15 14 14 14 16 16 18
51 52 46 42 41 32 29 37 40 37 34 27 15 8 7 6 7 7 6 6 6 6 5 5 3 2 2 2 2 4 4 5 6 10 13 15 15 15 15 16 17 18 19
58 56 51 41 39 36 31 35 40 40 38 32 23 13 8 8 6 6 6 7 7 6 6 5 4 2 2 2 4 4 5 7 10 12 15 16 16 16 17 18 19 19 20
63 64 54 47 40 36 34 38 41 43 40 34 29 21 16 12 6 7 6 7 7 6 6 5 4 3 3 3 4 5 7 10 12 15 16 18 18 18 18 20 21 21 21
52 64 59 51 44 36 34 42 42 43 43 37 31 27 20 14 7 9 8 8 8 8 7 6 4 3 3 4 4 6 9 11 14 16 17 18 19 20 20 22 23 23 22
48 58 60 56 47 38 38 42 45 43 44 40 32 25 19 14 10 11 10 10 9 9 8 6 5 4 4 4 5 8 11 14 15 17 18 20 21 22 23 24 24 24 23
58 53 60 60 51 44 42 46 48 46 45 43 38 29 21 15 13 12 12 11 11 10 9 7 6 5 4 5 6 9 13 14 17 20 20 22 23 24 25 26 26 25 24
62 58 58 60 54 49 46 47 48 48 48 44 40 32 25 18 15 14 13 12 12 11 10 8 6 5 5 6 6 9 12 16 19 21 22 23 24 26 27 28 27 27 26
78 70 64 64 59 56 50 48 47 50 50 47 43 37 29 22 17 14 14 14 13 12 11 9 7 6 6 6 7 10 13 16 21 23 23 26 27 28 29 30 29 30 29
97 84 76 74 69 63 56 54 52 52 53 50 45 40 34 24 16 13 12 13 13 13 12 10 9 7 6 7 7 10 13 17 22 24 25 27 29 29 31 32 32 33 32
96 98 100 82 80 70 62 60 59 56 56 55 51 43 35 28 20 14 13 13 13 13 13 12 10 9 7 7 7 8 11 15 19 22 25 27 28 28 30 31 32 34 35
96 98 96 97 100 89 76 69 67 65 59 59 54 48 43 30 22 15 13 14 14 14 15 14 13 11 10 8 8 8 9 10 12 15 19 23 26 28 31 33 35 36 38
97 96 95 97 98 100 94 89 81 74 64 60 54 54 49 36 23 16 14 13 14 15 15 15 16 14 12 10 9 9 10 10 12 16 21 26 28 30 34 36 38 39 40
96 96 96 94 96 100 99 96 94 82 75 70 64 58 52 42 28 18 18 15 16 17 18 18 19 20 18 17 16 15 15 16 19 23 26 28 31 35 38 40 42 44 44
96 97 96 98 97 96 96 95 96 85 79 72 68 59 49 41 31 20 17 15 18 19 20 21 24 22 24 26 25 26 26 26 28 28 29 32 35 38 40 41 43 44 40
93 96 96 96 98 96 98 94 85 85 73 65 56 51 40 31 27 19 18 38 18 20 19 22 21 21 26 28 29 30 31 32 32 32 33 34 37 36 34 35 38 36 36
95 95 96 96 96 95 94 92 80 76 67 68 56 55 40 26 25 24 47 60 19 56 24 25 38 47 35 25 27 30 32 34 36 36 36 36 36 35 35 36 32 33 33
94 96 93 94 96 97 92 88 89 73 77 65 75 94 52 49 37 29 83 50 42 62 28 41 51 47 32 26 23 20 28 32 34 36 34 32 33 39 36 29 23 30 38
85 90 96 95 95 96 96 96 97 86 93 98 99 97 57 62 43 83 95 94 72 36 44 71 70 72 43 40 29 24 22 23 24 28 32 35 35 32 25 24 30 53 66
72 89 96 96 96 96 97 94 98 96 95 100 96 93 94 68 93 84 88 96 76 65 81 86 76 97 91 76 50 42 38 37 27 28 27 28 25 24 23 30 67 70 66
96 97 97 97 97 96 97 97 94 96 100 92 94 97 93 94 90 94 97 98 96 95 94 95 97 97 94 98 96 94 68 46 30 31 25 25 26 34 64 76 74 72 72
96 97 96 97 97 97 96 96 98 97 88 90 93 91 96 100 96 98 97 97 96 96 98 99 95 90 84 85 96 98 93 94 81 56 43 49 63 80 88 85 84 66 63
97 97 97 97 96 97 92 93 98 97 98 98 94 97 96 97 97 97 96 97 96 97 96 97 97 97 97 97 97 97 100 97 95 89 86 95 100 95 86 83 70 56 53
96 97 94 93 89 93 95 94 96 96 95 97 96 97 96 97 97 97 97 97 97 96 97 96 97 97 96 96 95 97 97 97 96 100 98 92 90 86 89 89 89 78 71

GFSSE_500_rhum_099.txt.gz
RH
20 35 40 36 41 38 34 30 26 31 29 25 19 16 15 9 8 7 6 5 6 5 5 5 4 2 1 1 2 2 3 5 6 6 7 9 11 12 12 12 12 13 14
24 32 47 40 38 41 36 31 27 28 29 26 18 11 12 9 8 6 5 6 6 5 5 5 4 2 1 1 2 2 3 5 6 6 8 11 13 13 13 13 13 14 15
30 34 48 49 46 41 35 33 29 28 29 30 22 11 9 8 7 6 5 6 6 6 6 5 4 2 2 1 2 2 3 5 6 6 10 13 13 13 14 14 14 14 15
33 34 49 51 52 44 35 30 31 28 28 30 28 16 8 7 6 6 6 6 6 6 6 5 4 3 2 2 2 3 4 5 6 10 13 14 14 14 15 15 16 16 15
33 34 49 56 53 51 41 33 33 32 31 30 30 22 12 8 7 7 6 6 7 7 6 6 5 3 2 2 3 4 4 6 9 12 14 15 14 15 15 16 17 17 16
41 36 43 58 59 56 49 39 34 35 32 34 34 27 22 11 10 6 6 6 7 7 7 6 5 4 3 3 4 4 6 9 10 13 15 15 15 16 17 18 18 19 18
50 44 43 46 61 60 52 42 34 37 35 35 37 33 26 20 15 8 7 7 8 8 9 8 6 5 4 4 4 5 7 9 12 14 15 15 15 16 18 19 20 20 21
56 51 49 48 52 58 60 48 40 38 38 38 40 37 30 24 16 11 9 10 9 9 9 9 7 5 4 4 4 5 8 10 14 15 16 16 17 19 20 21 22 23 24
76 59 59 59 60 56 62 56 48 44 42 42 40 39 34 26 18 14 11 12 11 11 11 10 8 6 5 4 5 6 8 12 14 15 16 17 19 21 23 24 24 24 27
97 70 70 60 66 61 59 60 52 50 45 46 43 41 37 30 23 17 15 12 12 12 12 11 9 8 6 5 5 6 8 10 14 16 17 19 22 24 25 26 25 26 27
90 91 88 68 61 66 58 60 58 54 48 50 48 44 40 31 25 21 18 15 13 13 14 11 10 9 7 6 6 6 8 11 14 16 19 21 24 25 26 27 29 29 29
96 96 96 93 70 68 63 58 60 63 60 54 52 47 43 36 28 21 18 16 15 14 14 12 12 11 9 7 7 7 8 10 13 16 20 23 24 26 27 28 29 30 30
80 97 97 95 77 76 74 66 60 62 59 58 53 48 45 39 30 26 18 16 14 13 13 12 11 11 10 9 8 7 7 8 10 14 18 22 24 25 26 27 29 31 33
96 96 96 98 81 80 87 87 72 64 60 57 57 53 46 41 35 28 25 19 15 13 13 13 13 12 11 11 9 8 8 8 9 11 13 15 18 20 24 27 30 32 33
96 95 94 98 96 85 94 93 90 77 71 67 64 59 54 49 41 35 28 22 17 14 15 13 12 12 14 13 13 12 10 9 9 9 10 12 16 23 27 29 32 34 33
96 92 95 96 96 98 99 96 93 87 79 76 72 66 61 55 47 42 34 26 19 14 14 13 14 14 16 15 16 15 14 14 13 12 13 16 22 26 29 32 36 38 36
98 92 96 96 96 95 96 97 100 93 90 86 81 72 65 57 49 45 36 27 22 18 14 16 17 20 19 18 20 20 20 21 22 22 22 24 27 29 32 35 37 33 30
95 95 95 96 97 96 97 95 97 97 96 95 88 75 66 57 52 44 35 26 25 21 21 45 65 21 21 24 24 24 26 26 27 28 31 31 32 34 38 39 34 31 29
95 97 96 95 97 96 97 96 95 89 89 91 90 71 55 47 41 38 33 29 36 22 28 85 44 24 30 21 28 41 40 28 27 29 32 33 37 37 37 38 39 35 28
95 95 96 94 94 96 96 95 93 87 88 88 84 65 61 52 54 43 57 44 30 27 41 93 30 75 51 23 56 51 41 29 31 28 25 31 33 33 30 33 31 33 25
96 92 91 93 97 97 96 96 94 90 88 91 82 74 68 88 87 68 88 39 42 52 46 90 31 69 28 27 49 65 70 43 33 30 23 26 30 31 29 31 29 25 26
96 96 90 96 94 94 95 96 97 96 90 85 80 89 94 93 88 74 72 61 58 50 39 86 93 46 38 78 94 74 92 87 81 48 42 37 35 31 33 31 26 24 28
95 91 78 96 96 98 96 96 96 94 94 96 95 95 94 91 95 95 94 50 81 45 95 95 96 88 94 97 98 92 96 82 84 94 90 72 56 48 47 47 47 49 61
96 89 94 91 94 94 96 96 97 98 97 95 96 96 92 94 95 96 92 91 82 92 96 97 96 97 96 97 98 89 87 89 80 88 92 93 82 75 73 71 81 81 89
96 98 97 97 97 97 97 97 96 97 96 95 96 96 95 96 94 94 96 96 96 96 96 96 97 96 97 97 97 97 97 95 98 97 98 96 98 94 96 88 88 86 82
96 96 97 96 96 97 97 97 97 97 97 97 96 96 93 96 94 95 96 97 97 97 97 96 97 97 96 97 95 96 95 97 96 96 97 97 94 90 88 78 73 71 71

GFSSE_500_rhum_102.txt.gz
RH
27 24 28 26 34 42 42 37 32 28 30 32 29 23 20 15 8 7 6 6 6 5 5 5 4 3 2 1 1 2 3 5 6 6 7 8 11 10 11 11 10 11 11
26 27 30 26 31 43 43 42 35 30 28 30 26 22 13 15 10 9 6 6 6 6 6 5 4 2 2 1 1 2 3 4 6 6 7 11 12 11 12 12 12 12 12
29 30 32 30 36 42 44 45 41 33 28 29 28 25 14 10 10 8 6 6 6 6 6 6 5 3 2 1 2 2 3 4 5 6 10 12 12 11 12 12 13 13 13
41 41 35 32 42 48 49 48 44 36 30 28 31 29 23 10 8 6 6 6 6 6 6 6 5 4 2 2 2 2 3 5 5 9 12 13 12 11 13 14 15 15 14
62 51 42 40 42 53 52 51 46 40 33 30 29 29 26 16 7 6 6 6 6 7 7 6 6 5 3 2 2 3 4 5 8 11 13 13 12 12 14 15 16 16 16
76 62 53 44 47 55 53 54 48 43 38 35 31 28 29 22 9 7 7 6 6 7 7 7 6 5 4 3 3 4 5 6 10 12 13 13 12 13 15 17 17 18 19
71 73 55 50 45 60 56 55 54 48 43 39 36 30 33 26 14 10 9 6 6 7 8 10 9 6 5 4 4 4 5 8 10 13 14 14 13 14 16 18 20 20 21
51 91 60 53 47 54 63 56 56 51 47 44 41 36 33 34 23 20 11 8 8 8 9 10 10 8 6 5 4 4 5 7 10 13 14 14 14 15 18 20 20 21 22
32 97 69 56 55 52 64 60 55 55 51 48 43 38 34 38 28 23 15 11 10 11 11 11 11 10 7 6 5 4 6 7 10 13 14 14 15 17 19 21 22 24 24
37 87 84 72 64 62 65 66 61 58 54 51 46 39 38 40 36 28 22 16 12 13 12 13 12 11 10 7 6 5 6 7 9 11 14 16 17 19 21 23 24 25 26
23 80 97 89 64 62 68 74 70 64 59 54 54 47 42 41 38 34 26 17 14 13 13 14 14 11 11 10 7 6 6 7 9 11 14 16 18 20 22 24 26 27 28
15 61 83 86 82 74 67 76 75 71 65 58 58 53 45 45 42 36 28 21 16 16 15 14 14 13 12 11 10 7 7 7 8 11 13 15 17 20 22 24 26 28 28
12 55 81 96 96 81 64 61 82 76 74 61 61 58 47 49 47 39 32 26 21 19 16 15 14 13 12 11 10 10 8 7 7 9 10 13 16 18 21 23 24 26 28
14 56 94 94 74 70 74 53 84 88 77 72 62 55 56 55 50 44 38 34 29 22 18 14 13 13 12 12 11 10 10 9 8 8 9 10 12 14 15 17 21 27 28
8 73 86 96 96 96 94 69 82 92 85 80 73 58 58 58 52 47 44 39 34 28 20 18 15 14 13 13 12 12 12 11 10 9 8 9 10 11 12 17 24 28 30
14 32 95 96 96 97 97 80 82 90 86 86 76 67 65 60 56 51 47 43 34 28 22 20 16 15 14 13 14 14 14 14 14 13 12 12 13 13 16 22 27 30 33
40 28 82 95 96 96 96 93 96 100 98 92 81 75 70 65 62 59 55 48 35 34 28 21 18 15 15 16 32 27 17 19 19 19 19 20 22 23 25 28 31 34 38
100 47 82 94 96 96 96 96 95 94 100 97 92 84 78 73 72 65 60 56 44 37 34 25 20 18 19 31 58 32 22 24 25 28 28 27 28 30 33 34 36 37 38
95 87 85 97 96 96 97 97 97 97 98 97 94 92 84 79 77 70 64 58 46 40 34 26 25 67 26 58 90 27 37 27 36 47 40 32 31 32 34 36 41 40 35
97 96 93 96 97 91 94 96 96 98 97 97 96 96 90 84 80 74 66 57 43 37 30 28 44 57 32 52 80 34 91 30 36 48 43 42 29 33 31 31 32 34 28
98 100 93 90 96 94 95 96 98 96 94 100 96 94 88 84 81 75 66 54 42 34 32 62 62 33 39 83 86 42 78 29 29 51 67 85 56 50 32 30 33 36 30
98 96 93 95 96 89 96 95 98 96 95 97 98 98 96 93 87 82 78 62 51 60 54 92 44 65 88 59 80 65 50 32 90 82 92 96 93 78 59 63 61 56 49
97 98 92 95 96 95 91 94 96 97 98 93 96 95 95 90 86 82 89 85 76 95 93 59 63 90 56 72 94 96 66 80 93 94 94 95 87 89 88 85 84 79 72
97 96 97 98 97 91 96 97 88 97 96 97 95 95 95 94 94 94 95 94 96 96 95 97 87 86 78 95 96 97 97 98 89 96 97 96 95 97 98 97 93 90 83
97 95 98 94 96 96 89 96 97 95 98 96 96 94 97 94 96 95 97 96 95 94 98 92 72 93 96 96 97 96 96 98 97 94 95 94 95 93 83 85 85 80 76
97 96 100 89 91 95 97 94 96 97 96 96 97 95 96 96 96 96 96 97 96 96 96 95 96 96 96 95 96 96 97 98 99 98 100 100 99 94 97 95 84 74 56

GFSSE_500_rhum_105.txt.gz
RH
32 28 21 24 30 30 40 42 37 36 37 38 36 32 27 21 13 7 6 6 6 6 5 5 4 3 2 1 2 2 3 5 7 7 7 9 10 10 10 10 10 10 10
41 35 26 22 26 31 38 44 42 38 38 37 35 30 26 20 15 9 7 6 6 6 6 6 5 3 2 1 1 2 3 5 6 6 7 10 10 10 10 11 11 11 11
53 50 34 30 27 32 35 43 44 43 41 36 32 30 25 20 10 9 8 6 6 6 6 7 5 4 2 2 2 2 3 4 5 6 10 11 11 10 11 12 12 12 12
61 59 53 37 33 32 38 42 44 42 44 40 34 30 29 25 11 8 8 6 6 6 6 9 6 5 3 2 2 2 2 4 5 8 11 11 11 11 12 13 13 13 13
47 76 74 46 40 38 37 49 45 44 46 43 39 33 31 29 17 8 6 6 6 7 6 11 7 6 4 3 2 2 4 5 6 10 12 12 12 11 12 14 15 15 15
6 33 60 66 42 46 42 54 53 47 49 46 42 38 31 30 24 11 7 7 7 6 7 10 12 9 6 4 3 3 4 5 8 10 12 12 12 12 12 15 18 17 16
4 6 32 58 45 42 48 51 59 54 50 47 46 43 35 32 29 14 9 8 7 6 6 9 13 13 8 5 4 4 4 5 9 11 12 13 13 13 14 17 19 19 19
4 4 73 72 62 42 50 56 62 61 56 49 46 46 41 35 33 24 15 10 7 7 7 8 12 14 12 8 6 4 4 5 8 10 13 13 14 14 15 16 19 21 22
10 4 10 60 71 55 46 58 66 64 61 55 47 46 44 38 36 32 26 18 10 8 9 10 12 14 13 12 7 5 4 5 6 10 12 14 14 14 16 19 21 23 24
52 34 15 28 37 72 56 47 61 70 65 60 51 44 46 43 37 38 31 23 16 11 11 12 13 14 13 13 12 8 6 5 6 8 10 12 14 16 17 20 24 26 26
6 44 37 35 43 73 72 50 50 67 66 61 56 48 43 48 43 40 36 26 20 15 13 12 13 15 14 12 12 10 8 7 6 7 8 11 14 16 18 21 23 26 27
4 6 48 34 54 68 95 58 51 52 60 67 64 57 51 45 49 43 40 34 24 18 15 14 14 14 15 14 13 12 10 8 8 7 8 10 12 15 17 19 21 23 24
4 4 6 41 98 72 84 74 61 52 60 64 63 60 54 44 50 50 44 38 30 24 19 18 19 16 15 14 13 12 11 10 8 8 8 8 10 12 14 16 17 18 20
6 4 3 6 36 71 96 95 82 63 60 64 64 62 56 51 49 51 52 45 35 29 23 22 20 16 15 13 12 13 11 10 10 9 8 8 8 9 11 12 12 13 17
7 5 3 5 6 50 96 86 76 68 62 63 71 70 69 60 55 52 55 50 42 33 26 25 22 18 15 14 14 13 12 11 11 11 10 10 9 9 10 10 12 14 20
9 5 3 4 5 44 97 97 95 88 78 80 83 77 79 70 92 59 59 52 42 37 36 32 26 22 19 16 15 14 13 14 17 14 14 14 14 14 14 14 16 20 25
4 4 3 13 8 17 88 94 96 83 83 82 69 81 96 77 74 68 58 51 46 39 40 37 33 29 23 18 16 16 15 26 40 21 17 18 18 22 23 24 26 28 31
4 4 44 72 74 6 32 100 97 97 92 93 70 84 93 88 73 69 63 58 50 48 42 38 33 29 25 23 18 17 18 29 52 35 24 25 33 37 33 29 30 31 30
10 20 51 51 60 12 25 93 96 97 98 98 95 89 99 89 80 72 68 64 59 57 53 48 42 35 29 23 20 40 28 66 71 44 50 33 51 58 42 37 33 35 38
17 74 98 94 86 24 49 96 96 96 96 96 96 98 96 92 86 79 75 72 67 64 58 52 45 35 30 25 28 50 41 71 69 41 78 40 31 43 66 79 68 47 55
93 100 98 100 100 35 94 95 96 96 97 96 96 95 95 89 87 86 84 78 74 72 65 57 48 29 26 26 46 85 38 73 94 51 64 52 28 50 75 79 88 83 73
97 94 97 100 98 61 95 95 96 96 97 98 96 95 98 99 96 94 90 86 79 77 68 56 36 29 32 57 81 50 45 53 69 85 78 46 43 86 89 88 89 84 84
94 99 100 100 100 80 95 93 96 97 96 96 97 99 99 97 96 94 89 83 74 70 72 64 80 89 95 89 84 69 71 84 86 96 95 70 72 97 98 88 87 94 91
97 99 98 97 100 90 93 96 98 94 97 96 96 98 99 98 96 96 96 94 93 94 94 98 97 98 96 95 90 84 89 92 96 96 97 92 95 96 95 92 77 81 80
96 97 99 97 99 96 97 95 93 96 96 96 96 96 95 96 96 94 96 97 94 96 98 96 97 97 96 97 97 97 93 88 95 98 95 94 90 83 84 82 80 81 85
95 97 96 97 96 99 94 95 96 97 96 97 95 96 98 96 95 92 96 95 95 94 97 96 94 96 96 97 97 100 96 94 98 90 89 95 96 94 78 55 56 60 64

GFSSE_500_rhum_108.txt.gz
RH
39 32 24 19 16 19 21 33 46 41 42 41 37 37 34 28 21 11 6 6 6 7 5 7 5 3 2 1 2 2 4 6 7 7 7 8 9 9 10 10 10 10 10
22 43 34 26 21 19 21 27 44 45 44 46 41 38 34 28 18 16 9 7 6 6 6 7 6 4 2 1 2 2 3 5 6 6 7 10 9 10 10 11 11 10 10
6 29 54 38 29 22 22 25 35 50 43 47 43 39 34 28 15 14 12 8 6 6 6 8 8 5 3 2 2 2 3 5 6 6 7 10 9 10 10 12 12 12 12
4 18 42 52 41 28 23 25 30 46 48 46 46 41 36 30 24 10 10 9 6 6 6 7 11 6 4 2 2 2 2 4 5 6 10 10 10 10 10 12 13 14 13
4 8 58 67 63 39 30 26 28 36 50 46 47 44 39 34 30 20 8 8 6 6 7 7 12 9 6 4 2 2 2 4 5 8 11 11 10 10 11 12 14 14 14
4 5 20 60 68 57 32 26 28 33 45 48 48 48 43 38 34 27 13 7 6 7 7 7 11 15 12 5 3 2 3 4 5 9 12 13 12 11 12 13 15 16 16
5 6 7 24 68 64 48 30 25 29 45 52 48 53 50 44 37 32 23 8 7 8 7 6 9 14 15 9 5 4 4 4 5 9 11 13 13 12 13 15 16 17 18
6 4 4 3 13 56 60 39 30 26 41 57 52 51 53 49 42 35 28 17 8 9 7 6 7 11 14 14 8 6 5 4 5 8 10 12 14 13 14 15 18 19 19
17 6 4 9 7 13 49 46 33 32 34 56 58 49 48 48 48 40 34 26 18 12 8 8 8 10 14 16 13 9 6 5 5 6 8 11 13 14 15 16 18 21 22
30 33 11 18 20 34 35 39 43 34 37 57 62 54 49 48 47 48 39 34 29 15 10 9 10 11 14 16 14 13 10 7 5 6 7 9 10 12 14 16 19 20 22
46 34 15 26 50 31 43 60 60 39 38 48 66 62 54 51 46 49 46 39 31 21 15 12 11 12 14 16 17 14 12 11 8 6 6 8 9 10 13 15 18 21 22
31 15 11 7 20 31 31 38 65 65 41 41 62 71 60 57 50 49 49 44 36 26 16 14 13 13 13 14 16 16 13 12 12 9 8 7 8 10 11 13 16 18 20
13 11 10 10 7 5 20 40 53 58 71 42 44 71 71 60 55 50 52 49 40 29 23 18 15 15 16 16 16 15 13 12 11 10 9 8 8 8 10 11 12 14 14
17 14 14 13 10 7 5 29 55 63 79 68 43 62 77 66 60 54 56 53 47 39 28 22 20 18 17 16 16 15 13 12 11 10 9 9 8 8 8 9 10 11 12
21 18 17 16 16 9 4 5 39 54 67 81 57 48 72 73 71 64 63 56 53 50 41 28 21 20 20 20 18 17 14 13 12 11 11 11 11 10 10 10 11 12 13
25 22 20 19 19 16 7 5 16 57 80 81 76 56 62 78 76 78 93 60 53 54 49 42 34 28 27 25 22 21 18 15 14 13 14 22 18 14 14 16 17 19 21
33 28 25 23 20 20 12 5 6 45 96 90 82 72 58 78 96 79 78 59 58 56 52 46 39 35 29 24 22 22 20 16 15 14 19 35 42 20 21 24 32 32 29
41 35 30 29 25 20 9 5 5 32 34 80 92 84 67 70 73 77 69 87 86 58 53 49 41 34 30 28 27 27 23 20 17 17 19 36 50 38 26 38 61 53 48
41 39 28 31 28 19 6 7 7 9 56 94 96 93 96 76 64 81 96 94 64 61 57 49 40 34 37 41 38 34 28 24 20 20 27 58 77 66 43 40 47 60 62
34 33 30 28 18 12 7 7 7 11 34 96 97 87 94 92 90 96 95 88 76 66 60 55 48 47 48 50 43 36 30 29 26 42 48 50 76 71 48 55 37 36 45
27 21 16 8 8 6 9 21 21 21 15 91 96 96 96 90 93 87 91 89 80 76 69 64 63 60 54 54 47 40 31 26 25 38 66 71 83 84 55 68 46 40 77
11 9 7 11 37 59 71 49 84 46 15 24 94 94 96 96 96 96 91 88 82 82 78 72 70 63 63 60 49 45 38 37 32 42 74 70 57 71 66 70 60 61 87
6 6 5 72 98 85 95 79 82 94 28 16 84 91 94 96 96 95 96 92 93 90 94 76 70 68 58 60 55 49 47 54 84 91 77 75 60 73 85 80 72 66 84
14 14 26 85 84 91 84 66 92 100 64 68 96 93 97 97 95 95 96 95 93 93 96 93 90 71 55 71 72 82 93 94 96 92 89 77 90 95 96 88 86 84 81
79 91 100 96 96 98 97 100 98 97 96 96 95 95 96 97 96 97 97 96 97 84 82 94 96 97 96 96 97 97 100 94 85 94 97 97 89 92 91 88 80 75 79
99 98 98 97 96 97 97 97 97 88 95 97 96 94 96 97 97 98 97 96 96 96 96 96 96 95 97 96 96 97 98 98 98 91 95 95 87 78 77 70 76 82 68

GFSSE_500_rhum_111.txt.gz
RH
26 31 25 20 12 11 18 20 26 33 36 36 39 36 37 34 27 19 11 7 7 6 7 7 6 4 2 1 2 2 4 6 6 7 7 7 8 8 8 10 10 10 9
7 31 33 26 20 15 11 16 20 26 35 37 37 39 37 35 29 19 16 9 8 6 7 6 8 5 3 2 2 2 3 5 6 7 7 9 9 9 9 9 10 10 10
2 4 27 38 32 23 16 13 17 22 26 35 38 39 38 36 28 17 14 12 10 7 6 6 9 8 5 3 2 2 2 4 6 6 7 10 9 9 9 9 11 11 11
3 2 4 28 37 29 23 20 16 20 23 32 36 39 41 36 32 23 12 10 10 8 6 6 9 11 6 4 2 2 2 3 5 6 8 10 10 10 10 10 11 12 13
4 3 2 7 38 36 24 24 18 14 21 25 37 39 44 40 35 32 22 9 8 8 6 7 8 11 13 7 4 2 2 3 4 6 9 11 11 10 11 11 12 15 15
5 4 3 3 23 39 37 26 23 18 15 21 28 37 42 44 36 35 31 19 7 6 6 7 7 11 15 15 6 3 2 3 5 6 10 12 12 11 11 12 13 14 15
6 5 4 4 17 46 42 40 30 25 19 16 23 33 40 44 43 35 32 29 15 7 7 7 7 8 13 15 13 6 4 4 4 5 9 12 13 13 12 12 14 15 16
18 8 6 5 8 31 44 49 40 31 25 21 19 29 42 41 45 42 36 32 27 12 8 7 6 7 11 14 16 12 6 4 4 5 7 10 13 13 13 12 14 17 18
68 46 8 6 4 5 12 33 41 41 35 28 25 26 38 46 46 42 37 37 31 24 10 9 7 7 9 12 17 15 12 8 5 5 6 8 11 13 14 14 15 17 18
70 69 61 10 5 5 7 6 34 55 38 35 28 27 37 50 49 44 43 40 38 33 26 15 8 8 9 10 15 17 14 13 10 6 5 6 8 10 12 14 16 16 18
43 76 67 62 17 8 8 14 11 29 59 51 35 34 34 50 58 53 47 46 42 39 35 19 12 10 10 11 13 15 16 14 12 10 7 6 7 8 10 12 13 15 17
18 36 75 63 41 20 17 23 25 20 26 38 47 34 33 50 63 62 51 50 48 42 38 21 17 12 11 12 12 13 16 15 12 11 10 8 7 7 8 9 11 12 13
14 12 15 60 32 14 11 39 30 28 31 39 48 48 32 41 62 65 64 54 54 48 41 32 21 16 13 13 13 13 14 15 15 13 11 10 8 8 7 8 9 10 10
20 16 14 17 20 12 12 11 7 10 16 24 44 54 48 41 52 68 70 66 57 52 45 40 30 22 17 15 15 15 16 15 14 12 11 10 9 9 8 8 8 9 9
27 23 20 20 18 11 10 15 14 8 6 18 40 45 58 60 51 61 75 71 63 52 51 47 42 34 24 20 17 17 16 16 14 13 12 12 11 11 12 12 12 12 14
31 30 28 23 17 14 12 13 16 16 7 6 10 30 52 59 60 49 67 80 75 59 52 52 48 43 35 27 23 23 21 18 16 15 14 14 13 12 18 28 23 18 19
31 32 32 35 28 20 17 17 17 19 16 7 6 7 53 56 61 53 53 70 78 71 60 52 51 51 46 38 32 30 26 23 21 19 16 16 15 14 24 35 40 33 27
40 35 36 36 36 23 18 15 18 21 19 12 7 8 17 88 96 81 55 65 76 73 72 61 52 53 55 44 38 33 31 30 26 22 20 18 17 15 21 42 50 58 42
39 39 37 36 42 38 22 21 22 23 22 17 7 8 14 69 95 92 67 61 73 81 78 84 64 58 57 49 44 37 35 33 30 24 23 22 20 19 22 36 55 63 70
43 40 38 35 39 43 39 35 29 28 22 14 7 8 11 87 97 98 94 71 75 92 82 84 92 66 60 50 50 48 45 44 36 29 27 27 26 34 38 42 53 65 75
37 42 42 42 43 45 43 39 35 32 24 13 8 8 6 48 69 97 96 96 96 72 98 97 96 72 62 64 58 53 55 56 49 42 37 36 40 41 41 42 53 78 75
31 32 37 38 41 42 40 38 34 26 16 9 11 9 6 25 88 96 96 99 97 92 69 98 96 92 73 71 63 62 60 58 52 50 44 46 41 46 41 56 72 77 72
22 28 32 34 33 31 31 23 16 10 9 11 14 10 6 15 92 96 95 96 95 96 96 96 95 94 78 75 71 67 76 74 66 66 76 77 43 78 86 94 87 78 60
18 19 25 29 27 24 17 12 12 14 20 28 20 17 18 20 94 96 96 97 95 94 95 99 93 84 87 79 86 88 93 87 74 83 91 94 86 87 91 94 94 85 91
13 15 18 18 16 11 9 19 30 43 33 51 100 38 34 32 87 96 94 97 96 96 95 94 92 95 94 94 96 95 95 93 95 88 91 95 91 95 90 99 90 92 85
55 56 44 13 7 27 75 74 78 72 64 96 76 93 81 76 54 56 76 95 97 96 96 98 98 97 96 94 94 96 96 92 98 97 96 100 98 98 97 99 92 92 90

GFSSE_500_rhum_114.txt.gz
RH
10 25 23 18 17 13 10 16 17 17 28 28 27 26 34 37 33 23 18 9 7 8 7 6 9 6 3 2 2 2 3 5 6 7 7 7 9 9 8 8 8 9 9
4 5 16 32 23 19 13 10 14 17 19 27 28 26 28 35 34 25 20 16 9 8 7 6 9 9 6 2 2 2 2 4 6 7 7 7 9 9 9 8 9 9 10
4 3 3 7 30 23 20 15 11 14 17 21 30 28 25 31 36 27 19 15 12 9 8 7 7 12 8 5 2 2 2 3 5 6 6 8 9 10 9 9 9 10 11
4 4 2 4 12 29 23 19 16 12 15 16 21 30 26 25 33 32 25 12 11 10 8 7 7 12 13 10 4 2 2 2 4 6 6 9 10 10 10 9 9 11 12
6 5 4 2 3 10 24 26 20 15 12 16 18 24 31 27 28 32 31 25 11 8 8 7 7 10 14 16 9 4 2 2 3 5 6 10 11 11 11 11 10 11 12
7 6 5 4 3 5 17 26 27 19 16 14 15 18 27 30 30 26 29 32 26 10 7 7 7 7 12 16 16 8 4 3 3 4 6 9 12 13 13 12 11 12 12
7 7 6 6 5 3 6 16 30 26 19 18 16 18 19 30 32 28 26 29 31 25 9 7 7 7 9 14 17 16 8 4 4 4 5 7 11 13 14 13 12 14 15
9 14 10 7 6 4 4 8 24 34 28 22 19 19 20 26 30 34 31 30 29 29 23 9 8 7 7 11 15 19 14 8 6 4 4 6 9 11 13 14 14 14 15
49 26 55 15 8 10 6 9 24 35 37 35 25 22 22 24 30 30 32 33 30 28 30 20 9 8 7 8 12 18 19 15 11 7 5 5 6 8 11 13 14 15 17
37 45 38 74 41 19 17 9 15 36 50 45 45 31 22 23 28 33 34 35 37 35 30 30 24 11 8 8 10 14 18 19 15 12 8 6 6 6 8 11 12 12 13
12 30 54 66 81 64 10 7 5 5 5 37 57 46 34 26 25 33 43 38 38 38 38 34 33 26 9 9 10 11 14 16 16 12 12 10 7 7 7 8 10 10 11
14 11 25 40 74 74 55 14 6 7 10 8 22 53 53 43 30 28 35 50 42 40 44 43 34 31 15 11 11 12 13 15 16 17 13 11 10 8 7 7 8 8 9
18 12 11 24 64 67 59 50 19 13 13 20 14 19 43 52 48 34 36 54 56 46 46 47 43 36 25 18 13 12 12 13 14 15 15 12 10 9 9 9 8 8 8
24 20 13 13 38 60 44 53 22 14 20 29 28 23 23 28 43 47 37 47 63 60 52 50 48 41 38 26 17 14 14 15 15 17 15 14 12 11 10 10 10 10 10
32 27 19 14 20 23 33 46 29 15 16 14 12 19 16 20 44 60 47 41 50 65 63 56 52 47 42 40 30 20 17 16 18 18 17 15 15 13 13 12 11 12 17
34 36 30 21 25 17 16 46 32 14 13 14 12 8 7 22 42 59 72 55 48 57 68 63 58 57 51 46 40 32 23 21 21 23 20 19 19 18 16 14 13 14 27
44 38 38 32 24 20 19 20 21 16 11 13 16 15 8 7 7 23 64 76 70 55 55 60 62 64 60 54 48 44 36 30 29 30 29 27 26 24 19 18 17 15 22
55 47 41 38 32 28 23 21 21 17 14 13 16 18 17 9 7 8 16 58 75 74 61 54 67 67 64 61 56 53 49 40 36 35 34 32 29 28 27 27 26 23 20
51 55 50 45 43 35 30 27 23 20 18 15 16 18 20 15 9 9 13 42 92 83 77 61 54 64 69 73 59 56 54 51 43 39 36 34 34 33 37 38 37 35 34
46 49 52 50 47 47 43 38 35 28 22 20 17 20 22 22 11 9 12 46 97 95 96 96 70 81 66 90 77 70 59 53 51 45 39 39 41 42 43 43 44 41 39
31 46 45 49 48 46 46 46 44 36 24 23 20 26 26 24 17 8 11 44 99 97 96 88 97 69 68 85 92 81 74 56 54 48 48 46 49 47 51 46 44 42 46
26 35 45 44 46 46 45 47 48 45 43 40 39 35 30 27 19 8 9 45 84 96 96 97 96 89 84 86 84 92 92 56 56 60 57 70 67 64 71 63 58 57 53
18 28 36 44 46 44 44 46 48 46 44 43 40 38 34 28 17 9 8 15 56 94 97 96 96 96 97 92 99 92 91 90 82 83 83 68 75 92 93 65 71 78 82
15 20 29 35 39 44 44 42 45 47 43 38 37 36 28 19 11 13 13 10 29 70 72 96 95 97 96 95 92 82 85 95 94 82 90 93 95 96 91 91 93 89 89
12 15 20 28 33 34 36 36 40 41 35 31 26 16 14 16 19 14 17 19 59 96 98 96 97 97 97 96 96 96 94 86 91 94 98 95 96 100 97 99 98 96 86
6 8 13 19 22 24 24 25 31 32 26 18 12 21 42 30 39 52 68 59 51 99 97 95 86 80 84 95 96 96 96 93 96 97 92 97 97 100 98 96 95 92 87

GFSSE_500_rhum_117.txt.gz
RH
3 7 24 26 18 15 13 12 19 20 20 30 29 26 27 32 30 26 21 11 7 8 7 7 10 9 5 2 2 2 3 4 6 7 7 6 8 8 8 8 7 8 8
4 4 4 18 25 22 20 19 13 18 20 19 26 28 25 29 32 29 23 18 10 10 9 8 9 12 9 5 2 2 2 3 5 6 7 7 9 9 9 8 8 8 8
5 4 3 3 9 24 32 22 19 13 14 18 18 26 26 23 30 30 26 19 16 12 11 8 7 12 12 10 5 2 2 2 4 5 6 6 9 10 10 10 9 9 9
6 5 4 3 2 4 17 28 24 18 13 12 16 18 27 26 22 30 27 21 13 12 11 9 7 10 13 14 10 4 2 2 3 4 6 6 9 10 10 10 10 9 10
7 6 6 5 4 3 3 20 30 24 18 14 12 17 23 29 26 21 27 27 20 11 10 9 7 7 12 16 15 9 4 2 2 3 5 6 10 11 11 11 10 10 11
7 7 7 6 7 8 9 4 17 35 26 19 13 14 20 26 30 38 25 27 28 24 11 7 7 7 9 14 16 16 9 4 3 3 4 6 8 11 12 12 11 10 11
7 7 7 7 6 7 8 6 7 12 32 28 18 14 15 20 27 43 40 25 25 27 28 14 7 7 7 11 15 18 17 10 5 4 4 5 6 9 11 12 13 13 12
8 14 11 8 11 10 7 11 10 6 13 33 27 19 15 15 21 37 44 33 28 24 28 28 16 8 7 7 12 15 20 18 11 6 5 4 5 6 8 10 12 12 13
12 19 67 37 16 11 9 7 6 12 12 25 37 29 21 20 19 30 36 35 34 28 25 27 28 14 9 7 8 12 17 20 19 14 9 6 5 5 7 8 9 10 10
14 12 28 69 52 50 14 12 16 8 9 20 31 38 38 28 24 18 23 31 35 35 27 26 26 28 21 12 7 9 13 18 20 19 15 12 8 6 6 7 8 8 9
16 14 12 45 64 49 65 33 59 33 15 15 30 44 46 41 35 25 22 24 37 41 37 31 29 26 28 28 10 8 9 13 17 20 20 15 12 10 8 7 7 7 8
18 16 13 12 29 58 57 72 66 37 21 11 6 7 17 47 55 41 28 28 27 43 49 41 36 31 29 30 21 10 10 11 12 14 18 19 15 11 10 10 9 8 8
22 23 17 15 13 28 60 58 64 60 9 6 7 8 11 9 35 57 47 35 33 32 45 51 46 40 36 33 28 17 14 12 12 13 14 15 16 15 12 11 9 9 9
23 24 24 19 15 12 27 33 42 65 61 18 15 14 19 21 13 36 61 58 47 37 36 50 54 50 45 42 36 33 24 15 13 13 14 15 18 18 15 13 12 12 12
38 28 32 26 19 13 20 23 47 53 65 52 23 17 28 28 25 24 33 53 52 50 45 46 54 56 52 49 46 40 34 25 18 15 15 17 20 20 18 17 16 16 15
11 41 38 36 27 21 15 15 41 36 40 39 15 21 20 13 20 21 31 35 43 49 51 49 52 60 60 57 55 48 39 34 29 20 19 20 22 25 24 23 22 22 21
6 8 41 40 39 31 23 17 19 45 28 39 26 19 13 14 11 8 26 48 52 64 66 68 63 59 65 66 65 58 53 44 35 29 23 22 24 29 31 30 28 27 27
8 6 9 45 45 43 36 22 16 39 19 37 37 19 13 14 16 12 8 9 22 52 62 64 78 80 63 58 66 68 64 59 49 43 34 31 30 33 36 35 33 34 35
11 9 8 13 48 48 46 38 23 20 17 19 43 28 13 14 16 17 16 10 9 13 22 41 61 84 96 74 69 65 69 72 62 52 47 42 38 37 39 40 38 38 41
13 13 12 10 24 52 50 47 38 26 21 20 23 31 16 13 16 18 18 17 12 10 11 90 61 87 96 96 84 52 56 76 74 60 57 52 44 42 41 42 43 44 47
16 16 15 14 16 42 53 51 45 36 28 24 22 28 25 15 15 18 20 21 19 11 16 34 93 95 97 94 84 67 58 71 80 86 93 74 47 43 40 41 44 46 58
19 18 15 14 14 22 50 56 55 48 38 31 29 27 23 19 18 17 21 24 24 18 10 21 80 87 98 96 95 96 98 97 78 96 97 96 58 39 33 39 50 76 78
14 13 13 12 13 15 31 55 58 56 52 46 42 40 37 31 22 18 27 31 28 24 11 9 65 97 97 96 95 94 96 96 95 96 94 94 96 40 61 85 93 95 87
12 13 12 13 15 15 21 42 54 59 56 52 50 45 44 42 39 39 39 35 32 29 19 8 9 61 96 99 96 96 97 96 96 95 92 96 97 98 97 94 96 98 96
34 18 13 14 16 16 18 31 46 52 55 54 51 52 48 46 43 41 40 36 34 27 14 12 12 14 90 92 97 97 96 94 95 97 96 94 96 96 94 95 97 99 92
46 25 14 13 13 15 17 24 36 44 47 50 54 52 49 46 41 37 33 19 14 12 15 14 14 17 86 94 97 92 96 96 96 96 94 96 96 99 97 97 96 98 97

GFSSE_500_rhum_120.txt.gz
RH
4 4 7 16 25 19 14 13 13 21 20 20 27 27 23 29 30 25 20 11 8 9 8 8 11 10 7 3 2 2 3 4 5 6 7 7 7 8 9 9 8 8 8
5 4 3 6 22 29 20 17 16 14 19 19 20 26 26 23 30 28 24 19 11 11 9 8 10 12 9 7 3 2 2 3 4 6 7 7 7 9 9 9 8 8 8
7 5 4 3 3 18 28 26 22 20 16 13 18 18 25 27 23 30 27 21 18 14 12 8 7 12 12 12 7 3 2 2 3 5 6 6 7 9 10 10 9 8 8
6 6 6 5 3 3 9 23 29 30 24 16 11 14 18 25 27 24 29 25 18 16 12 10 7 8 12 14 11 6 3 2 2 3 5 6 7 10 10 10 10 9 9
8 7 6 6 5 6 12 7 10 32 36 26 17 12 13 18 24 28 26 28 23 15 12 9 8 7 10 14 14 11 5 3 2 3 4 5 7 9 11 11 11 10 9
9 8 8 8 8 10 15 8 9 6 24 38 27 18 13 15 21 35 31 26 28 24 18 9 7 7 7 11 15 15 13 7 4 3 4 5 6 8 10 11 12 11 10
11 9 7 7 11 16 19 25 23 14 12 20 36 32 19 14 22 42 39 40 25 27 28 23 11 7 7 7 11 15 17 15 9 6 4 4 5 6 8 10 11 11 11
11 11 10 8 7 12 14 23 27 26 29 19 19 36 33 20 22 27 38 47 38 24 26 29 27 15 8 7 7 10 14 17 16 12 8 6 5 5 6 8 10 10 11
11 12 12 14 14 11 10 13 13 16 18 31 23 24 35 36 26 25 26 47 52 40 30 25 28 28 20 9 8 7 8 12 16 18 15 12 8 6 5 6 7 8 9
12 12 12 12 23 64 30 12 11 10 16 12 19 24 30 42 33 24 27 40 38 44 43 36 26 25 27 22 12 8 8 9 12 14 16 15 13 11 8 7 6 6 7
14 14 15 15 13 21 67 52 41 24 15 60 30 14 36 31 43 37 31 26 26 29 40 42 38 30 26 25 26 21 10 8 9 10 13 15 16 14 11 9 8 7 8
15 17 17 16 16 13 23 59 61 56 50 55 54 22 16 30 44 50 53 53 44 28 27 39 44 39 33 31 26 29 25 10 9 10 11 12 14 16 16 12 10 9 8
19 18 18 19 19 16 15 49 58 57 65 63 63 32 17 26 36 20 33 53 56 42 32 32 40 44 44 39 37 32 32 17 12 11 11 12 12 14 15 15 15 13 11
16 30 24 23 23 23 18 13 17 42 61 68 69 51 8 8 21 26 22 29 48 58 49 39 37 40 47 46 44 43 38 29 22 16 13 12 13 13 13 16 17 16 15
6 5 19 31 26 25 25 21 15 14 41 44 52 69 53 20 30 20 26 32 40 45 66 64 51 44 45 48 53 52 46 40 35 29 18 14 14 14 15 16 18 19 19
6 7 6 6 27 32 29 28 23 15 14 19 20 60 74 62 43 45 37 37 29 31 33 54 56 57 48 47 52 57 56 50 44 40 34 25 19 16 17 18 19 22 24
6 6 6 6 6 10 36 32 30 21 14 16 16 47 66 59 30 54 43 42 39 37 20 28 45 53 59 58 50 50 58 60 55 48 44 39 33 26 21 19 20 25 30
8 7 6 5 6 7 6 38 37 32 21 16 16 20 48 55 26 23 14 16 20 44 42 28 47 53 64 70 76 66 55 61 66 60 56 53 47 43 37 34 30 29 33
10 9 9 8 6 6 8 6 37 42 34 24 18 15 30 46 49 25 14 14 16 20 15 11 12 15 22 99 70 94 93 75 66 74 69 61 58 50 50 46 43 38 34
18 16 12 10 8 8 6 8 7 42 45 40 27 16 30 39 42 40 20 12 16 17 18 18 14 12 12 23 54 79 77 98 97 86 83 75 74 70 55 48 50 43 35
15 17 15 13 12 10 8 7 8 7 50 54 42 26 18 48 25 52 41 23 14 16 18 17 16 22 13 16 46 70 76 88 97 97 85 84 79 85 76 82 91 60 30
12 12 13 13 13 12 11 13 10 8 19 58 57 44 25 22 24 21 23 27 16 13 17 19 20 22 22 16 23 72 83 95 92 99 94 96 77 86 85 85 91 68 44
18 19 18 17 18 21 19 17 13 10 10 32 63 58 41 27 21 21 22 25 21 17 18 19 23 26 26 27 20 30 73 96 94 95 96 96 96 96 94 94 97 96 96
16 18 18 18 17 15 19 18 16 12 12 18 52 67 56 38 30 27 26 27 28 27 22 20 28 33 31 28 20 14 75 96 95 98 93 95 97 96 97 97 96 96 95
46 45 32 21 14 14 14 13 16 13 11 14 28 62 64 53 43 38 37 39 40 37 28 34 35 37 35 33 26 12 10 27 58 92 92 92 90 90 98 96 96 97 97
59 56 56 35 20 15 13 13 11 11 10 11 20 47 63 61 56 52 47 46 44 43 42 42 41 40 32 21 16 19 18 28 91 95 90 88 96 97 94 92 97 96 96

GFSSE_500_rhum_123.txt.gz
RH
5 4 8 11 17 18 17 15 13 19 26 21 25 28 24 23 30 28 20 10 8 8 10 10 12 11 7 3 2 2 2 3 5 6 7 7 7 9 9 9 9 8 7
6 6 4 4 7 13 20 20 16 18 17 18 19 20 26 25 23 29 26 20 10 10 8 9 10 12 10 6 3 2 2 2 3 5 6 7 7 9 9 10 9 9 8
7 7 6 4 4 5 16 23 22 18 18 18 17 22 17 24 25 25 29 25 19 12 11 9 8 11 11 12 7 3 2 2 2 3 5 6 7 8 10 10 10 9 9
7 7 7 6 5 4 4 10 28 26 22 23 20 14 13 16 21 25 25 29 23 17 14 11 8 8 11 13 12 6 3 2 2 3 4 5 6 7 10 11 11 11 10
9 9 8 6 6 6 11 20 13 13 26 27 30 25 17 14 16 24 26 28 29 20 14 13 10 7 9 13 13 12 7 4 3 2 3 4 5 6 9 11 12 12 11
11 12 31 12 8 10 15 19 18 13 12 10 24 33 27 20 14 18 25 25 27 28 22 14 10 8 7 9 14 14 13 10 6 4 4 4 4 6 7 9 12 12 13
11 11 13 20 12 15 17 19 25 24 20 13 10 18 34 31 23 17 22 44 30 26 28 25 16 9 7 7 9 14 14 14 12 9 6 5 5 5 6 7 8 10 12
10 14 20 12 10 10 14 26 22 25 30 28 28 19 19 33 38 24 25 40 51 35 25 25 28 24 12 7 7 9 13 15 15 14 13 10 7 6 5 5 6 7 8
10 11 15 14 12 11 9 14 20 24 28 29 30 32 27 27 34 40 31 31 31 48 41 26 22 25 27 21 9 8 8 11 13 15 16 15 13 10 8 6 6 6 6
10 11 12 13 22 13 12 18 13 28 21 23 13 17 22 29 34 40 40 34 28 35 48 43 34 26 22 26 25 13 8 7 10 14 15 16 16 15 13 11 9 8 7
11 10 11 12 13 16 27 13 39 48 15 17 10 14 47 21 22 39 41 38 26 24 39 39 42 40 34 26 24 27 24 15 8 8 11 14 16 17 18 16 14 11 10
16 14 13 13 14 16 15 20 15 21 63 48 41 18 53 49 18 32 39 44 47 43 31 25 24 25 33 38 32 27 25 29 28 12 9 9 11 13 14 14 14 15 15
30 28 18 16 15 15 16 18 17 15 15 52 60 54 46 62 36 22 37 40 42 54 58 55 46 30 27 34 39 38 33 28 27 28 14 10 10 11 11 12 13 13 14
5 10 23 28 24 18 19 17 18 25 23 48 60 59 63 63 63 28 36 42 35 30 32 56 58 49 36 33 35 42 44 40 35 29 27 20 16 13 12 12 13 13 14
6 6 5 6 13 26 27 22 21 21 18 17 24 30 52 68 73 39 25 30 37 43 43 41 50 54 55 48 41 38 45 50 46 42 36 33 32 26 19 15 14 15 15
6 7 7 6 5 5 8 23 30 25 25 20 16 14 14 59 58 78 74 55 50 32 46 43 38 46 56 54 59 53 46 46 53 53 52 48 41 39 36 30 22 18 18
9 7 6 5 6 5 6 5 6 21 31 26 24 18 15 19 35 39 85 84 68 66 61 60 42 35 34 40 45 52 57 54 50 60 64 63 57 50 44 40 37 30 27
13 12 11 8 7 6 5 5 6 10 15 24 32 27 21 16 16 22 54 96 65 65 63 59 59 63 51 40 40 44 54 60 71 72 60 61 70 71 62 55 51 48 43
18 16 14 13 11 10 8 6 5 5 14 20 13 35 32 23 17 18 26 81 63 53 54 30 35 44 53 40 29 26 36 68 82 69 91 86 75 78 90 80 66 64 52
21 19 18 18 17 15 12 9 8 6 6 11 10 12 39 35 25 18 17 22 82 52 28 19 22 22 22 21 19 14 12 25 49 44 74 74 87 96 95 88 80 74 82
17 17 15 15 15 17 18 15 13 10 8 9 10 11 10 47 41 30 22 16 31 76 49 16 14 19 22 21 29 24 21 17 12 29 42 55 78 97 97 96 90 90 89
12 11 9 8 10 10 12 14 16 15 14 11 13 9 7 17 52 44 36 26 18 59 49 49 48 31 16 14 19 20 20 23 24 19 31 71 92 95 98 94 97 96 95
6 6 7 8 8 9 10 11 12 15 16 15 14 18 20 13 28 55 48 38 26 21 43 30 34 27 21 14 15 18 21 25 27 26 22 40 84 98 93 95 94 96 86
16 13 14 14 13 14 15 14 14 14 12 12 12 14 14 12 12 48 61 50 41 28 22 21 22 26 23 19 22 19 20 29 33 30 28 23 51 86 95 92 95 86 87
47 48 35 26 21 18 17 18 16 15 16 17 20 23 22 15 16 20 61 62 50 41 30 26 24 24 26 30 30 26 30 34 36 34 30 19 19 20 27 85 93 88 89
35 66 51 51 48 29 21 18 16 17 18 16 19 24 35 22 17 17 38 65 58 47 38 34 32 34 38 38 37 37 38 39 36 28 20 23 30 71 97 90 81 92 96

GFSSE_500_rhum_126.txt.gz
RH
6 6 5 6 10 18 19 17 16 15 20 28 22 21 27 25 30 30 24 14 8 8 10 11 12 12 8 4 2 2 2 3 4 5 6 7 6 8 9 10 9 9 8
6 6 7 7 5 8 11 18 20 19 18 21 26 22 18 22 23 26 30 24 15 9 9 9 11 13 10 8 4 2 2 2 3 4 5 6 6 7 9 10 10 10 9
8 7 6 9 4 4 4 9 16 19 22 19 18 19 25 19 19 22 26 30 23 17 11 9 9 11 13 12 9 5 3 2 2 3 4 5 6 6 8 10 10 10 10
10 8 7 8 7 6 5 4 4 13 25 27 19 19 18 16 18 20 22 25 30 23 18 12 10 8 11 14 13 10 6 4 2 2 3 4 5 6 8 10 11 11 12
10 11 10 8 7 8 6 10 14 14 9 13 23 26 24 23 17 16 20 25 25 29 22 18 15 10 8 11 14 14 11 7 5 4 3 3 4 5 6 8 10 11 12
8 15 12 11 25 11 14 13 15 22 14 10 9 11 19 25 29 22 16 18 26 24 28 23 15 14 10 8 12 14 14 13 11 7 5 4 4 4 5 6 7 9 11
9 9 17 18 20 27 19 14 16 24 27 22 16 9 7 14 21 26 25 19 19 26 23 25 25 17 11 10 7 10 14 15 14 13 11 9 7 6 6 6 6 6 7
9 10 10 16 25 21 14 11 13 22 23 25 30 28 25 14 17 30 32 29 23 28 36 26 26 28 24 13 8 7 9 13 15 15 13 12 12 11 10 8 7 6 6
8 10 10 13 12 22 20 12 11 10 18 24 30 32 30 33 25 20 26 41 34 26 33 48 32 25 26 28 25 12 8 8 10 13 14 16 16 15 14 13 12 10 9
10 9 9 9 10 10 12 15 18 11 11 13 26 19 16 14 20 26 28 29 35 37 34 30 42 44 32 28 28 29 23 12 8 8 9 13 14 14 16 17 16 15 14
12 12 12 12 11 22 17 11 13 16 14 32 25 18 19 13 19 34 22 30 40 42 37 30 34 43 43 41 37 31 28 29 26 17 10 8 9 11 12 14 15 16 16
18 15 13 12 13 13 13 34 24 11 20 15 32 59 27 18 14 56 42 20 36 36 40 43 34 35 28 30 29 35 38 33 30 29 29 27 13 9 9 10 10 10 10
26 30 30 27 22 17 14 13 27 36 15 14 17 16 49 55 47 33 59 46 20 33 41 47 47 46 49 40 30 29 36 41 39 36 33 29 29 22 12 11 11 11 12
6 6 9 17 26 29 28 23 18 15 17 19 17 17 15 30 64 62 61 62 32 30 38 36 28 32 45 52 58 45 33 34 39 43 44 40 37 34 29 24 20 17 14
7 7 6 6 5 7 12 20 26 26 35 30 34 32 23 26 49 57 60 74 74 37 38 39 32 31 30 40 52 57 56 46 38 39 46 48 49 48 44 41 38 35 29
7 7 7 7 6 6 5 5 6 10 19 40 39 31 20 16 18 22 21 45 84 74 64 37 33 36 44 43 41 45 61 62 60 57 51 58 61 60 58 54 55 52 44
14 12 10 8 7 6 5 5 5 5 5 11 14 35 33 26 19 17 22 15 46 61 73 88 78 58 53 56 41 34 34 36 44 47 55 56 56 63 61 65 63 64 64
20 17 16 15 11 9 7 6 5 4 4 5 6 23 33 32 32 23 19 22 21 30 38 76 93 82 78 64 61 65 49 35 48 41 50 41 47 68 74 70 62 63 73
25 23 21 18 16 15 12 10 7 5 5 5 4 22 14 16 18 37 31 24 22 40 43 32 87 82 72 55 52 57 59 47 19 18 14 13 54 74 52 66 90 84 93
29 28 26 25 21 19 18 16 14 12 9 8 6 6 12 27 55 43 26 35 30 28 37 50 70 82 69 60 39 29 37 30 19 19 16 18 16 12 21 42 53 68 80
28 28 27 26 26 24 22 21 18 16 16 12 10 9 8 10 43 26 32 46 61 34 34 23 21 41 83 72 22 22 24 22 22 25 22 20 22 24 22 18 52 92 97
20 20 20 20 21 21 20 18 19 18 16 18 17 15 12 15 20 27 16 12 9 11 35 42 32 20 21 79 56 46 39 33 18 14 16 18 23 27 28 26 21 51 94
7 7 8 8 10 13 14 13 12 10 12 12 14 16 18 18 26 36 25 15 10 8 10 34 47 39 24 38 73 46 38 30 23 18 19 20 20 26 34 33 28 20 53
34 36 28 23 18 16 10 7 7 9 8 8 12 12 14 20 29 38 32 30 21 16 11 19 51 55 41 28 23 25 21 21 22 23 26 26 28 33 36 35 32 26 31
51 38 45 49 54 53 39 35 17 14 12 11 11 13 14 17 30 35 36 32 28 24 18 18 38 59 53 42 34 25 25 26 28 30 31 35 36 37 36 31 26 60 23
72 73 73 73 81 66 44 71 32 20 17 16 15 16 16 16 16 32 48 50 29 18 15 12 27 52 59 51 41 34 33 35 33 39 39 39 38 36 31 26 35 68 91